[[{"header":{"parameterUnit":"m.s-1","parameterCategory":1,"la1":31.0,"la2":29.5877,"lo1":-88.7671,"lo2":-86.6584,"dx":0.0162,"dy":0.0185,"nx":115,"ny":88,"refTime":"2023-01-01T18:00:00:Z","depth":0,"parameterNumber":2,"parameterNumberName":"U-component_of_WINDS"},"data":[0.0,0.0,0.0,0.0,0.0,0.0,0.0,0.0,0.0,0.0,0.0,0.0,0.0,0.0,0.0,0.0,0.0,0.0,0.0,0.0,0.0,0.0,0.0,0.0,0.0,0.0,0.0,0.0,0.0,0.0,0.0,0.0,0.0,0.0,0.0,0.0,0.0,0.0,0.0,0.0,0.0,0.0,0.0,0.0,0.0,0.0,0.0,0.0,0.0,0.0,0.0,0.0,0.0,0.0,0.0,0.0,0.0,0.0,0.0,0.0,0.0,0.0,0.0,0.0,0.0,0.0,0.0,0.0,0.0,0.0,0.0,0.0,0.0,0.0,0.0,0.0,0.0,0.0,0.0,0.0,0.0,0.0,0.0,0.0,0.0,0.0,0.0,0.0,0.0,0.0,0.0,0.0,0.0,0.0,0.0,0.0,0.0,0.0,0.0,0.0,0.0,0.0,0.0,0.0,0.0,0.0,0.0,0.0,0.0,0.0,0.0,0.0,0.0,0.0,0.0,0.0,0.0,0.0,0.0,0.0,0.0,0.0,0.0,0.0,0.0,0.0,0.0,0.0,0.0,0.0,0.0,0.0,0.0,0.0,0.0,0.0,0.0,0.0,0.0,0.0,0.0,0.0,0.0,0.0,0.0,0.0,0.0,0.0,0.0,0.0,0.0,0.0,0.0,0.0,0.0,0.0,0.0,0.0,0.0,0.0,0.0,0.0,0.0,0.0,0.0,0.0,0.0,0.0,0.0,0.0,0.0,0.0,0.0,0.0,0.0,0.0,0.0,0.0,0.0,0.0,0.0,0.0,0.0,0.0,0.0,0.0,0.0,0.0,0.0,0.0,0.0,0.0,0.0,0.0,0.0,0.0,0.0,0.0,0.0,0.0,0.0,0.0,0.0,0.0,0.0,0.0,0.0,0.0,0.0,0.0,0.0,0.0,0.0,0.0,0.0,0.0,0.0,0.0,0.0,0.0,0.0,0.0,0.0,0.0,0.0,0.0,0.0,0.0,0.0,0.0,0.0,0.0,0.0,0.0,0.0,0.0,0.0,0.0,0.0,0.0,0.0,0.0,0.0,0.0,0.0,0.0,0.0,0.0,0.0,0.0,0.0,0.0,0.0,0.0,0.0,0.0,0.0,0.0,0.0,0.0,0.0,0.0,0.0,0.0,0.0,0.0,0.0,0.0,0.0,0.0,0.0,0.0,0.0,0.0,0.0,0.0,0.0,0.0,0.0,0.0,0.0,0.0,0.0,0.0,0.0,0.0,0.0,0.0,0.0,0.0,0.0,0.0,0.0,0.0,0.0,0.0,0.0,0.0,0.0,0.0,0.0,0.0,0.0,0.0,0.0,0.0,0.0,0.0,0.0,0.0,0.0,0.0,0.0,0.0,0.0,0.0,0.0,0.0,0.0,0.0,0.0,0.0,0.0,0.0,0.0,0.0,0.0,0.0,0.0,0.0,0.0,0.0,0.0,0.0,0.0,0.0,0.0,0.0,0.0,0.0,0.0,0.0,0.0,0.0,0.0,0.0,0.0,0.0,0.0,0.0,0.0,0.0,0.0,0.0,0.0,0.0,0.0,0.0,0.0,0.0,0.0,0.0,0.0,0.0,0.0,0.0,0.0,0.0,0.0,0.0,0.0,0.0,0.0,0.0,0.0,0.0,0.0,0.0,0.0,0.0,0.0,0.0,0.0,0.0,0.0,0.0,0.0,0.0,0.0,0.0,0.0,0.0,0.0,0.0,0.0,0.0,0.0,0.0,0.0,0.0,0.0,0.0,0.0,0.0,0.0,0.0,0.0,0.0,0.0,0.0,0.0,0.0,0.0,0.0,0.0,0.0,0.0,0.0,0.0,0.0,0.0,0.0,0.0,0.0,0.0,0.0,0.0,0.0,0.0,0.0,0.0,0.0,0.0,0.0,0.0,0.0,0.0,0.0,0.0,0.0,0.0,0.0,0.0,0.0,0.0,0.0,0.0,0.0,0.0,0.0,0.0,0.0,0.0,0.0,0.0,0.0,0.0,0.0,0.0,0.0,0.0,0.0,0.0,0.0,0.0,0.0,0.0,0.0,0.0,0.0,0.0,0.0,0.0,0.0,0.0,0.0,0.0,0.0,0.0,0.0,0.0,0.0,0.0,0.0,0.0,0.0,0.0,0.0,0.0,0.0,0.0,0.0,0.0,0.0,0.0,0.0,0.0,0.0,0.0,0.0,0.0,0.0,0.0,0.0,0.0,0.0,0.0,0.0,0.0,0.0,0.0,0.0,0.0,0.0,0.0,0.0,0.0,0.0,0.0,0.0,0.0,0.0,0.0,0.0,0.0,0.0,0.0,0.0,0.0,0.0,0.0,0.0,0.0,0.0,0.0,0.0,0.0,0.0,0.0,0.0,0.0,0.0,0.0,0.0,0.0,0.0,0.0,0.0,0.0,0.0,0.0,0.0,0.0,0.0,0.0,0.0,0.0,0.0,0.0,0.0,0.0,0.0,0.0,0.0,0.0,0.0,0.0,0.0,0.0,0.0,0.0,0.0,0.0,0.0,0.0,0.0,0.0,0.0,0.0,0.0,0.0,0.0,0.0,0.0,0.0,0.0,0.0,0.0,0.0,0.0,0.0,0.0,0.0,0.0,0.0,0.0,0.0,0.0,0.0,0.0,0.0,0.0,0.0,0.0,0.0,0.0,0.0,0.0,0.0,0.0,0.0,0.0,0.0,0.0,0.0,0.0,0.0,0.0,0.0,0.0,0.0,0.0,0.0,0.0,0.0,0.0,0.0,0.0,0.0,0.0,0.0,0.0,0.0,0.0,0.0,0.0,0.0,0.0,0.0,0.0,0.0,0.0,0.0,0.0,0.0,0.0,0.0,0.0,0.0,0.0,0.0,0.0,0.0,0.0,0.0,0.0,0.0,0.0,0.0,0.0,0.0,0.0,0.0,0.0,0.0,0.0,0.0,0.0,0.0,0.0,0.0,0.0,0.0,0.0,0.0,0.0,0.0,0.0,0.0,0.0,0.0,0.0,0.0,0.0,0.0,0.0,0.0,0.0,0.0,0.0,0.0,0.0,0.0,0.0,0.0,0.0,0.0,0.0,0.0,0.0,0.0,0.0,0.0,0.0,0.0,0.0,0.0,0.0,0.0,0.0,0.0,0.0,0.0,0.0,0.0,0.0,0.0,0.0,0.0,0.0,0.0,0.0,0.0,0.0,0.0,0.0,0.0,0.0,0.0,0.0,0.0,0.0,0.0,0.0,0.0,0.0,0.0,0.0,0.0,0.0,0.0,0.0,0.0,0.0,0.0,0.0,0.0,0.0,0.0,0.0,0.0,0.0,0.0,0.0,0.0,0.0,0.0,0.0,0.0,0.0,0.0,0.0,0.0,0.0,0.0,0.0,0.0,0.0,0.0,0.0,0.0,0.0,0.0,0.0,0.0,0.0,0.0,0.0,0.0,0.0,0.0,0.0,0.0,0.0,0.0,0.0,0.0,0.0,0.0,0.0,0.0,0.0,0.0,0.0,0.0,0.0,0.0,0.0,0.0,0.0,0.0,0.0,0.0,0.0,0.0,0.0,0.0,0.0,0.0,0.0,0.0,0.0,0.0,0.0,0.0,0.0,0.0,0.0,0.0,0.0,0.0,0.0,0.0,0.0,0.0,0.0,0.0,0.0,0.0,0.0,0.0,0.0,0.0,0.0,0.0,0.0,0.0,0.0,0.0,0.0,0.0,0.0,0.0,0.0,0.0,0.0,0.0,0.0,0.0,0.0,0.0,0.0,0.0,0.0,0.0,0.0,0.0,0.0,0.0,0.0,0.0,0.0,0.0,0.0,0.0,0.0,0.0,0.0,0.0,0.0,0.0,0.0,0.0,0.0,0.0,0.0,0.0,0.0,0.0,0.0,0.0,0.0,0.0,0.0,0.0,0.0,0.0,0.0,0.0,0.0,0.0,0.0,0.0,0.0,0.0,0.0,0.0,0.0,0.0,0.0,0.0,0.0,0.0,0.0,0.0,0.0,0.0,0.0,0.0,0.0,0.0,0.0,0.0,0.0,0.0,0.0,0.0,0.0,0.0,0.0,0.0,0.0,0.0,0.0,0.0,0.0,0.0,0.0,0.0,0.0,0.0,0.0,0.0,0.0,0.0,0.0,0.0,0.0,0.0,0.0,0.0,0.0,0.0,0.0,0.0,0.0,0.0,0.0,0.0,0.0,0.0,0.0,0.0,0.0,0.0,0.0,0.0,0.0,0.0,0.0,0.0,0.0,-1.4384,0.0,0.0,0.0,-1.0689,0.0,0.0,0.0,0.0,0.0,0.0,0.0,0.0,0.0,0.0,0.0,0.0,0.0,0.0,0.0,0.0,0.0,0.0,0.0,0.0,0.0,0.0,0.0,0.0,0.0,0.0,0.0,0.0,0.0,0.0,0.0,0.0,0.0,0.0,0.0,0.0,0.0,0.0,0.0,0.0,0.0,0.0,0.0,0.0,0.0,0.0,0.0,0.0,0.0,0.0,0.0,0.0,0.0,0.0,0.0,0.0,0.0,0.0,0.0,0.0,0.0,0.0,0.0,0.0,0.0,0.0,0.0,0.0,0.0,0.0,0.0,0.0,0.0,0.0,0.0,0.0,0.0,0.0,0.0,0.0,0.0,0.0,0.0,0.0,0.0,0.0,0.0,0.0,0.0,0.0,0.0,0.0,0.0,0.0,0.0,0.0,0.0,0.0,0.0,0.0,0.0,0.0,0.0,0.0,0.0,0.0,0.0,0.0,0.0,0.0,-1.4339,-1.2739,-1.3756,-1.3074,-1.0377,0.0,0.0,0.0,0.0,0.0,0.0,0.0,0.0,0.0,0.0,0.0,0.0,0.0,0.0,0.0,0.0,0.0,0.0,0.0,0.0,0.0,0.0,0.0,0.0,0.0,0.0,0.0,0.0,0.0,0.0,0.0,0.0,0.0,0.0,0.0,0.0,0.0,0.0,0.0,0.0,0.0,0.0,0.0,0.0,0.0,0.0,0.0,0.0,0.0,0.0,0.0,0.0,0.0,0.0,0.0,0.0,0.0,0.0,0.0,0.0,0.0,0.0,0.0,0.0,0.0,0.0,0.0,0.0,0.0,0.0,0.0,0.0,0.0,0.0,0.0,0.0,0.0,0.0,0.0,0.0,0.0,0.0,0.0,0.0,0.0,0.0,0.0,0.0,0.0,0.0,0.0,0.0,0.0,0.0,0.0,0.0,0.0,0.0,0.0,0.0,0.0,0.0,0.0,0.0,0.0,0.0,0.0,0.0,0.0,0.0,0.0,0.0,-1.3807,-1.3202,-1.0666,0.0,0.0,0.0,0.0,0.0,0.0,0.0,0.0,0.0,0.0,0.0,0.0,0.0,0.0,0.0,0.0,0.0,0.0,0.0,0.0,0.0,0.0,0.0,0.0,0.0,0.0,0.0,0.0,0.0,0.0,0.0,0.0,0.0,0.0,0.0,0.0,0.0,0.0,0.0,0.0,0.0,0.0,0.0,0.0,0.0,0.0,0.0,0.0,0.0,0.0,0.0,0.0,0.0,0.0,0.0,0.0,0.0,0.0,0.0,0.0,0.0,0.0,0.0,0.0,0.0,0.0,0.0,0.0,0.0,0.0,0.0,0.0,0.0,0.0,0.0,0.0,0.0,0.0,0.0,0.0,0.0,0.0,0.0,0.0,0.0,0.0,0.0,0.0,0.0,0.0,0.0,0.0,0.0,0.0,0.0,0.0,0.0,0.0,0.0,0.0,0.0,0.0,0.0,0.0,0.0,0.0,0.0,0.0,0.0,0.0,-1.2844,-1.3303,-1.3446,0.0,-1.1908,0.0,0.0,0.0,0.0,0.0,0.0,0.0,0.0,0.0,0.0,0.0,0.0,0.0,0.0,0.0,0.0,0.0,0.0,0.0,0.0,0.0,0.0,0.0,0.0,0.0,0.0,0.0,0.0,0.0,0.0,0.0,0.0,0.0,0.0,0.0,0.0,0.0,0.0,0.0,0.0,0.0,0.0,0.0,0.0,0.0,0.0,0.0,0.0,0.0,0.0,0.0,0.0,0.0,0.0,0.0,0.0,0.0,0.0,0.0,0.0,0.0,0.0,0.0,0.0,0.0,0.0,0.0,0.0,0.0,0.0,0.0,0.0,0.0,0.0,0.0,0.0,0.0,0.0,0.0,0.0,0.0,0.0,0.0,0.0,0.0,0.0,0.0,0.0,0.0,0.0,0.0,0.0,0.0,0.0,0.0,0.0,0.0,0.0,0.0,0.0,0.0,0.0,0.0,0.0,0.0,0.0,0.0,0.0,0.0,0.0,-1.3082,-1.3726,-1.2948,-1.1916,0.0,0.0,0.0,0.0,0.0,0.0,0.0,0.0,0.0,0.0,0.0,0.0,0.0,0.0,0.0,0.0,0.0,0.0,0.0,0.0,0.0,0.0,0.0,0.0,0.0,0.0,0.0,0.0,0.0,0.0,0.0,0.0,0.0,0.0,0.0,0.0,0.0,0.0,0.0,0.0,0.0,0.0,0.0,0.0,0.0,0.0,0.0,0.0,0.0,0.0,0.0,0.0,0.0,0.0,0.0,0.0,0.0,0.0,0.0,0.0,0.0,0.0,0.0,0.0,0.0,0.0,0.0,0.0,0.0,0.0,0.0,0.0,0.0,0.0,0.0,0.0,0.0,0.0,0.0,0.0,0.0,0.0,0.0,0.0,0.0,0.0,0.0,0.0,0.0,0.0,0.0,0.0,0.0,0.0,0.0,0.0,0.0,0.0,0.0,0.0,0.0,0.0,0.0,0.0,0.0,0.0,0.0,0.0,0.0,0.0,-1.3137,-1.324,-1.3811,-1.2602,-1.1339,-1.0171,0.0,0.0,0.0,0.0,0.0,0.0,0.0,0.0,0.0,0.0,0.0,0.0,0.0,0.0,0.0,0.0,0.0,0.0,0.0,0.0,0.0,0.0,0.0,0.0,0.0,0.0,0.0,0.0,0.0,0.0,0.0,0.0,0.0,0.0,0.0,0.0,0.0,0.0,0.0,0.0,0.0,0.0,0.0,0.0,0.0,0.0,0.0,0.0,0.0,0.0,0.0,0.0,0.0,0.0,0.0,0.0,0.0,0.0,0.0,0.0,0.0,0.0,0.0,0.0,0.0,0.0,0.0,0.0,0.0,0.0,0.0,0.0,0.0,0.0,0.0,0.0,0.0,0.0,0.0,0.0,0.0,0.0,0.0,0.0,0.0,0.0,0.0,0.0,0.0,0.0,0.0,0.0,0.0,0.0,0.0,0.0,0.0,0.0,0.0,0.0,0.0,0.0,0.0,0.0,0.0,0.0,0.0,0.0,-1.4766,-1.3511,-1.3096,-1.3667,-1.2536,-1.1703,0.0,0.0,0.0,0.0,0.0,0.0,0.0,0.0,0.0,0.0,0.0,0.0,0.0,0.0,0.0,0.0,0.0,0.0,0.0,0.0,0.0,0.0,0.0,0.0,0.0,0.0,0.0,0.0,0.0,0.0,0.0,0.0,0.0,0.0,0.0,0.0,0.0,0.0,0.0,0.0,0.0,0.0,0.0,0.0,0.0,0.0,0.0,0.0,0.0,0.0,0.0,0.0,0.0,0.0,0.0,0.0,0.0,0.0,0.0,0.0,0.0,0.0,0.0,0.0,0.0,0.0,0.0,0.0,0.0,0.0,0.0,0.0,0.0,0.0,0.0,0.0,0.0,0.0,0.0,0.0,0.0,0.0,0.0,0.0,0.0,0.0,0.0,0.0,0.0,0.0,0.0,0.0,0.0,0.0,0.0,0.0,0.0,0.0,0.0,0.0,0.0,0.0,0.0,0.0,0.0,0.0,0.0,0.0,0.0,-1.3308,-1.3183,-1.3215,-1.3393,-1.2107,-1.1296,0.0,0.0,0.0,0.0,0.0,0.0,0.0,0.0,0.0,0.0,0.0,0.0,0.0,0.0,0.0,0.0,0.0,0.0,0.0,0.0,0.0,0.0,0.0,0.0,0.0,0.0,0.0,0.0,0.0,0.0,0.0,0.0,0.0,0.0,0.0,0.0,0.0,0.0,0.0,0.0,0.0,0.0,0.0,0.0,0.0,0.0,0.0,0.0,0.0,0.0,0.0,0.0,0.0,0.0,0.0,0.0,0.0,0.0,0.0,0.0,0.0,0.0,0.0,0.0,0.0,0.0,0.0,0.0,0.0,0.0,0.0,0.0,0.0,0.0,0.0,0.0,0.0,0.0,0.0,0.0,0.0,0.0,0.0,0.0,0.0,0.0,0.0,0.0,0.0,0.0,0.0,0.0,0.0,0.0,0.0,0.0,0.0,0.0,0.0,0.0,0.0,0.0,0.0,0.0,0.0,0.0,0.0,0.0,0.0,-1.2924,-1.3421,-1.3585,-1.3332,-1.2117,-1.1126,0.0,0.0,0.0,0.0,0.0,0.0,0.0,0.0,0.0,0.0,0.0,0.0,0.0,0.0,0.0,0.0,0.0,0.0,0.0,0.0,0.0,0.0,0.0,0.0,0.0,0.0,0.0,0.0,0.0,0.0,0.0,0.0,0.0,0.0,0.0,0.0,0.0,0.0,0.0,0.0,0.0,0.0,0.0,0.0,0.0,0.0,0.0,0.0,0.0,0.0,0.0,0.0,0.0,0.0,0.0,0.0,0.0,0.0,0.0,0.0,0.0,0.0,0.0,0.0,0.0,0.0,0.0,0.0,0.0,0.0,0.0,0.0,0.0,0.0,0.0,0.0,0.0,0.0,0.0,0.0,0.0,0.0,0.0,0.0,0.0,0.0,0.0,0.0,0.0,0.0,0.0,0.0,0.0,0.0,0.0,0.0,0.0,0.0,0.0,0.0,0.0,0.0,0.0,0.0,0.0,0.0,0.0,0.0,-1.2849,-1.3904,-1.4249,-1.409,-1.3493,-1.253,-1.1244,0.0,0.0,0.0,0.0,0.0,0.0,0.0,0.0,0.0,0.0,0.0,0.0,0.0,0.0,0.0,0.0,0.0,0.0,0.0,0.0,0.0,0.0,0.0,0.0,0.0,0.0,0.0,0.0,0.0,0.0,0.0,0.0,0.0,0.0,0.0,0.0,0.0,0.0,0.0,0.0,0.0,0.0,0.0,0.0,0.0,0.0,0.0,0.0,0.0,0.0,0.0,0.0,0.0,0.0,0.0,0.0,0.0,0.0,0.0,0.0,0.0,0.0,0.0,0.0,0.0,0.0,0.0,0.0,0.0,0.0,0.0,0.0,0.0,0.0,0.0,0.0,0.0,0.0,0.0,0.0,0.0,0.0,0.0,0.0,0.0,0.0,0.0,0.0,0.0,0.0,0.0,0.0,0.0,0.0,0.0,0.0,0.0,0.0,0.0,0.0,0.0,0.0,0.0,0.0,0.0,0.0,0.0,0.0,0.0,-1.2292,-1.3142,-1.3475,-1.3206,-1.2041,-1.1348,0.0,0.0,0.0,0.0,0.0,0.0,0.0,0.0,0.0,0.0,0.0,0.0,0.0,0.0,0.0,0.0,0.0,0.0,0.0,0.0,0.0,0.0,0.0,0.0,0.0,0.0,0.0,0.0,0.0,0.0,0.0,0.0,0.0,0.0,0.0,0.0,0.0,0.0,0.0,0.0,0.0,0.0,0.0,0.0,0.0,0.0,0.0,0.0,0.0,0.0,0.0,0.0,0.0,0.0,0.0,0.0,0.0,0.0,0.0,0.0,0.0,0.0,0.0,0.0,0.0,0.0,0.0,0.0,0.0,0.0,0.0,0.0,0.0,0.0,0.0,0.0,0.0,0.0,0.0,0.0,0.0,0.0,0.0,0.0,0.0,0.0,0.0,0.0,0.0,0.0,0.0,0.0,0.0,0.0,0.0,0.0,0.0,0.0,0.0,0.0,0.0,0.0,0.0,0.0,0.0,0.0,0.0,0.0,0.0,-1.3177,-1.4314,-1.4685,-1.4169,-1.3078,-1.2224,-1.1573,0.0,0.0,0.0,0.0,0.0,0.0,0.0,0.0,0.0,0.0,0.0,0.0,0.0,0.0,0.0,0.0,0.0,0.0,0.0,0.0,0.0,0.0,0.0,0.0,0.0,0.0,0.0,0.0,0.0,0.0,0.0,0.0,0.0,0.0,0.0,0.0,0.0,0.0,0.0,0.0,0.0,0.0,0.0,0.0,0.0,0.0,0.0,0.0,0.0,0.0,0.0,0.0,0.0,0.0,0.0,0.0,0.0,0.0,0.0,0.0,0.0,0.0,0.0,0.0,0.0,0.0,0.0,0.0,0.0,0.0,0.0,0.0,0.0,0.0,0.0,0.0,0.0,0.0,0.0,0.0,0.0,0.0,0.0,0.0,0.0,0.0,0.0,0.0,0.0,0.0,0.0,0.0,0.0,0.0,0.0,0.0,0.0,0.0,0.0,0.0,0.0,0.0,0.0,0.0,0.0,0.0,0.0,0.0,-1.5955,-1.7402,-1.7448,-1.6063,-1.5274,-1.3655,0.0,0.0,0.0,0.0,0.0,0.0,0.0,0.0,0.0,0.0,0.0,0.0,0.0,0.0,0.0,0.0,0.0,0.0,0.0,0.0,0.0,0.0,0.0,0.0,0.0,0.0,0.0,0.0,0.0,0.0,0.0,0.0,0.0,0.0,0.0,0.0,0.0,0.0,0.0,0.0,0.0,0.0,0.0,0.0,0.0,0.0,0.0,0.0,0.0,0.0,0.0,0.0,0.0,0.0,0.0,0.0,0.0,0.0,0.0,0.0,0.0,0.0,0.0,0.0,0.0,0.0,0.0,0.0,0.0,0.0,0.0,0.0,0.0,0.0,0.0,0.0,0.0,0.0,0.0,0.0,0.0,0.0,0.0,0.0,0.0,0.0,0.0,0.0,0.0,0.0,0.0,0.0,0.0,0.0,0.0,0.0,0.0,0.0,0.0,0.0,0.0,0.0,0.0,0.0,0.0,0.0,0.0,0.0,0.0,-1.8136,-2.0177,-2.005,-1.76,-1.5821,-1.456,0.0,0.0,0.0,0.0,0.0,0.0,0.0,0.0,0.0,0.0,0.0,0.0,0.0,0.0,0.0,0.0,0.0,0.0,0.0,0.0,0.0,0.0,0.0,0.0,0.0,0.0,0.0,0.0,0.0,0.0,0.0,0.0,0.0,0.0,0.0,0.0,0.0,0.0,0.0,0.0,0.0,0.0,0.0,0.0,0.0,0.0,0.0,0.0,0.0,0.0,0.0,0.0,0.0,0.0,0.0,0.0,0.0,0.0,0.0,0.0,0.0,0.0,0.0,0.0,0.0,0.0,0.0,0.0,0.0,0.0,0.0,0.0,0.0,0.0,0.0,0.0,0.0,0.0,0.0,0.0,0.0,0.0,0.0,0.0,0.0,0.0,0.0,0.0,0.0,0.0,0.0,0.0,0.0,0.0,0.0,0.0,0.0,0.0,0.0,0.0,0.0,0.0,0.0,0.0,0.0,0.0,0.0,0.0,-1.7313,-1.9713,-2.1804,-2.2075,-2.0425,-1.7778,-1.5747,0.0,0.0,0.0,0.0,0.0,0.0,0.0,0.0,0.0,0.0,0.0,0.0,0.0,0.0,0.0,0.0,0.0,0.0,0.0,0.0,0.0,0.0,0.0,0.0,0.0,0.0,0.0,0.0,0.0,0.0,0.0,0.0,0.0,0.0,0.0,0.0,0.0,0.0,0.0,0.0,0.0,0.0,0.0,0.0,0.0,0.0,0.0,0.0,0.0,0.0,0.0,0.0,0.0,0.0,0.0,0.0,0.0,0.0,0.0,0.0,0.0,0.0,0.0,0.0,0.0,0.0,0.0,0.0,0.0,0.0,0.0,0.0,0.0,0.0,0.0,0.0,0.0,0.0,0.0,0.0,0.0,0.0,0.0,0.0,0.0,0.0,0.0,0.0,0.0,0.0,0.0,0.0,0.0,0.0,0.0,0.0,0.0,0.0,0.0,0.0,0.0,0.0,0.0,0.0,0.0,0.0,0.0,0.0,-1.8288,-2.0909,-2.2743,-2.3629,-2.3326,-2.0161,-1.7023,0.0,0.0,0.0,0.0,0.0,0.0,0.0,0.0,0.0,0.0,0.0,0.0,0.0,0.0,0.0,0.0,0.0,0.0,0.0,0.0,0.0,0.0,0.0,0.0,0.0,0.0,0.0,0.0,0.0,0.0,0.0,0.0,0.0,0.0,0.0,0.0,0.0,0.0,0.0,0.0,0.0,0.0,0.0,0.0,0.0,0.0,0.0,0.0,0.0,0.0,0.0,0.0,0.0,0.0,0.0,0.0,0.0,0.0,0.0,0.0,0.0,0.0,0.0,0.0,0.0,0.0,0.0,0.0,0.0,0.0,0.0,0.0,0.0,0.0,0.0,0.0,0.0,0.0,0.0,0.0,0.0,0.0,0.0,0.0,0.0,0.0,0.0,0.0,0.0,0.0,0.0,0.0,0.0,0.0,0.0,0.0,0.0,0.0,0.0,0.0,0.0,0.0,0.0,0.0,0.0,0.0,0.0,0.0,-1.9169,-2.1841,-2.3533,-2.3888,-2.2808,-1.9936,-1.7658,0.0,0.0,0.0,0.0,0.0,0.0,0.0,0.0,0.0,0.0,0.0,0.0,0.0,0.0,0.0,0.0,0.0,0.0,0.0,0.0,0.0,0.0,0.0,0.0,0.0,0.0,0.0,0.0,0.0,0.0,0.0,0.0,0.0,0.0,0.0,0.0,0.0,0.0,0.0,0.0,0.0,0.0,0.0,0.0,0.0,0.0,0.0,0.0,-1.4805,0.0,0.0,0.0,0.0,0.0,0.0,0.0,0.0,0.0,0.0,0.0,0.0,0.0,0.0,0.0,0.0,0.0,0.0,0.0,0.0,0.0,0.0,0.0,0.0,0.0,0.0,0.0,0.0,0.0,0.0,0.0,0.0,0.0,0.0,0.0,0.0,0.0,0.0,0.0,0.0,0.0,0.0,0.0,0.0,0.0,0.0,0.0,0.0,0.0,0.0,0.0,0.0,0.0,0.0,0.0,0.0,0.0,0.0,0.0,-2.0054,-2.3047,-2.4386,-2.4548,-2.3421,-2.1439,-1.9053,0.0,0.0,0.0,0.0,0.0,0.0,0.0,0.0,0.0,0.0,0.0,0.0,0.0,0.0,0.0,0.0,0.0,0.0,0.0,0.0,0.0,0.0,0.0,0.0,0.0,0.0,0.0,0.0,0.0,0.0,0.0,0.0,0.0,0.0,0.0,0.0,0.0,0.0,0.0,0.0,0.0,0.0,0.0,0.0,0.0,0.0,0.0,0.0,0.0,0.0,0.0,0.0,0.0,0.0,0.0,0.0,0.0,0.0,0.0,0.0,0.0,0.0,0.0,0.0,0.0,0.0,0.0,0.0,0.0,0.0,0.0,0.0,0.0,0.0,0.0,0.0,0.0,0.0,0.0,0.0,0.0,0.0,0.0,0.0,0.0,0.0,0.0,0.0,0.0,0.0,0.0,0.0,0.0,0.0,0.0,0.0,0.0,0.0,0.0,0.0,0.0,0.0,0.0,0.0,0.0,0.0,0.0,-1.817,-2.0827,-2.4261,-2.528,-2.5321,-2.4403,-2.3317,-2.0516,-1.5886,0.0,0.0,0.0,0.0,0.0,0.0,0.0,0.0,0.0,0.0,0.0,0.0,0.0,0.0,0.0,0.0,0.0,0.0,0.0,0.0,0.0,0.0,0.0,0.0,0.0,0.0,0.0,0.0,0.0,0.0,0.0,0.0,0.0,0.0,0.0,0.0,0.0,0.0,-1.227,-1.3179,0.0,0.0,0.0,0.0,0.0,0.0,0.0,0.0,-1.4067,0.0,0.0,0.0,0.0,0.0,0.0,0.0,0.0,0.0,0.0,0.0,0.0,0.0,0.0,0.0,0.0,0.0,0.0,0.0,0.0,0.0,0.0,0.0,0.0,0.0,0.0,0.0,0.0,0.0,0.0,0.0,0.0,0.0,0.0,0.0,0.0,0.0,0.0,0.0,0.0,0.0,0.0,0.0,0.0,0.0,0.0,0.0,0.0,0.0,0.0,0.0,0.0,0.0,0.0,0.0,0.0,-1.833,-1.8831,-2.1076,-2.5244,-2.6069,-2.5783,-2.4458,-2.3715,-2.1043,-1.6309,0.0,0.0,0.0,0.0,0.0,0.0,0.0,0.0,0.0,0.0,0.0,0.0,0.0,0.0,0.0,0.0,0.0,0.0,0.0,0.0,0.0,0.0,0.0,0.0,0.0,0.0,0.0,0.0,0.0,0.0,0.0,0.0,0.0,0.0,0.0,0.0,0.0,0.0,0.0,-1.6029,-1.6233,0.0,0.0,0.0,0.0,0.0,0.0,0.0,0.0,-1.463,0.0,0.0,0.0,0.0,0.0,0.0,0.0,0.0,0.0,0.0,0.0,0.0,0.0,0.0,0.0,0.0,0.0,0.0,0.0,0.0,0.0,0.0,0.0,0.0,0.0,0.0,0.0,0.0,0.0,0.0,0.0,0.0,0.0,0.0,0.0,0.0,0.0,0.0,0.0,0.0,0.0,0.0,0.0,0.0,0.0,0.0,0.0,0.0,0.0,0.0,0.0,0.0,0.0,0.0,0.0,-1.7839,-2.0147,-2.2822,-2.5946,-2.6758,-2.6422,-2.4969,-2.4003,-2.1327,0.0,0.0,0.0,0.0,0.0,0.0,0.0,0.0,0.0,0.0,0.0,0.0,0.0,0.0,0.0,0.0,0.0,0.0,0.0,0.0,0.0,0.0,0.0,0.0,0.0,0.0,0.0,0.0,0.0,0.0,0.0,0.0,0.0,0.0,0.0,0.0,0.0,0.0,0.0,0.0,-1.7129,-1.7849,-1.9262,0.0,0.0,0.0,0.0,0.0,0.0,-1.616,-1.506,0.0,0.0,0.0,0.0,0.0,0.0,0.0,0.0,0.0,0.0,0.0,0.0,0.0,0.0,0.0,0.0,0.0,0.0,0.0,0.0,0.0,0.0,0.0,0.0,0.0,0.0,0.0,0.0,0.0,0.0,0.0,0.0,0.0,0.0,0.0,0.0,0.0,0.0,0.0,0.0,0.0,0.0,0.0,0.0,0.0,0.0,0.0,0.0,0.0,0.0,0.0,0.0,0.0,0.0,0.0,-1.7118,-2.1057,-2.4287,-2.6597,-2.7436,-2.7153,-2.5785,-2.4266,-2.1441,0.0,0.0,0.0,0.0,0.0,0.0,0.0,0.0,0.0,0.0,0.0,0.0,0.0,0.0,0.0,0.0,0.0,0.0,0.0,0.0,0.0,0.0,0.0,0.0,0.0,0.0,0.0,0.0,0.0,0.0,0.0,0.0,0.0,0.0,0.0,0.0,0.0,0.0,0.0,0.0,0.0,-1.9141,-2.0191,-1.9159,0.0,0.0,0.0,0.0,-1.8143,-1.7288,0.0,0.0,0.0,0.0,0.0,0.0,0.0,0.0,0.0,0.0,0.0,0.0,0.0,0.0,0.0,0.0,0.0,0.0,0.0,0.0,0.0,0.0,0.0,0.0,0.0,0.0,0.0,0.0,0.0,0.0,0.0,0.0,0.0,0.0,0.0,0.0,0.0,0.0,0.0,0.0,0.0,0.0,0.0,0.0,0.0,0.0,0.0,0.0,0.0,0.0,0.0,0.0,0.0,0.0,0.0,0.0,-1.6928,-2.0384,-2.3844,-2.7185,-2.8116,-2.7988,-2.7003,-2.4627,-2.1463,0.0,0.0,0.0,0.0,0.0,0.0,0.0,0.0,0.0,0.0,0.0,0.0,0.0,0.0,0.0,0.0,0.0,0.0,0.0,0.0,0.0,0.0,0.0,0.0,0.0,0.0,0.0,0.0,0.0,0.0,0.0,0.0,0.0,0.0,0.0,0.0,0.0,0.0,0.0,0.0,0.0,-2.0127,-2.0211,-1.9156,-1.8146,0.0,0.0,-1.8938,-1.9266,-2.049,0.0,0.0,0.0,0.0,0.0,0.0,0.0,0.0,0.0,0.0,0.0,0.0,0.0,0.0,0.0,0.0,0.0,0.0,0.0,0.0,0.0,0.0,0.0,0.0,0.0,0.0,0.0,0.0,0.0,0.0,0.0,0.0,0.0,0.0,0.0,0.0,0.0,0.0,0.0,0.0,0.0,0.0,0.0,0.0,0.0,0.0,0.0,0.0,0.0,0.0,0.0,0.0,0.0,0.0,0.0,-1.5168,-1.6843,-2.1855,-2.5408,-2.7286,-2.8534,-2.8748,-2.7896,-2.4898,-2.1691,0.0,0.0,0.0,0.0,0.0,0.0,0.0,0.0,0.0,0.0,0.0,0.0,0.0,0.0,0.0,0.0,0.0,0.0,0.0,0.0,0.0,0.0,0.0,0.0,0.0,0.0,0.0,0.0,0.0,0.0,0.0,0.0,0.0,0.0,0.0,0.0,0.0,0.0,0.0,0.0,0.0,0.0,-2.1375,-2.0653,0.0,0.0,0.0,-2.0348,-2.0257,0.0,0.0,0.0,0.0,0.0,0.0,0.0,0.0,0.0,0.0,0.0,0.0,0.0,0.0,0.0,0.0,0.0,0.0,0.0,0.0,0.0,0.0,0.0,0.0,0.0,0.0,0.0,0.0,0.0,0.0,0.0,0.0,0.0,0.0,0.0,0.0,0.0,0.0,0.0,0.0,0.0,0.0,0.0,0.0,0.0,0.0,0.0,0.0,0.0,0.0,0.0,0.0,0.0,0.0,0.0,0.0,0.0,-1.6631,-2.2962,-2.6542,-2.7144,-2.8713,-2.9224,-2.8497,-2.5702,0.0,0.0,0.0,0.0,0.0,0.0,0.0,0.0,0.0,0.0,0.0,0.0,0.0,0.0,0.0,0.0,0.0,0.0,0.0,0.0,0.0,0.0,0.0,0.0,0.0,0.0,0.0,-1.0367,0.0,0.0,0.0,0.0,0.0,0.0,0.0,0.0,0.0,0.0,0.0,0.0,0.0,0.0,-2.1259,-2.1976,-2.182,-2.1985,0.0,0.0,-2.1495,-2.1394,-2.2405,-2.2167,0.0,0.0,0.0,0.0,0.0,0.0,0.0,0.0,0.0,0.0,0.0,0.0,0.0,0.0,0.0,0.0,0.0,0.0,0.0,0.0,0.0,0.0,0.0,0.0,0.0,0.0,0.0,0.0,0.0,0.0,0.0,0.0,0.0,0.0,0.0,0.0,0.0,0.0,0.0,0.0,0.0,0.0,0.0,0.0,0.0,0.0,0.0,0.0,0.0,0.0,0.0,0.0,0.0,0.0,-1.6478,-1.6515,-2.266,-2.6268,-2.6945,-2.8491,-2.9207,-2.8962,-2.7459,-2.4364,0.0,0.0,0.0,0.0,0.0,0.0,0.0,0.0,0.0,0.0,0.0,0.0,0.0,0.0,0.0,0.0,0.0,0.0,0.0,0.0,0.0,0.0,0.0,0.0,0.0,0.0,0.0,0.0,0.0,0.0,0.0,0.0,0.0,0.0,0.0,0.0,0.0,0.0,0.0,0.0,0.0,-2.1053,-2.1186,-2.1943,-2.2664,0.0,-2.261,-2.238,-2.2883,-2.4851,-2.4583,-1.93,0.0,0.0,0.0,0.0,0.0,0.0,0.0,0.0,0.0,0.0,0.0,0.0,0.0,0.0,0.0,0.0,0.0,0.0,0.0,0.0,0.0,0.0,0.0,0.0,0.0,0.0,0.0,0.0,0.0,0.0,0.0,0.0,0.0,0.0,0.0,0.0,0.0,0.0,0.0,0.0,0.0,0.0,0.0,0.0,0.0,0.0,0.0,0.0,0.0,0.0,0.0,0.0,0.0,-1.6433,-1.6811,-2.3196,-2.6971,-2.7888,-2.9004,-2.9724,-2.9962,-2.8166,-2.5208,0.0,0.0,0.0,0.0,0.0,0.0,0.0,0.0,0.0,0.0,0.0,0.0,0.0,0.0,0.0,0.0,0.0,0.0,0.0,0.0,0.0,0.0,0.0,0.0,0.0,0.0,0.0,0.0,-1.3257,-1.3337,-1.2624,0.0,0.0,0.0,0.0,0.0,0.0,0.0,0.0,0.0,0.0,-2.2359,-2.3263,-2.4015,0.0,0.0,-2.4205,-2.3647,-2.3183,-2.3898,-2.3391,-2.0214,-1.9336,0.0,0.0,0.0,0.0,0.0,0.0,0.0,0.0,0.0,0.0,0.0,0.0,0.0,0.0,0.0,0.0,0.0,0.0,0.0,0.0,0.0,0.0,0.0,0.0,0.0,0.0,0.0,0.0,0.0,0.0,0.0,0.0,0.0,0.0,0.0,0.0,0.0,0.0,0.0,0.0,0.0,0.0,0.0,0.0,0.0,0.0,0.0,0.0,0.0,0.0,0.0,0.0,-1.6134,-1.6658,-2.3206,-2.6934,-2.769,-2.8985,-2.9882,-3.0194,-2.8749,-2.6303,0.0,0.0,0.0,0.0,0.0,0.0,0.0,0.0,0.0,0.0,0.0,0.0,0.0,0.0,0.0,0.0,0.0,0.0,0.0,0.0,0.0,0.0,0.0,0.0,0.0,0.0,0.0,0.0,-1.4004,-1.3942,-1.3095,0.0,0.0,0.0,0.0,0.0,0.0,0.0,0.0,0.0,0.0,-2.359,-2.4664,-2.4996,-2.5154,-2.5291,-2.4337,-2.3432,-2.3098,-2.3072,-2.2577,-2.1072,0.0,0.0,0.0,0.0,0.0,0.0,0.0,0.0,0.0,0.0,0.0,0.0,0.0,0.0,0.0,0.0,0.0,0.0,0.0,0.0,0.0,0.0,0.0,0.0,0.0,0.0,0.0,-0.8381,0.0,0.0,-0.744,0.0,0.0,0.0,0.0,0.0,0.0,0.0,0.0,0.0,0.0,0.0,0.0,0.0,0.0,0.0,0.0,0.0,0.0,0.0,0.0,0.0,0.0,-1.5646,-1.5917,-2.2492,-2.5864,-2.596,-2.8173,-2.9416,-2.9456,-2.9368,-2.7872,-2.4771,0.0,0.0,0.0,0.0,0.0,0.0,0.0,0.0,0.0,0.0,0.0,0.0,0.0,0.0,0.0,0.0,0.0,0.0,0.0,0.0,0.0,0.0,0.0,0.0,0.0,0.0,-1.1467,-1.2601,-1.3529,0.0,0.0,0.0,0.0,0.0,0.0,0.0,0.0,0.0,-1.9346,-2.2401,-2.4455,-2.4777,-2.4393,-2.4343,-2.4682,-2.2588,-2.1357,-2.2794,-2.3039,-2.2749,0.0,0.0,0.0,0.0,0.0,0.0,0.0,0.0,0.0,0.0,0.0,0.0,0.0,0.0,0.0,0.0,0.0,0.0,0.0,0.0,0.0,0.0,0.0,0.0,0.0,0.0,0.0,-1.0192,-0.9675,0.0,0.0,0.0,0.0,0.0,0.0,0.0,0.0,0.0,0.0,0.0,-1.4867,-1.5806,0.0,0.0,0.0,0.0,0.0,0.0,0.0,0.0,0.0,0.0,0.0,0.0,-1.5858,-1.6416,-2.2822,-2.6417,-2.6814,-2.8263,-2.9259,-2.9642,-2.9655,-2.8079,-2.4633,0.0,0.0,0.0,0.0,0.0,0.0,0.0,0.0,0.0,0.0,0.0,0.0,0.0,0.0,0.0,0.0,0.0,0.0,0.0,0.0,0.0,0.0,0.0,0.0,0.0,-1.304,0.0,0.0,0.0,0.0,0.0,0.0,0.0,0.0,0.0,0.0,-1.7335,-1.9321,-2.165,-2.3497,-2.4888,-2.5685,-2.6226,-2.683,0.0,0.0,0.0,0.0,0.0,0.0,0.0,0.0,0.0,0.0,0.0,0.0,0.0,0.0,-2.2448,-1.913,-1.9017,-1.9503,-1.967,0.0,0.0,0.0,0.0,0.0,0.0,0.0,0.0,0.0,0.0,0.0,0.0,0.0,0.0,-1.2101,-1.1414,-1.1582,0.0,0.0,0.0,0.0,0.0,0.0,0.0,0.0,-1.5275,-1.6383,-1.6931,-1.7903,-1.8441,-1.8576,-1.7968,-1.6407,0.0,0.0,0.0,0.0,0.0,0.0,0.0,0.0,-1.5901,-1.6921,-2.2999,-2.6531,-2.7076,-2.8672,-2.9779,-3.0331,-3.0181,-2.8888,-2.6338,-2.3997,-2.1511,0.0,0.0,0.0,0.0,0.0,0.0,0.0,0.0,0.0,0.0,0.0,0.0,0.0,0.0,0.0,0.0,0.0,0.0,0.0,0.0,0.0,0.0,0.0,-1.4343,0.0,0.0,0.0,0.0,0.0,0.0,0.0,0.0,0.0,-1.8203,-1.9767,-2.1634,-2.3697,-2.5097,-2.5941,-2.6036,0.0,0.0,0.0,0.0,0.0,0.0,0.0,-2.2326,-2.3207,-2.3132,-2.3506,-2.5212,-2.6518,-2.7501,-2.7983,0.0,0.0,-2.3798,-2.3449,-2.3907,-2.4093,-2.4258,-2.4305,-2.4179,-2.4665,-2.5008,0.0,0.0,0.0,0.0,-1.437,0.0,0.0,0.0,-1.521,-1.4471,0.0,-1.3949,0.0,0.0,0.0,0.0,-1.1735,-1.3095,0.0,0.0,-1.892,-2.0049,-1.9264,-2.009,-2.1247,-2.2514,-2.02,-1.9773,-2.0997,-1.8703,0.0,0.0,0.0,0.0,0.0,0.0,-1.5789,-1.7615,-2.3058,-2.6145,-2.6723,-2.9246,-3.0871,-3.1323,-3.0896,-3.0357,-2.969,-2.6838,-2.4435,-2.2757,-1.7956,0.0,0.0,0.0,0.0,0.0,0.0,0.0,0.0,0.0,0.0,0.0,0.0,0.0,0.0,0.0,0.0,0.0,0.0,0.0,0.0,-1.5647,0.0,0.0,0.0,0.0,0.0,0.0,0.0,0.0,0.0,-2.086,-2.0597,-2.1965,-2.3654,-2.5289,0.0,0.0,0.0,0.0,-2.6743,-2.5143,-2.3543,-2.2952,-2.3988,-2.4529,-2.5425,-2.7087,0.0,0.0,-3.1187,-3.104,-3.0597,-2.9428,-3.1473,-3.228,-2.9334,-2.779,-2.7115,-2.7603,-2.7387,-2.703,-2.7547,-2.8393,-2.8813,-1.5557,0.0,0.0,0.0,0.0,-1.5201,-1.6039,-1.7123,-1.7504,-1.7259,-1.6602,-1.6533,0.0,0.0,0.0,0.0,0.0,0.0,-1.6396,-1.8116,-1.904,-2.0019,-2.1104,-2.2038,-2.273,-2.3122,-2.3886,-2.4495,-2.4933,-2.4939,-2.1,-1.3455,0.0,0.0,0.0,0.0,-1.7521,-1.9628,-2.4358,-2.7063,-2.7534,-2.992,-3.1248,-3.1386,-3.1248,-3.0909,-3.0394,-2.9488,-2.7555,-2.4451,-2.2201,0.0,0.0,0.0,0.0,0.0,0.0,0.0,0.0,0.0,0.0,0.0,0.0,0.0,0.0,0.0,0.0,0.0,0.0,0.0,-1.3541,-1.6099,-1.7376,0.0,0.0,0.0,0.0,0.0,0.0,0.0,0.0,0.0,-2.4287,-2.409,-2.4154,0.0,0.0,-2.5606,-2.4474,-2.6207,-2.7872,-2.8519,-2.7659,0.0,-2.9859,-2.8384,-2.7829,-3.029,-3.2022,-3.3165,-3.3416,-3.4057,-3.4612,-3.4839,-3.5614,-3.5844,-3.5073,-3.4169,-3.3471,-3.328,-3.3384,-3.3472,-3.3265,-3.3354,-3.3591,-1.6545,-1.5662,-1.4889,-1.4997,-1.5619,-1.5909,-1.6994,-1.8656,-1.9077,-1.9153,-1.8971,-1.9157,-1.812,-1.6186,-1.5133,0.0,0.0,0.0,-1.7606,-1.9464,-1.9918,-2.076,-2.1887,-2.2503,-2.3083,-2.3684,-2.4718,-2.5908,-2.7118,-2.714,-2.4067,-1.8143,0.0,-1.6042,-1.5508,-1.7422,-1.9373,-2.1409,-2.4967,-2.7304,-2.8263,-3.0755,-3.2064,-3.2051,-3.1838,-3.1461,-3.0934,-3.0733,-2.935,-2.6664,-2.4936,-2.2686,0.0,0.0,0.0,0.0,0.0,0.0,0.0,0.0,0.0,0.0,0.0,-1.3538,-1.2321,0.0,0.0,0.0,-1.603,-1.6031,-1.6729,-1.8549,0.0,0.0,0.0,0.0,0.0,0.0,0.0,-2.1818,-2.3936,-2.5756,-2.6769,-2.6362,-2.6099,-2.6544,-2.7047,-2.6976,-2.5945,0.0,-3.0051,-3.0596,-3.053,-3.1069,-3.2828,-3.1715,-3.1418,-3.3938,-3.4907,-3.5624,-3.6277,-3.6925,-3.7435,-3.7729,-3.7793,-3.7704,-3.7449,-3.73,-3.7045,-3.6402,-3.6567,-3.6686,-3.6327,-3.6252,-3.6387,-1.7825,-1.6565,-1.4767,-1.5078,-1.6609,-1.6223,-1.7516,-1.9811,-2.0032,-2.031,-2.0712,-2.1592,-2.0566,-1.8072,-1.6149,0.0,-1.6176,-1.7257,-1.869,-2.0295,-2.1453,-2.1992,-2.1992,-2.1982,-2.2762,-2.4158,-2.3677,-2.5016,-2.774,-2.6635,-2.5631,-2.4874,-2.326,-2.1701,-2.0278,-2.0356,-2.1291,-2.2882,-2.4958,-2.6977,-2.8958,-3.1678,-3.3124,-3.3111,-3.2554,-3.2026,-3.1474,-3.0947,-3.0181,-2.9038,-2.6593,-2.4627,-2.3381,0.0,0.0,0.0,0.0,0.0,0.0,0.0,0.0,0.0,0.0,0.0,0.0,0.0,0.0,-1.8948,-2.0831,0.0,-2.2531,-2.2116,0.0,0.0,0.0,-2.0848,-2.2167,-2.3312,-2.4357,-2.5287,0.0,0.0,-2.8434,-2.8594,-2.8969,-2.9928,-3.0331,-3.0104,-2.8976,-3.1009,-3.2514,-3.1556,-3.235,-3.3282,-3.4094,-3.4566,-3.5483,-3.7325,-3.7904,-3.8192,-3.8992,-3.9233,-3.9089,-3.8586,-3.8482,-3.8317,-3.7674,-3.8093,-3.8287,-3.7689,-3.7524,-3.7464,-3.7295,-3.73,-3.733,-1.7867,-1.6697,-1.6184,-1.6154,-1.643,-1.722,-1.7827,-1.8389,-2.0217,-2.1036,-2.1176,-2.2001,-2.198,-2.1364,-2.1199,-2.1155,-2.1311,-2.1584,-2.1964,-2.2371,-2.2659,-2.2799,-2.2799,-2.2799,-2.3187,-2.3913,-2.4584,-2.5456,-2.6595,-2.8002,-2.7924,-2.6593,-2.6027,-2.3896,-2.0396,-2.1413,-2.2335,-2.3121,-2.4539,-2.6995,-3.0543,-3.2277,-3.3124,-3.3124,-3.2943,-3.2604,-3.2026,-3.1499,-3.0896,-3.0192,-2.7992,-2.6251,-2.5135,-2.0185,0.0,0.0,0.0,0.0,0.0,0.0,0.0,0.0,0.0,-1.6019,-1.4239,0.0,-1.7464,0.0,-2.3105,-2.4322,-2.2432,-2.3529,0.0,0.0,-2.3557,-2.3882,-2.545,-2.6739,-2.737,-2.7064,-2.8435,-2.9541,-2.9816,-3.0174,-3.09,-3.2114,-3.0826,-2.9412,-2.8499,-3.0263,-3.2012,-3.2619,-3.3645,-3.4878,-3.6479,-3.7638,-3.8362,-3.8936,-3.9017,-3.9104,-3.9352,-3.9388,-3.9349,-3.92,-3.917,-3.9059,-3.8895,-3.908,-3.911,-3.8931,-3.8527,-3.8003,-3.7524,-3.7419,-3.7554,-1.7796,-1.7094,-1.7094,-1.6927,-1.6753,-1.7246,-1.771,-1.8205,-2.0154,-2.1265,-2.1816,-2.2268,-2.2165,-2.1662,-2.188,-2.1696,-2.1228,-2.2363,-2.2872,-2.2926,-2.3432,-2.3656,-2.3666,-2.3656,-2.3838,-2.4108,-2.5159,-2.5818,-2.6204,-2.8152,-2.8819,-2.8244,-2.8633,-2.6884,-2.319,-2.2585,-2.2269,-2.2039,-2.4157,-2.6913,-3.0247,-3.1645,-3.1804,-3.0906,-3.1563,-3.098,-2.8951,-2.9022,-2.8624,-2.7692,-2.6198,-2.4886,-2.3785,-2.0431,-1.8281,0.0,0.0,0.0,0.0,0.0,0.0,0.0,0.0,0.0,0.0,0.0,-1.8598,-2.0014,-2.428,-2.5977,-2.3622,-2.537,-2.6678,-2.6664,-2.6875,-2.7457,-2.8724,-2.946,-2.9849,-2.9669,-3.0545,-3.1248,-3.1514,-3.1785,-3.2251,-3.3006,-3.2349,-3.1611,-3.128,-3.2501,-3.39,-3.4977,-3.6097,-3.7112,-3.8383,-3.9017,-3.9388,-3.9388,-3.9388,-3.9388,-3.9388,-3.9388,-3.9388,-3.9388,-3.9388,-3.9388,-3.9388,-3.9388,-3.9388,-3.9343,-3.9125,-3.8736,-3.8377,-3.8317,-3.8437,-1.7996,-1.7838,-1.7681,-1.7435,-1.7233,-1.6927,-1.7362,-1.8361,-1.9942,-2.1393,-2.2661,-2.2652,-2.2067,-2.1097,-2.0914,-2.0337,-1.961,-2.1631,-2.2652,-2.2896,-2.3942,-2.4424,-2.4424,-2.4424,-2.4453,-2.4538,-2.5483,-2.6013,-2.6121,-2.767,-2.8654,-2.9075,-3.0077,-2.9038,-2.6011,-2.3519,-2.1745,-2.0747,-2.3835,-2.6552,-2.8766,-2.9873,-2.9564,-2.7895,-2.9335,-2.857,-2.5283,-2.5794,-2.5628,-2.4308,-2.3446,-2.2637,-2.1782,-2.0625,-1.9341,0.0,-1.6696,0.0,0.0,0.0,0.0,0.0,0.0,0.0,0.0,-2.061,-2.0742,-2.0867,-2.5272,-2.7493,-2.5968,-2.7681,-2.913,-2.9669,-3.0294,-3.091,-3.1395,-3.1562,-3.1788,-3.2265,-3.2328,-3.2516,-3.2943,-3.3124,-3.3124,-3.3386,-3.3988,-3.4481,-3.5049,-3.5546,-3.6311,-3.7639,-3.8708,-3.9104,-3.9265,-3.9352,-3.9388,-3.9388,-3.9388,-3.9388,-3.9388,-3.9388,-3.9388,-3.9388,-3.9388,-3.9388,-3.9388,-3.9388,-3.9388,-3.9388,-3.9343,-3.9328,-3.9298,-3.9269,-3.9388,-2.0231,-1.9109,-1.8042,-1.7549,-1.7548,-1.7442,-1.7295,-1.7193,-1.9562,-2.1868,-2.3988,-2.4034,-2.3886,-2.3597,-2.2548,-2.2501,-2.3261,-2.2699,-2.3037,-2.4081,-2.4275,-2.4424,-2.4424,-2.4424,-2.46,-2.4969,-2.5177,-2.5449,-2.5815,-2.7139,-2.7161,-2.5944,-2.6945,-2.588,-2.2892,0.0,0.0,0.0,-2.3547,-2.4961,-2.5787,-2.6121,-2.6249,-2.6258,-2.7373,0.0,-2.6941,-2.6646,-2.6152,-2.5402,-2.3967,0.0,0.0,0.0,0.0,0.0,0.0,0.0,0.0,0.0,0.0,0.0,-1.9231,-1.9716,-2.0997,-2.3595,-2.548,-2.6141,-2.8014,-2.9459,-3.0125,-3.0938,-3.1367,-3.112,-3.1947,-3.2478,-3.2139,-3.2453,-3.2805,-3.2893,-3.2905,-3.2986,-3.3099,-3.3124,-3.3441,-3.415,-3.454,-3.5373,-3.6919,-3.6579,-3.6643,-3.7625,-3.8745,-3.9388,-3.9388,-3.9388,-3.9388,-3.9388,-3.9388,-3.9388,-3.9388,-3.9388,-3.9388,-3.9388,-3.9388,-3.9388,-3.9388,-3.9388,-3.9388,-3.9388,-3.9388,-3.9388,-3.9388,-3.9388,-3.9388,-2.0888,-1.9531,-1.8857,-1.8199,0.0,-1.7589,-1.7415,-1.7333,-1.9964,-2.2585,-2.4974,-2.4364,-2.4068,-2.402,-2.3338,-2.3386,-2.4068,-2.403,-2.4383,-2.5021,-2.5068,-2.5068,-2.5011,-2.5021,-2.5185,-2.5391,-2.54,-2.5518,-2.5723,-2.6342,-2.652,-2.6285,-2.685,-2.6288,-2.4716,-2.4362,-2.3787,-2.2839,-2.366,-2.479,-2.622,-2.6302,-2.624,-2.6032,-2.7342,0.0,0.0,0.0,0.0,0.0,0.0,0.0,0.0,-2.0621,0.0,-2.1759,-2.0635,-2.0162,-2.0695,-2.0755,-2.1169,-2.2046,-2.3125,-2.3568,-2.3102,-2.6201,-2.8267,-2.8676,-3.0004,-3.1117,-3.175,-3.2303,-3.2516,-3.229,-3.2729,-3.2943,-3.2729,-3.2905,-3.3124,-3.3124,-3.3124,-3.3124,-3.3124,-3.3124,-3.3326,-3.3827,-3.4387,-3.5264,-3.6657,-3.7021,-3.7381,-3.8435,-3.898,-3.9388,-3.9388,-3.9388,-3.9388,-3.9388,-3.9388,-3.9388,-3.9388,-3.9388,-3.9388,-3.9388,-3.9388,-3.9388,-3.9388,-3.9388,-3.9388,-3.9388,-3.9388,-3.9388,-3.9388,-3.9388,-3.9388,-2.1245,-1.993,-1.9679,-1.8812,-1.7635,-1.7838,-1.8251,-1.8812,-2.0837,0.0,0.0,-2.451,-2.4048,-2.4038,-2.38,-2.384,-2.4097,-2.4971,-2.5489,-2.5684,-2.5684,-2.5684,-2.5684,-2.5684,-2.5684,-2.5684,-2.5684,-2.5684,-2.5684,-2.5684,-2.6197,-2.7163,-2.7268,-2.7258,-2.722,-2.6197,-2.5189,-2.4173,-2.3774,-2.4624,-2.676,-2.6625,-2.6207,-2.5523,-2.7205,-2.7321,-2.5611,-2.6574,-2.6256,-2.4389,-2.3626,-2.2593,-2.1253,-2.1314,-2.2107,-2.3577,-2.4011,-2.4523,-2.5359,-2.5338,-2.5155,-2.4888,-2.6911,-2.7468,-2.5787,-2.8457,-3.0248,-3.0387,-3.1586,-3.2353,-3.2378,-3.2792,-3.3124,-3.3124,-3.3124,-3.3124,-3.3124,-3.3124,-3.3124,-3.3124,-3.3124,-3.3124,-3.3124,-3.3124,-3.3197,-3.3484,-3.4191,-3.517,-3.6304,-3.7458,-3.8345,-3.9156,-3.9337,-3.9388,-3.9388,-3.9388,-3.9388,-3.9388,-3.9388,-3.9388,-3.9388,-3.9388,-3.9388,-3.9388,-3.9388,-3.9388,-3.9388,-3.9388,-3.9388,-3.9388,-3.9388,-3.9388,-3.9388,-3.9388,-3.9388,-2.2626,-2.1296,-2.0084,-1.8812,-1.7687,-1.8812,-2.0649,-2.2767,-2.2055,-2.3226,-2.5684,-2.5489,-2.543,-2.5382,-2.4196,-2.4353,-2.5333,-2.4452,-2.4609,-2.5684,-2.5684,-2.5684,-2.5684,-2.5684,-2.5684,-2.5684,-2.5684,-2.5684,-2.5684,-2.5684,-2.5781,-2.5965,-2.5965,-2.5965,-2.5975,-2.5781,-2.5625,-2.5373,-2.358,-2.298,-2.3762,-2.2879,-2.2527,-2.2828,-2.4943,-2.5915,-2.5617,-2.6775,-2.6949,-2.6144,-2.5027,-2.4551,-2.4822,-2.4862,-2.5485,-2.684,-2.7597,-2.811,-2.8166,-2.7853,-2.7316,-2.6704,-2.8187,-2.8914,-2.8399,-3.0474,-3.2092,-3.2554,-3.2794,-3.2955,-3.3011,-3.3061,-3.3124,-3.3124,-3.3124,-3.3124,-3.3124,-3.3124,-3.3124,-3.3124,-3.3124,-3.3124,-3.3124,-3.3124,-3.3441,-3.4191,-3.4522,-3.5372,-3.7148,-3.8494,-3.9141,-3.9352,-3.9388,-3.9388,-3.9523,-3.9439,-3.9478,-3.9388,-3.9484,-3.9559,-3.9478,-3.9523,-3.9538,-3.9418,-3.9493,-3.9433,-3.9433,-3.9388,-3.9388,-3.9388,-3.9388,-3.9388,-3.9388,-3.9388,-3.9388,-2.3998,-2.2659,-2.1296,-1.993,-1.876,-1.9324,-2.0743,-2.2567,-2.2776,-2.384,-2.5635,-2.5684,-2.5684,-2.5635,-2.5069,-2.5128,-2.5693,-2.5069,-2.5128,-2.5684,-2.5684,-2.5684,-2.5684,-2.5684,-2.5684,-2.5684,-2.5684,-2.5684,-2.5684,-2.5684,-2.5684,-2.5684,-2.5684,-2.5684,-2.5684,-2.5684,-2.5684,-2.5664,-2.4715,-2.4318,-2.4551,-2.4033,-2.4226,-2.5112,-2.6209,-2.7315,-2.8617,-2.9157,-2.9316,-2.9036,-2.8519,-2.7767,-2.6758,-2.732,-2.7926,-2.8544,-2.9568,-3.0115,-3.0103,-2.9261,-2.8656,-2.8331,-2.8952,-2.9317,-2.9139,-3.069,-3.2056,-3.3,-3.3124,-3.3124,-3.3124,-3.3124,-3.3124,-3.3124,-3.3124,-3.3124,-3.3124,-3.3124,-3.3124,-3.3124,-3.3124,-3.3124,-3.3124,-3.3124,-3.324,-3.3823,-3.4455,-3.5828,-3.7648,-3.8798,-3.9606,-3.9876,-3.9963,-4.0127,-4.0382,-4.0487,-4.0337,-4.0038,-4.0262,-4.0292,-4.0113,-4.0187,-4.0442,-4.0442,-4.0217,-3.9978,-3.9948,-3.9634,-3.9448,-3.9388,-3.9388,-3.9388,-3.9388,-3.9388,-3.9388,-2.4922,-2.3583,-2.2567,-2.1355,-2.0084,-1.9731,-2.059,-2.2215,-2.3276,-2.4452,-2.5586,-2.5684,-2.5684,-2.5684,-2.5684,-2.5684,-2.5684,-2.5684,-2.5684,-2.5684,-2.5684,-2.5684,-2.5684,-2.5684,-2.5684,-2.5684,-2.5684,-2.5684,-2.5684,-2.5684,-2.5684,-2.5684,-2.5684,-2.583,-2.611,-2.583,-2.583,-2.611,-2.5839,-2.5684,-2.5684,-2.5684,-2.6197,-2.7088,-2.7437,-2.8577,-3.0631,-3.1045,-3.1311,-3.1589,-3.1356,-3.0214,-2.8215,-2.9131,-2.9681,-2.959,-3.0822,-3.1633,-3.1589,-3.0777,-3.009,-2.9818,-2.9544,-2.9396,-2.9453,-3.0226,-3.1311,-3.2469,-3.2884,-3.3124,-3.3124,-3.3124,-3.3124,-3.3124,-3.3124,-3.3124,-3.3124,-3.3124,-3.3124,-3.3124,-3.3224,-3.3282,-3.3269,-3.337,-3.3539,-3.3732,-3.4555,-3.5904,-3.7437,-3.8557,-3.9459,-4.0224,-4.0562,-4.0771,-4.1309,-4.1377,-4.1115,-4.0666,-4.0995,-4.101,-4.0801,-4.107,-4.1362,-4.1235,-4.095,-4.0666,-4.0576,-4.0262,-3.9993,-4.0008,-4.0038,-3.9948,-3.9993,-3.9978,-3.9738,-2.4922,-2.3791,-2.3534,-2.2717,-2.1389,-2.0187,-2.11,-2.3326,-2.3692,-2.4461,-2.5635,-2.5684,-2.5684,-2.5684,-2.5684,-2.5684,-2.5684,-2.5684,-2.5684,-2.5684,-2.5684,-2.5684,-2.5684,-2.5684,-2.5684,-2.5684,-2.5684,-2.5684,-2.5684,-2.5684,-2.5684,-2.5684,-2.5684,-2.6304,-2.7125,-2.6245,-2.6245,-2.7363,-2.6294,-2.5684,-2.5684,-2.5684,-2.5781,-2.5878,-2.6982,-2.8226,-2.9601,-3.0631,-3.1721,-3.2698,-3.1809,-3.0631,-2.9498,-3.0361,-3.0541,-2.9579,-3.1601,-3.2939,-3.2884,-3.284,-3.2196,-3.1089,-3.0045,-2.9453,-2.9407,-2.9498,-3.009,-3.1235,-3.2426,-3.3081,-3.3124,-3.3124,-3.3124,-3.3124,-3.3124,-3.3124,-3.3124,-3.3124,-3.3124,-3.3124,-3.3495,-3.3822,-3.3859,-3.4173,-3.4487,-3.4487,-3.4729,-3.5423,-3.6681,-3.7653,-3.8879,-4.0193,-4.092,-4.1232,-4.1375,-4.1414,-4.1292,-4.1264,-4.1316,-4.1376,-4.1323,-4.1331,-4.1467,-4.1743,-4.1452,-4.1347,-4.1332,-4.1257,-4.113,-4.092,-4.098,-4.1168,-4.119,-4.1085,-4.0711,-2.5382,-2.4805,-2.4048,-2.2926,-2.1702,-2.1092,-2.1904,-2.3692,-2.4559,-2.5226,-2.5635,-2.5684,-2.5684,-2.5684,-2.5684,-2.5684,-2.5684,-2.5684,-2.5684,-2.5684,-2.5684,-2.5684,-2.5684,-2.5684,-2.5684,-2.5684,-2.5684,-2.5684,-2.5684,-2.5684,-2.5684,-2.5684,-2.5684,-2.6332,-2.741,-2.6342,-2.6342,-2.7505,-2.6342,-2.5684,-2.5684,-2.5684,-2.5684,-2.5732,-2.6207,-2.7447,-2.9177,-2.9909,-3.1045,-3.284,-3.2612,-3.1412,-2.9498,-3.0541,-3.0676,-2.9681,-3.1745,-3.3124,-3.3124,-3.3124,-3.2884,-3.2339,-3.119,-3.0169,-2.9442,-2.9396,-2.9636,-3.0226,-3.1909,-3.3124,-3.3124,-3.3124,-3.3124,-3.3124,-3.3124,-3.3124,-3.3124,-3.3124,-3.3224,-3.3508,-3.3759,-3.4048,-3.4336,-3.453,-3.4818,-3.5056,-3.5157,-3.5676,-3.7048,-3.778,-3.8619,-3.9829,-4.0404,-4.084,-4.131,-4.1514,-4.1339,-4.1119,-4.128,-4.1576,-4.1811,-4.1656,-4.1689,-4.2281,-4.2085,-4.1929,-4.1991,-4.1632,-4.1422,-4.1482,-4.1452,-4.1422,-4.1422,-4.1422,-4.107,-2.5684,-2.5479,-2.4254,-2.3126,-2.2257,-2.2257,-2.2767,-2.3791,-2.5128,-2.5684,-2.5684,-2.5684,-2.5684,-2.5684,-2.5684,-2.5684,-2.5684,-2.5684,-2.5684,-2.5684,-2.5684,-2.5684,-2.5684,-2.5684,-2.5684,-2.5684,-2.5684,-2.5684,-2.5684,-2.5684,-2.5684,-2.5684,-2.5684,-2.6524,-2.7767,-2.6572,-2.6524,-2.7804,-2.6572,-2.5684,-2.5684,-2.5684,-2.5684,-2.5684,-2.5684,-2.6887,-2.9258,-2.9396,-3.0553,-3.2939,-3.3124,-3.2164,-3.0135,-3.0721,-3.081,-3.0181,-3.1877,-3.3124,-3.3124,-3.3124,-3.3124,-3.3025,-3.1909,-3.0676,-2.9681,-2.9396,-2.9223,-2.9096,-3.1146,-3.2612,-3.3081,-3.3124,-3.3124,-3.3124,-3.3124,-3.3124,-3.3124,-3.3124,-3.3338,-3.3796,-3.4035,-3.4412,-3.5002,-3.5228,-3.5391,-3.5692,-3.578,-3.6088,-3.7344,-3.7854,-3.8429,-3.9258,-3.939,-3.9887,-4.0873,-4.1027,-4.087,-4.07,-4.0813,-4.1121,-4.165,-4.1288,-4.1475,-4.1784,-4.2094,-4.2445,-4.2587,-4.2207,-4.1908,-4.1923,-4.1908,-4.1923,-4.2102,-4.1968,-4.1953,-2.5684,-2.5528,-2.4254,-2.3692,-2.3592,-2.3543,-2.3642,-2.3939,-2.5118,-2.5684,-2.5684,-2.5684,-2.5684,-2.5684,-2.5684,-2.5684,-2.5684,-2.5684,-2.5684,-2.5684,-2.5684,-2.5684,-2.5684,-2.5684,-2.5684,-2.5684,-2.5684,-2.5684,-2.5684,-2.5684,-2.5684,-2.5684,-2.5684,-2.6887,-2.8495,-2.6802,-2.6887,-2.8588,-2.6849,-2.5684,-2.5684,-2.5684,-2.5684,-2.5684,-2.5684,-2.6839,-2.8993,-2.9396,-3.0553,-3.2982,-3.3081,-3.2481,-3.1267,-3.1134,-3.1033,-3.1089,-3.2283,-3.3068,-3.3038,-3.3081,-3.3124,-3.2982,-3.2052,-3.0721,-2.9533,-2.9396,-2.8947,-2.7861,-2.9852,-3.1601,-3.2797,-3.3038,-3.3106,-3.3187,-3.3162,-3.3174,-3.3187,-3.33,-3.3345,-3.3909,-3.4462,-3.5115,-3.6081,-3.6342,-3.6241,-3.6292,-3.6342,-3.6389,-3.6624,-3.7402,-3.7984,-3.8107,-3.8243,-3.8604,-3.9681,-3.9972,-3.9958,-3.9818,-3.982,-4.0088,-4.0015,-4.0102,-4.0689,-4.1337,-4.1637,-4.2155,-4.2892,-4.317,-4.3035,-4.2961,-4.2916,-4.2931,-4.2761,-4.3065,-4.3006,-2.5684,-2.5577,-2.4254,-2.4196,-2.4864,-2.4097,-2.4196,-2.5011,-2.5489,-2.5684,-2.5684,-2.5684,-2.5684,-2.5684,-2.5684,-2.5684,-2.5684,-2.5684,-2.5684,-2.5684,-2.5684,-2.5684,-2.5684,-2.5684,-2.5684,-2.5684,-2.5684,-2.5684,-2.5684,-2.5684,-2.5684,-2.5684,-2.5684,-2.6572,-2.7626,-2.6572,-2.6562,-2.7908,-2.6514,-2.5684,-2.5684,-2.5684,-2.5684,-2.5684,-2.5684,-2.6476,-2.8179,-2.8947,-3.0181,-3.1821,-3.2655,-3.2513,-3.1311,-3.0451,-2.9681,-2.9177,-3.0777,-3.1909,-3.2008,-3.2655,-3.3124,-3.3081,-3.2711,-3.1468,-2.9863,-2.935,-2.8901,-2.8085,-2.8226,-2.9681,-3.1545,-3.2612,-3.3275,-3.3533,-3.3608,-3.3734,-3.4035,-3.4148,-3.4349,-3.4889,-3.5429,-3.5956,-3.6241,-3.6417,-3.6417,-3.6417,-3.6417,-3.6417,-3.6452,-3.679,-3.7095,-3.7023,-3.7023,-3.7163,-3.7474,-3.8347,-3.8725,-3.8738,-3.8827,-3.9316,-3.9448,-3.9036,-3.942,-4.1239,-4.1587,-4.2015,-4.2871,-4.3275,-4.3305,-4.3305,-4.3305,-4.3305,-4.329,-4.3305,-4.3305,-2.5684,-2.5586,-2.4716,-2.4864,-2.5528,-2.4766,-2.4864,-2.5684,-2.5684,-2.5684,-2.5684,-2.5684,-2.5684,-2.5684,-2.5684,-2.5684,-2.5684,-2.5684,-2.5684,-2.5684,-2.5684,-2.5684,-2.5684,-2.5684,-2.5684,-2.5684,-2.5684,-2.5684,-2.5684,-2.5684,-2.5684,-2.5684,-2.5684,-2.6342,-2.7173,-2.6342,-2.6342,-2.7125,-2.6332,-2.5684,-2.5684,-2.5684,-2.5684,-2.5684,-2.5684,-2.6294,-2.7542,-2.8773,-2.9943,-3.1178,-3.2426,-3.2513,-3.1267,-3.044,-2.9453,-2.8598,-3.009,-3.1178,-3.1356,-3.2382,-3.3124,-3.3124,-3.3038,-3.2064,-2.9761,-2.9396,-2.8623,-2.7531,-2.7908,-2.9026,-3.066,-3.2365,-3.3495,-3.3859,-3.4048,-3.4299,-3.4663,-3.4668,-3.4919,-3.537,-3.5943,-3.6329,-3.6417,-3.6417,-3.6417,-3.6417,-3.6417,-3.6417,-3.6417,-3.6581,-3.6568,-3.6493,-3.6855,-3.6953,-3.7153,-3.771,-3.7788,-3.7736,-3.7919,-3.8437,-3.9006,-3.8514,-3.9023,-4.0802,-4.185,-4.229,-4.2739,-4.317,-4.3305,-4.3305,-4.3305,-4.3305,-4.3305,-4.3305,-4.3305,-2.5684,-2.5684,-2.5684,-2.5586,-2.5684,-2.5577,-2.5645,-2.5684,-2.5684,-2.5684,-2.5684,-2.5684,-2.5684,-2.5684,-2.5684,-2.5684,-2.5684,-2.5684,-2.5684,-2.5684,-2.5684,-2.5684,-2.5684,-2.5684,-2.5684,-2.5684,-2.5684,-2.5684,-2.5684,-2.5684,-2.5684,-2.5684,-2.5684,-2.6245,-2.7494,-2.6342,-2.6294,-2.6945,-2.6255,-2.5684,-2.5684,-2.5684,-2.5684,-2.5684,-2.5684,-2.6245,-2.7447,-2.8727,-2.9909,-3.1033,-3.237,-3.2469,-3.14,-3.0944,-3.0496,-2.9498,-3.0451,-3.1045,-3.1223,-3.2326,-3.3124,-3.3124,-3.3124,-3.2064,-2.9909,-2.9361,-2.8448,-2.6706,-2.782,-2.9574,-3.042,-3.2385,-3.3865,-3.3997,-3.4462,-3.4763,-3.4839,-3.4743,-3.4919,-3.5508,-3.6069,-3.6392,-3.643,-3.6505,-3.6556,-3.6631,-3.6631,-3.6644,-3.6719,-3.696,-3.6923,-3.6845,-3.7172,-3.7462,-3.7373,-3.7232,-3.7001,-3.6818,-3.7053,-3.7474,-3.8572,-3.8693,-3.9508,-4.1028,-4.2029,-4.2508,-4.2955,-4.3305,-4.3305,-4.3305,-4.3305,-4.3305,-4.3305,-4.3305,-4.3305,-2.5684,-2.5684,-2.5684,-2.5684,-2.5684,-2.5684,-2.5684,-2.5684,-2.5684,-2.5684,-2.5684,-2.5684,-2.5684,-2.5684,-2.5684,-2.5684,-2.5684,-2.5684,-2.5684,-2.5684,-2.5684,-2.5684,-2.5684,-2.5684,-2.5684,-2.5684,-2.5684,-2.5684,-2.5684,-2.5684,-2.5684,-2.5684,-2.5684,-2.5878,-2.6294,-2.5917,-2.5965,-2.6159,-2.5917,-2.5684,-2.5684,-2.5684,-2.5684,-2.5684,-2.5684,-2.5917,-2.6342,-2.8308,-2.9544,-3.0,-3.1965,-3.2513,-3.1356,-3.0406,-2.9407,-2.8495,-2.9269,-2.9943,-3.0226,-3.1877,-3.3124,-3.3124,-3.3124,-3.1877,-2.9818,-2.9407,-2.8308,-2.6285,-2.7527,-2.9081,-3.0343,-3.2324,-3.4044,-3.4936,-3.5144,-3.5454,-3.5692,-3.5839,-3.5918,-3.6069,-3.6304,-3.6543,-3.6857,-3.6958,-3.7109,-3.7362,-3.7412,-3.7412,-3.7487,-3.7575,-3.7726,-3.76,-3.7939,-3.8102,-3.7901,-3.8135,-3.8355,-3.8117,-3.7937,-3.8024,-3.8872,-3.9434,-4.0304,-4.1169,-4.2126,-4.2684,-4.313,-4.3305,-4.3305,-4.325,-4.321,-4.325,-4.3305,-4.309,-4.278,-2.5684,-2.5684,-2.5684,-2.5684,-2.5684,-2.5684,-2.5684,-2.5684,-2.5684,-2.5684,-2.5684,-2.5684,-2.5684,-2.5684,-2.5684,-2.5684,-2.5684,-2.5684,-2.5684,-2.5684,-2.5684,-2.5684,-2.5684,-2.5684,-2.5684,-2.5684,-2.5684,-2.5684,-2.5684,-2.5684,-2.5684,-2.5684,-2.5684,-2.5732,-2.5684,-2.5684,-2.5684,-2.5684,-2.5684,-2.5684,-2.5684,-2.5684,-2.5684,-2.5684,-2.5684,-2.5684,-2.5868,-2.8085,-2.9396,-2.9806,-3.1777,-3.2612,-3.1877,-3.0765,-2.9727,-2.9315,-2.959,-3.009,-3.0271,-3.2021,-3.3124,-3.3124,-3.3124,-3.2251,-3.0451,-2.9772,-2.8402,-2.7034,-2.8073,-2.9467,-3.0636,-3.2889,-3.4703,-3.5678,-3.5843,-3.6006,-3.6355,-3.6417,-3.6392,-3.6417,-3.6581,-3.687,-3.7073,-3.7425,-3.7588,-3.7939,-3.8002,-3.8002,-3.8052,-3.8191,-3.8203,-3.8304,-3.8542,-3.8567,-3.8491,-3.901,-3.9764,-3.9674,-3.9494,-3.9677,-4.0218,-4.0476,-4.1042,-4.1947,-4.286,-4.2955,-4.3305,-4.3305,-4.3305,-4.321,-4.313,-4.29,-4.2739,-4.1961,-4.1755,-2.5684,-2.5684,-2.5684,-2.5684,-2.5684,-2.5684,-2.5684,-2.5684,-2.5684,-2.5684,-2.5684,-2.5684,-2.5684,-2.5684,-2.5684,-2.5684,-2.5684,-2.5684,-2.5684,-2.5684,-2.5684,-2.5684,-2.5684,-2.5684,-2.5684,-2.5684,-2.5684,-2.5684,-2.5684,-2.5684,-2.5684,-2.5684,-2.5868,-2.5781,-2.5781,-2.5732,-2.5878,-2.5732,-2.5684,-2.5684,-2.5684,-2.5684,-2.5684,-2.5684,-2.5684,-2.5684,-2.6004,-2.8028,-2.9487,-2.9909,-3.2021,-3.3081,-3.284,-3.1865,-3.1045,-3.0855,-3.1122,-3.1078,-3.14,-3.2295,-3.3197,-3.3356,-3.3154,-3.2599,-3.1432,-3.0293,-2.9222,-2.8083,-2.9404,-3.0663,-3.1651,-3.3753,-3.5572,-3.6245,-3.6317,-3.6355,-3.6487,-3.6581,-3.6772,-3.6792,-3.6991,-3.7333,-3.7459,-3.7826,-3.8052,-3.8216,-3.8266,-3.8316,-3.8379,-3.8605,-3.858,-3.8781,-3.9069,-3.9436,-3.9471,-4.0237,-4.1066,-4.1736,-4.1538,-4.178,-4.178,-4.1918,-4.1999,-4.2836,-4.3275,-4.3325,-4.3364,-4.3424,-4.3364,-4.3265,-4.2996,-4.2603,-4.2167,-4.1699,-4.1574,-2.5684,-2.5684,-2.5684,-2.5684,-2.5684,-2.5684,-2.5684,-2.5684,-2.5684,-2.5684,-2.5684,-2.5684,-2.5684,-2.5684,-2.5684,-2.5684,-2.5684,-2.5684,-2.5684,-2.5684,-2.5684,-2.5684,-2.5684,-2.5684,-2.5732,-2.582,-2.5781,-2.5684,-2.5684,-2.5771,-2.5781,-2.5732,-2.6668,-2.662,-2.5917,-2.662,-2.6524,-2.582,-2.5684,-2.5684,-2.5684,-2.5684,-2.5684,-2.5684,-2.5684,-2.5732,-2.5917,-2.8075,-3.0361,-3.2033,-3.2667,-3.3124,-3.2982,-3.1965,-3.1311,-3.1311,-3.1267,-3.1223,-3.15,-3.2426,-3.3428,-3.4108,-3.367,-3.292,-3.2426,-3.1384,-3.0387,-3.0004,-3.111,-3.2359,-3.3173,-3.4864,-3.6088,-3.6367,-3.6417,-3.6662,-3.7322,-3.7632,-3.7775,-3.8179,-3.8353,-3.8488,-3.851,-3.8654,-3.8869,-3.9108,-3.9132,-3.9132,-3.9094,-3.9132,-3.917,-3.9308,-3.9611,-4.0198,-4.0746,-4.1547,-4.243,-4.3556,-4.3863,-4.4158,-4.3997,-4.3773,-4.3749,-4.3997,-4.3758,-4.3708,-4.3708,-4.3723,-4.3574,-4.3439,-4.2618,-4.2099,-4.2467,-4.2304,-4.2167,-2.5684,-2.5684,-2.5684,-2.5684,-2.5684,-2.5684,-2.5684,-2.5684,-2.5684,-2.5684,-2.5684,-2.5684,-2.5684,-2.5684,-2.5684,-2.5684,-2.5684,-2.5684,-2.6014,-2.661,-2.7115,-2.703,-2.6572,-2.6052,-2.6187,-2.7067,-2.6197,-2.6062,-2.6428,-2.6476,-2.6524,-2.6754,-2.772,-2.7683,-2.6668,-2.7136,-2.6982,-2.5917,-2.5684,-2.5684,-2.5684,-2.5684,-2.5684,-2.5684,-2.5732,-2.6014,-2.7258,-2.8669,-3.0553,-3.2481,-3.3124,-3.3124,-3.3081,-3.2426,-3.2008,-3.2008,-3.1996,-3.1996,-3.2215,-3.3091,-3.3982,-3.4581,-3.4345,-3.4126,-3.3559,-3.2549,-3.1632,-3.1251,-3.2263,-3.303,-3.3886,-3.5347,-3.6273,-3.6417,-3.6417,-3.6675,-3.7381,-3.7769,-3.8339,-3.8912,-3.9601,-3.9947,-3.9752,-3.9849,-3.9867,-3.9764,-3.9584,-3.9597,-3.9622,-3.9697,-3.9697,-3.9685,-4.0109,-4.0742,-4.1686,-4.2528,-4.3505,-4.4608,-4.5376,-4.5861,-4.5424,-4.5095,-4.4885,-4.4605,-4.4291,-4.4182,-4.4261,-4.4231,-4.3947,-4.3471,-4.2427,-4.2129,-4.2622,-4.2395,-4.2366,-2.5684,-2.5684,-2.5684,-2.5684,-2.5684,-2.5684,-2.5684,-2.5684,-2.5684,-2.5684,-2.5684,-2.5684,-2.5684,-2.5684,-2.5684,-2.5684,-2.5684,-2.5684,-2.6466,-2.7352,-2.8226,-2.8459,-2.8121,-2.702,-2.7295,-2.8319,-2.6839,-2.6668,-2.7078,-2.74,-2.7626,-2.7851,-2.8808,-2.8727,-2.7767,-2.7731,-2.704,-2.5965,-2.5684,-2.5684,-2.5684,-2.5684,-2.5684,-2.5684,-2.5684,-2.6935,-2.8437,-2.9533,-3.0541,-3.2982,-3.3124,-3.3124,-3.3068,-3.3068,-3.3025,-3.2982,-3.2884,-3.2939,-3.3142,-3.3742,-3.4622,-3.4938,-3.5588,-3.5894,-3.4967,-3.3894,-3.294,-3.2852,-3.2911,-3.3558,-3.4315,-3.5575,-3.626,-3.6417,-3.6417,-3.6417,-3.6704,-3.7598,-3.8652,-3.9348,-4.0918,-4.1519,-4.1264,-4.1186,-4.1119,-3.9776,-3.9697,-3.9697,-3.9697,-3.9697,-3.9697,-3.9697,-4.0402,-4.1306,-4.2385,-4.3543,-4.4542,-4.5605,-4.6329,-4.6666,-4.6052,-4.5708,-4.5529,-4.5274,-4.4945,-4.4975,-4.5244,-4.502,-4.4571,-4.4005,-4.3224,-4.3063,-4.3012,-4.2198,-4.185,-2.5684,-2.5684,-2.5684,-2.5684,-2.5684,-2.5684,-2.5732,-2.5732,-2.5732,-2.5917,-2.5732,-2.5732,-2.5732,-2.5684,-2.5684,-2.5684,-2.5732,-2.583,-2.638,-2.7505,-2.7778,-2.9085,-2.967,-2.8993,-2.8448,-2.8495,-2.8634,-2.7757,-2.7078,-2.8179,-2.8552,-2.8085,-2.9681,-2.9727,-2.8049,-2.8459,-2.7861,-2.61,-2.5684,-2.5684,-2.5684,-2.5684,-2.5684,-2.5684,-2.5684,-2.6972,-2.8855,-2.9396,-3.0598,-3.2438,-3.3124,-3.3124,-3.3124,-3.3124,-3.3124,-3.3124,-3.3124,-3.3124,-3.3167,-3.3484,-3.422,-3.5574,-3.5601,-3.5601,-3.6982,-3.5386,-3.4819,-3.4979,-3.4805,-3.4736,-3.5533,-3.6068,-3.6358,-3.6417,-3.6455,-3.6606,-3.7229,-3.8846,-4.02,-4.1223,-4.2558,-4.3234,-4.1714,-4.1652,-4.1169,-4.0032,-3.9697,-3.9697,-3.9697,-3.9697,-3.9697,-3.9697,-4.0415,-4.1356,-4.2869,-4.4102,-4.5343,-4.6166,-4.6873,-4.7264,-4.6651,-4.6352,-4.6157,-4.5873,-4.5559,-4.5723,-4.6037,-4.5589,-4.5095,-4.4561,-4.4135,-4.3948,-4.3514,-4.245,-4.2137,-2.5684,-2.5684,-2.5684,-2.5684,-2.583,-2.6342,-2.6572,-2.6706,-2.721,-2.7115,-2.6658,-2.662,-2.6245,-2.5742,-2.5684,-2.5684,-2.5868,-2.6332,-2.6572,-2.7078,-2.7767,-2.9189,-3.0079,-3.0451,-3.009,-2.9966,-2.9453,-2.8762,-2.8844,-2.935,-2.9943,-2.9453,-3.1146,-3.0687,-2.8819,-2.9039,-2.7992,-2.6197,-2.5684,-2.5684,-2.5684,-2.5684,-2.5684,-2.5684,-2.582,-2.6887,-2.9131,-2.9396,-3.0732,-3.2438,-3.3124,-3.3124,-3.3124,-3.3124,-3.3124,-3.3124,-3.3124,-3.3124,-3.3124,-3.3628,-3.4581,-3.6039,-3.6081,-3.6749,-3.7396,-3.6685,-3.6198,-3.6178,-3.5854,-3.575,-3.6335,-3.6417,-3.6417,-3.6468,-3.6656,-3.6933,-3.7518,-3.9335,-4.1187,-4.2283,-4.3956,-4.4307,-4.3817,-4.2732,-4.1789,-4.0932,-3.9749,-3.9697,-3.9697,-3.9697,-3.9697,-3.9839,-4.0415,-4.1455,-4.3156,-4.4627,-4.6048,-4.6682,-4.7077,-4.7309,-4.707,-4.689,-4.68,-4.6516,-4.6262,-4.6486,-4.6651,-4.6142,-4.5768,-4.5511,-4.5149,-4.4837,-4.446,-4.3936,-4.3833,-2.5917,-2.6245,-2.6062,-2.611,-2.6438,-2.7447,-2.7861,-2.8049,-2.8947,-2.8448,-2.772,-2.7589,-2.6754,-2.5917,-2.5684,-2.5684,-2.5965,-2.6524,-2.6668,-2.6716,-2.7992,-2.9189,-2.9954,-3.0765,-3.1589,-3.2711,-3.1235,-3.0496,-3.0541,-3.1279,-3.1223,-3.1323,-3.2052,-3.1235,-2.9772,-2.9039,-2.7945,-2.5965,-2.5684,-2.5684,-2.5684,-2.5684,-2.5684,-2.5732,-2.6514,-2.7389,-2.9131,-2.9772,-3.0789,-3.2896,-3.3124,-3.3124,-3.3124,-3.3124,-3.3124,-3.3124,-3.3124,-3.3124,-3.3197,-3.3827,-3.4733,-3.5894,-3.6866,-3.7525,-3.7639,-3.7801,-3.7601,-3.715,-3.6817,-3.6515,-3.6467,-3.6417,-3.6417,-3.6505,-3.6895,-3.7174,-3.7721,-3.9382,-4.1058,-4.2274,-4.3998,-4.4924,-4.4472,-4.3585,-4.2738,-4.1838,-4.0605,-3.9788,-3.9839,-3.9788,-3.9839,-3.9749,-4.0173,-4.1468,-4.3122,-4.5252,-4.6682,-4.696,-4.7309,-4.7309,-4.7309,-4.7204,-4.7085,-4.7174,-4.7115,-4.7189,-4.7115,-4.6756,-4.6471,-4.6381,-4.616,-4.5779,-4.5582,-4.5484,-4.5349,-2.6887,-2.8669,-2.772,-2.7851,-2.8727,-2.9039,-2.9085,-2.9131,-2.9453,-2.8727,-2.7814,-2.7589,-2.6982,-2.6014,-2.5684,-2.5684,-2.5781,-2.611,-2.6476,-2.6849,-2.7814,-2.8588,-3.0226,-3.0721,-3.1777,-3.2754,-3.2295,-3.1512,-3.0866,-3.1557,-3.2052,-3.15,-3.1589,-3.0866,-2.959,-2.8459,-2.7437,-2.5965,-2.5684,-2.5684,-2.5684,-2.5878,-2.6004,-2.6245,-2.7531,-2.8716,-2.9453,-3.0406,-3.1589,-3.2884,-3.3081,-3.3124,-3.3124,-3.3124,-3.3124,-3.3124,-3.3124,-3.3124,-3.3197,-3.3283,-3.3953,-3.4856,-3.5987,-3.7021,-3.7649,-3.8318,-3.8596,-3.8571,-3.7987,-3.741,-3.6496,-3.6417,-3.6417,-3.6531,-3.6933,-3.7374,-3.8057,-3.9379,-4.0712,-4.1379,-4.3468,-4.5351,-4.4741,-4.4256,-4.3598,-4.2593,-4.1455,-4.0743,-4.0554,-4.0313,-4.007,-3.9929,-3.98,-4.1369,-4.3074,-4.5403,-4.7164,-4.7121,-4.7309,-4.7309,-4.7309,-4.7309,-4.7309,-4.7309,-4.7309,-4.7264,-4.7189,-4.7115,-4.7055,-4.686,-4.68,-4.6726,-4.6426,-4.6112,-4.5888,-2.7767,-2.9315,-2.8773,-2.8855,-2.9442,-3.009,-3.0316,-3.0451,-3.1,-3.0643,-2.9544,-2.8773,-2.7861,-2.6754,-2.5927,-2.5732,-2.5684,-2.5684,-2.6052,-2.6572,-2.6754,-2.7484,-2.9453,-2.9988,-3.1,-3.1965,-3.2612,-3.2612,-3.1512,-3.2426,-3.2711,-3.2413,-3.2196,-3.1279,-2.9715,-2.8912,-2.7389,-2.6197,-2.5684,-2.5732,-2.582,-2.6245,-2.6887,-2.7851,-2.8669,-2.9624,-3.0406,-3.0765,-3.1777,-3.2797,-3.3124,-3.3124,-3.3124,-3.3124,-3.3124,-3.3124,-3.3124,-3.3124,-3.3124,-3.3167,-3.3628,-3.4635,-3.5588,-3.6657,-3.7768,-3.8777,-3.9484,-3.9142,-3.8635,-3.7632,-3.6534,-3.6405,-3.6417,-3.6568,-3.7121,-3.7651,-3.8238,-3.9394,-3.9987,-4.065,-4.3241,-4.4892,-4.5058,-4.4581,-4.421,-4.3409,-4.2301,-4.1789,-4.1419,-4.1269,-4.1019,-4.0982,-4.1082,-4.2363,-4.3929,-4.5689,-4.7266,-4.7309,-4.7309,-4.7309,-4.7309,-4.7309,-4.7309,-4.7309,-4.7309,-4.7309,-4.7294,-4.7219,-4.7279,-4.7309,-4.7145,-4.6995,-4.692,-4.6756,-4.6486,-2.8819,-3.0135,-2.9852,-2.9909,-3.0271,-3.1134,-3.1589,-3.1777,-3.2568,-3.2239,-3.1166,-3.0124,-2.8947,-2.7542,-2.638,-2.5684,-2.5684,-2.5684,-2.5917,-2.6197,-2.6014,-2.6524,-2.7992,-2.8901,-3.0124,-3.1456,-3.2568,-3.3081,-3.284,-3.3025,-3.3081,-3.2797,-3.284,-3.1701,-2.9772,-2.8912,-2.7579,-2.6428,-2.5684,-2.5732,-2.6342,-2.7305,-2.8355,-2.9453,-2.9863,-3.0586,-3.1,-3.1545,-3.2108,-3.284,-3.3124,-3.3124,-3.3124,-3.3124,-3.3124,-3.3124,-3.3124,-3.3124,-3.3124,-3.3124,-3.3441,-3.4163,-3.5278,-3.6344,-3.7672,-3.8966,-4.0183,-3.927,-3.88,-3.7893,-3.6756,-3.6417,-3.6417,-3.6631,-3.7274,-3.8052,-3.8278,-3.8932,-3.9638,-4.1041,-4.3409,-4.4303,-4.4442,-4.4489,-4.4069,-4.4363,-4.3361,-4.2821,-4.2544,-4.2738,-4.2641,-4.2544,-4.2834,-4.3868,-4.5055,-4.6062,-4.7106,-4.7309,-4.7309,-4.7309,-4.7309,-4.7309,-4.7309,-4.7309,-4.7309,-4.7309,-4.7309,-4.7266,-4.7309,-4.7309,-4.7309,-4.7249,-4.713,-4.7115,-4.698,-3.0553,-3.2568,-3.1468,-3.1645,-3.2537,-3.2754,-3.284,-3.2853,-3.3025,-3.237,-3.1356,-3.0944,-2.967,-2.772,-2.6245,-2.5732,-2.5684,-2.5732,-2.6149,-2.6668,-2.6159,-2.6839,-2.8762,-2.9223,-2.9897,-3.0899,-3.2251,-3.3038,-3.2982,-3.2982,-3.3124,-3.2982,-3.2152,-3.0822,-2.9772,-2.9039,-2.7125,-2.6004,-2.5771,-2.6245,-2.7305,-2.8459,-2.9131,-2.9966,-3.1202,-3.2052,-3.1645,-3.2152,-3.2896,-3.2982,-3.3124,-3.3124,-3.3124,-3.3124,-3.3124,-3.3124,-3.3124,-3.3124,-3.3124,-3.3124,-3.3124,-3.3641,-3.4428,-3.5319,-3.7234,-3.9291,-4.0577,-3.9895,-3.9579,-3.8527,-3.6849,-3.6465,-3.6417,-3.6732,-3.7236,-3.7801,-3.8153,-3.8743,-3.9408,-4.0364,-4.2363,-4.3266,-4.374,-4.3882,-4.3975,-4.4363,-4.4503,-4.4069,-4.3726,-4.3962,-4.4242,-4.421,-4.3975,-4.4872,-4.5719,-4.6726,-4.7062,-4.7309,-4.7309,-4.7309,-4.7309,-4.7309,-4.7309,-4.7309,-4.7309,-4.7121,-4.6931,-4.6931,-4.7164,-4.7309,-4.7309,-4.7309,-4.7294,-4.7309,-4.7309,-3.212,-3.3025,-3.2525,-3.2568,-3.3081,-3.3124,-3.3124,-3.3124,-3.3081,-3.2797,-3.2196,-3.1444,-2.9863,-2.7767,-2.6245,-2.5732,-2.5684,-2.5684,-2.5965,-2.6476,-2.6149,-2.6696,-2.7945,-2.8448,-2.9039,-3.0135,-3.0777,-3.1311,-3.1909,-3.2754,-3.3124,-3.3025,-3.2525,-3.1777,-3.0406,-2.9909,-2.9004,-2.8038,-2.7305,-2.7088,-2.7778,-2.8727,-2.9715,-3.0395,-3.2196,-3.2556,-3.2513,-3.2667,-3.3124,-3.3124,-3.3124,-3.3124,-3.3124,-3.3124,-3.3124,-3.3124,-3.3124,-3.3124,-3.3124,-3.3124,-3.3124,-3.3368,-3.4215,-3.5778,-3.7805,-3.933,-4.0343,-3.9934,-3.9214,-3.8121,-3.6849,-3.6452,-3.6417,-3.6669,-3.7186,-3.7626,-3.809,-3.8705,-3.9385,-4.0285,-4.1269,-4.2558,-4.3882,-4.4932,-4.5358,-4.5689,-4.5973,-4.5824,-4.5358,-4.5161,-4.5539,-4.5913,-4.5584,-4.5524,-4.6299,-4.7121,-4.7164,-4.7309,-4.7309,-4.7309,-4.7309,-4.7309,-4.7309,-4.7309,-4.7309,-4.7019,-4.6594,-4.6682,-4.7019,-4.7164,-4.7309,-4.7164,-4.7077,-4.7309,-4.7309,-3.3124,-3.3081,-3.2742,-3.2797,-3.3025,-3.2785,-3.2797,-3.3124,-3.3124,-3.3124,-3.2754,-3.1733,-3.0,-2.8179,-2.6849,-2.61,-2.5684,-2.5684,-2.5965,-2.6014,-2.6014,-2.6486,-2.74,-2.7778,-2.8319,-2.9396,-3.0181,-3.0676,-3.1356,-3.2052,-3.2655,-3.3081,-3.2982,-3.2283,-3.15,-3.0855,-3.0135,-2.8495,-2.74,-2.7173,-2.772,-2.8773,-2.9943,-3.1134,-3.2283,-3.2939,-3.2655,-3.2568,-3.2568,-3.2568,-3.2525,-3.2568,-3.2982,-3.3124,-3.3124,-3.3124,-3.3124,-3.3124,-3.3124,-3.3124,-3.3124,-3.3441,-3.4212,-3.5899,-3.8478,-3.9275,-3.9529,-3.9818,-3.8872,-3.7736,-3.6722,-3.6417,-3.6417,-3.6656,-3.7109,-3.7513,-3.8077,-3.8881,-3.9791,-4.0863,-4.1887,-4.293,-4.441,-4.6121,-4.6873,-4.7121,-4.7309,-4.7309,-4.6873,-4.6255,-4.6403,-4.6682,-4.658,-4.6299,-4.6682,-4.7222,-4.7309,-4.7309,-4.7309,-4.7309,-4.7309,-4.7309,-4.7309,-4.7309,-4.7164,-4.6741,-4.6166,-4.6506,-4.6785,-4.6447,-4.6299,-4.6682,-4.6829,-4.7019,-4.7164,-3.3124,-3.2982,-3.1821,-3.2064,-3.3025,-3.1833,-3.2052,-3.3081,-3.3124,-3.3124,-3.2939,-3.1689,-3.0316,-2.9039,-2.7626,-2.6524,-2.5684,-2.5684,-2.6245,-2.6524,-2.6476,-2.6572,-2.722,-2.7767,-2.8226,-2.9396,-3.0033,-3.0676,-3.1178,-3.14,-3.2196,-3.2927,-3.284,-3.2196,-3.1733,-3.1456,-3.0271,-2.8588,-2.721,-2.6839,-2.7531,-2.8588,-2.9761,-3.0944,-3.2096,-3.2568,-3.1456,-3.1323,-3.15,-3.1545,-3.1589,-3.2196,-3.2884,-3.3081,-3.3124,-3.3124,-3.3124,-3.3124,-3.3124,-3.3124,-3.3124,-3.3398,-3.4263,-3.5759,-3.7938,-3.82,-3.8614,-3.9374,-3.8411,-3.7507,-3.6769,-3.6417,-3.6417,-3.6631,-3.7059,-3.7563,-3.8239,-3.9221,-4.0183,-4.1363,-4.2558,-4.374,-4.4642,-4.6314,-4.7077,-4.7266,-4.7309,-4.7309,-4.7309,-4.6873,-4.6975,-4.7164,-4.7164,-4.7121,-4.7121,-4.7309,-4.7309,-4.7309,-4.7309,-4.7309,-4.7309,-4.7266,-4.6873,-4.6785,-4.6506,-4.6121,-4.5598,-4.5207,-4.4964,-4.5055,-4.5207,-4.5494,-4.5883,-4.6166,-4.6447,-3.3124,-3.2982,-3.1733,-3.1921,-3.3068,-3.2568,-3.2655,-3.3038,-3.3124,-3.3124,-3.2982,-3.1045,-2.9852,-2.8993,-2.7305,-2.6197,-2.5732,-2.5684,-2.61,-2.6149,-2.6062,-2.6524,-2.7173,-2.7767,-2.8226,-2.9304,-3.0033,-3.0619,-3.1122,-3.1178,-3.2008,-3.2568,-3.2339,-3.2382,-3.2152,-3.2052,-3.0777,-2.9223,-2.8038,-2.7757,-2.6514,-2.7589,-2.8552,-2.9004,-3.0181,-3.0553,-3.0135,-3.009,-3.0541,-3.0956,-3.1089,-3.1865,-3.2785,-3.2982,-3.3124,-3.3124,-3.3124,-3.3124,-3.3124,-3.3124,-3.3124,-3.3414,-3.436,-3.5787,-3.7223,-3.7292,-3.7826,-3.81,-3.7815,-3.6896,-3.6593,-3.6417,-3.6455,-3.6619,-3.7033,-3.76,-3.8352,-3.9309,-4.0622,-4.1785,-4.3347,-4.478,-4.5584,-4.6447,-4.6931,-4.7309,-4.7309,-4.7309,-4.7309,-4.7309,-4.7309,-4.7309,-4.7309,-4.7309,-4.7309,-4.7309,-4.7309,-4.7309,-4.7309,-4.7309,-4.7207,-4.6255,-4.5928,-4.5928,-4.5494,-4.4642,-4.3882,-4.33,-4.3252,-4.3773,-4.3975,-4.4069,-4.4549,-4.5115,-4.5403,-3.3124,-3.2982,-3.214,-3.2283,-3.3025,-3.2698,-3.2742,-3.3081,-3.3124,-3.3124,-3.2939,-3.0866,-2.9681,-2.8901,-2.7389,-2.6014,-2.583,-2.5684,-2.5684,-2.5732,-2.5868,-2.6476,-2.722,-2.7861,-2.8402,-2.9487,-2.9988,-3.0541,-3.1166,-3.1178,-3.1645,-3.1921,-3.1777,-3.2064,-3.2711,-3.2568,-3.1601,-3.0316,-2.8947,-2.8272,-2.6572,-2.7125,-2.7683,-2.7955,-2.8993,-2.9223,-2.9039,-2.8901,-2.9177,-2.9818,-3.0406,-3.1223,-3.214,-3.284,-3.3081,-3.3124,-3.3124,-3.3124,-3.3124,-3.3124,-3.3212,-3.3568,-3.416,-3.5435,-3.6437,-3.6742,-3.6981,-3.7989,-3.7196,-3.6417,-3.6417,-3.6417,-3.6417,-3.6556,-3.7224,-3.7839,-3.8364,-3.9245,-4.0788,-4.2212,-4.3665,-4.4872,-4.6211,-4.6873,-4.7019,-4.7309,-4.7309,-4.7309,-4.7309,-4.7309,-4.7309,-4.7309,-4.7309,-4.7309,-4.7309,-4.7309,-4.7309,-4.7309,-4.7309,-4.7309,-4.6975,-4.5973,-4.5403,-4.5539,-4.478,-4.317,-4.2509,-4.2315,-4.2461,-4.2786,-4.3026,-4.3313,-4.317,-4.3693,-4.3975,-3.3124,-3.3124,-3.3038,-3.3038,-3.2982,-3.1777,-3.2052,-3.3038,-3.3124,-3.3124,-3.2939,-3.15,-3.0316,-2.9223,-2.7673,-2.6524,-2.582,-2.5684,-2.5684,-2.5684,-2.6014,-2.662,-2.7352,-2.8038,-2.9177,-3.0721,-3.1178,-3.1267,-3.1356,-3.1545,-3.1589,-3.1589,-3.1777,-3.2008,-3.2884,-3.1865,-3.1223,-3.0765,-2.8773,-2.7767,-2.722,-2.722,-2.7268,-2.7542,-2.8168,-2.8262,-2.7814,-2.7626,-2.7898,-2.8366,-2.9096,-3.009,-3.14,-3.237,-3.284,-3.3068,-3.3124,-3.3124,-3.3124,-3.3124,-3.335,-3.3709,-3.4261,-3.5185,-3.6447,-3.6561,-3.6493,-3.7808,-3.7057,-3.6499,-3.6417,-3.6417,-3.6417,-3.6631,-3.7287,-3.7852,-3.8352,-3.9404,-4.0978,-4.2608,-4.3442,-4.441,-4.6121,-4.7266,-4.7222,-4.7309,-4.7309,-4.7309,-4.7309,-4.7309,-4.7309,-4.7309,-4.7309,-4.7309,-4.7309,-4.7309,-4.7309,-4.7309,-4.7309,-4.7309,-4.6785,-4.5779,-4.5358,-4.5252,-4.3773,-4.1972,-4.1654,-4.1555,-4.1604,-4.1703,-4.2461,-4.2738,-4.2461,-4.2168,-4.2363,-3.3124,-3.3124,-3.3124,-3.3124,-3.3038,-3.2655,-3.2742,-3.3068,-3.3124,-3.3124,-3.2655,-3.1,-2.9863,-2.8901,-2.7389,-2.6159,-2.583,-2.5684,-2.5684,-2.582,-2.6476,-2.7078,-2.7908,-2.9177,-3.0305,-3.1223,-3.1821,-3.237,-3.2513,-3.2326,-3.2426,-3.2469,-3.2283,-3.2698,-3.2655,-3.1865,-3.0899,-2.9897,-2.8402,-2.722,-2.6476,-2.6428,-2.6428,-2.6428,-2.6924,-2.6887,-2.6524,-2.6524,-2.6802,-2.741,-2.8226,-2.928,-3.0765,-3.1865,-3.2326,-3.284,-3.3124,-3.3124,-3.3124,-3.3162,-3.3332,-3.3784,-3.4426,-3.5391,-3.6847,-3.655,-3.6978,-3.7508,-3.7137,-3.6675,-3.6417,-3.6417,-3.643,-3.6531,-3.7059,-3.7563,-3.8261,-3.9695,-4.1218,-4.2917,-4.4116,-4.5221,-4.6697,-4.7266,-4.7309,-4.7309,-4.7309,-4.7309,-4.7309,-4.7309,-4.7309,-4.7309,-4.7309,-4.7309,-4.7309,-4.7309,-4.7309,-4.7309,-4.7309,-4.7309,-4.655,-4.5689,-4.478,-4.4349,-4.2544,-4.0831,-4.0794,-4.0655,-4.0415,-4.0605,-4.1319,-4.1555,-4.1132,-4.0743,-4.0554,-3.3124,-3.3124,-3.3124,-3.3124,-3.3124,-3.3124,-3.3124,-3.3124,-3.3081,-3.2884,-3.2052,-3.0271,-2.9131,-2.8262,-2.6791,-2.5684,-2.5684,-2.5684,-2.6197,-2.6342,-2.7125,-2.8085,-2.9269,-3.0373,-3.1223,-3.1921,-3.2525,-3.3081,-3.2982,-3.3081,-3.3025,-3.2982,-3.3124,-3.3025,-3.2698,-3.1865,-3.0899,-2.9909,-2.868,-2.7315,-2.662,-2.6149,-2.5781,-2.5781,-2.5868,-2.5781,-2.5732,-2.582,-2.61,-2.6982,-2.7955,-2.8866,-3.0316,-3.1512,-3.2096,-3.2884,-3.3124,-3.3124,-3.3124,-3.3124,-3.3357,-3.3847,-3.4686,-3.598,-3.7337,-3.7657,-3.8105,-3.8289,-3.754,-3.715,-3.693,-3.6896,-3.6455,-3.6543,-3.6918,-3.7472,-3.8333,-3.9777,-4.1491,-4.3194,-4.4734,-4.5973,-4.6975,-4.7121,-4.7309,-4.7309,-4.7309,-4.7309,-4.7309,-4.7309,-4.7309,-4.7309,-4.7309,-4.7309,-4.7309,-4.7309,-4.7309,-4.7309,-4.7309,-4.7309,-4.6785,-4.5973,-4.4688,-4.3456,-4.2217,-4.1032,-4.0121,-3.98,-3.989,-3.989,-4.0083,-4.0083,-3.9697,-3.9697,-3.9697,-3.3124,-3.3124,-3.3124,-3.3124,-3.3124,-3.3124,-3.3124,-3.3124,-3.3124,-3.2469,-3.1267,-3.0135,-2.8993,-2.772,-2.6342,-2.5732,-2.5684,-2.5684,-2.6438,-2.722,-2.7778,-2.9085,-3.0316,-3.1279,-3.2008,-3.2698,-3.3124,-3.3124,-3.3124,-3.3124,-3.3124,-3.3124,-3.3124,-3.3124,-3.2711,-3.1689,-3.0855,-2.9909,-2.8319,-2.722,-2.662,-2.6149,-2.5781,-2.5684,-2.5684,-2.5878,-2.5965,-2.61,-2.6149,-2.6935,-2.8121,-2.9039,-3.0226,-3.1789,-3.2568,-3.3068,-3.3124,-3.3124,-3.3124,-3.3124,-3.3413,-3.401,-3.5509,-3.6819,-3.7963,-3.8799,-3.9332,-3.9214,-3.868,-3.823,-3.7926,-3.715,-3.6417,-3.6701,-3.701,-3.7686,-3.8428,-3.9881,-4.1699,-4.336,-4.4938,-4.6166,-4.6975,-4.7309,-4.7309,-4.7309,-4.7309,-4.7309,-4.7309,-4.7309,-4.7309,-4.7309,-4.7309,-4.7309,-4.7309,-4.7309,-4.7309,-4.7309,-4.7309,-4.7266,-4.6741,-4.6211,-4.5115,-4.3882,-4.2509,-4.1319,-4.0173,-3.9697,-3.9749,-3.9697,-3.9697,-3.9697,-3.9697,-3.9697,-3.9697,-3.3124,-3.3124,-3.3124,-3.3124,-3.3124,-3.3124,-3.3124,-3.3124,-3.3124,-3.2785,-3.2426,-3.0328,-2.9131,-2.8727,-2.6658,-2.5917,-2.5732,-2.5868,-2.6572,-2.7447,-2.8645,-2.9852,-3.1,-3.2052,-3.2698,-3.2982,-3.3124,-3.3124,-3.3124,-3.3124,-3.3124,-3.3124,-3.3124,-3.3124,-3.2394,-3.1057,-3.0406,-2.9407,-2.7626,-2.6754,-2.638,-2.5917,-2.5684,-2.5684,-2.5684,-2.6014,-2.6716,-2.6897,-2.7173,-2.8402,-2.8901,-2.9636,-3.0822,-3.1456,-3.1921,-3.3025,-3.3124,-3.3124,-3.3124,-3.3124,-3.3338,-3.4163,-3.5778,-3.7407,-3.855,-3.9426,-4.0221,-4.0178,-3.9511,-3.8934,-3.8243,-3.7507,-3.6722,-3.6625,-3.7171,-3.811,-3.9025,-4.0582,-4.243,-4.4432,-4.5928,-4.6403,-4.7222,-4.7309,-4.7309,-4.7309,-4.7309,-4.7309,-4.7309,-4.7309,-4.7309,-4.7309,-4.7309,-4.7309,-4.7309,-4.7309,-4.7309,-4.7309,-4.7309,-4.7266,-4.696,-4.6344,-4.5494,-4.4116,-4.2363,-4.1082,-3.9981,-3.9749,-3.9697,-3.9697,-3.9697,-3.9697,-3.9697,-3.9697,-3.9697,-3.3124,-3.3124,-3.3124,-3.3124,-3.3124,-3.3124,-3.3124,-3.3124,-3.3124,-3.2884,-3.214,-3.0271,-2.9131,-2.8308,-2.6658,-2.5965,-2.6524,-2.6658,-2.7484,-2.9223,-2.9692,-3.0866,-3.1965,-3.2612,-3.2939,-3.3124,-3.3124,-3.3124,-3.3124,-3.3124,-3.3124,-3.3124,-3.3124,-3.3124,-3.2568,-3.1368,-3.009,-2.8808,-2.7352,-2.6052,-2.5732,-2.5732,-2.5684,-2.5781,-2.5732,-2.6476,-2.7458,-2.7636,-2.8319,-2.9361,-2.9636,-3.0361,-3.1311,-3.1633,-3.2108,-3.3081,-3.3124,-3.3124,-3.3124,-3.3124,-3.3282,-3.4088,-3.5753,-3.7222,-3.8683,-3.9785,-4.0869,-4.1415,-4.0322,-3.9363,-3.859,-3.7861,-3.7163,-3.6465,-3.7513,-3.8569,-3.9962,-4.1448,-4.348,-4.5651,-4.6638,-4.7019,-4.7309,-4.7309,-4.7309,-4.7309,-4.7309,-4.7309,-4.7309,-4.7309,-4.7309,-4.7309,-4.7309,-4.7309,-4.7309,-4.7309,-4.7309,-4.7309,-4.7309,-4.7207,-4.7019,-4.6151,-4.4978,-4.3551,-4.1985,-4.0844,-3.9788,-3.9749,-3.9697,-3.9697,-3.9697,-3.9697,-3.9697,-3.9697,-3.9697,-3.3124,-3.3124,-3.3124,-3.3124,-3.3124,-3.3124,-3.3124,-3.3124,-3.3124,-3.2469,-3.1412,-3.0135,-2.9177,-2.8541,-2.721,-2.703,-2.7494,-2.7814,-2.8762,-3.1078,-3.0855,-3.1589,-3.2525,-3.3124,-3.3124,-3.3124,-3.3124,-3.3124,-3.3124,-3.3124,-3.3124,-3.3124,-3.3124,-3.3124,-3.2853,-3.1689,-3.0406,-2.9131,-2.7757,-2.6514,-2.6062,-2.5878,-2.5732,-2.5927,-2.6149,-2.6524,-2.7494,-2.8038,-2.8448,-2.9681,-3.0586,-3.1356,-3.1821,-3.2283,-3.2884,-3.3038,-3.3124,-3.3124,-3.3124,-3.3124,-3.3124,-3.396,-3.55,-3.6688,-3.7983,-4.0108,-4.1479,-4.1892,-4.0947,-4.0378,-3.9717,-3.8532,-3.7599,-3.7736,-3.8561,-3.9775,-4.1158,-4.2848,-4.4922,-4.6593,-4.6931,-4.7309,-4.7309,-4.7309,-4.7309,-4.7309,-4.7309,-4.7309,-4.7266,-4.7266,-4.7266,-4.7266,-4.7309,-4.7309,-4.7309,-4.7309,-4.7309,-4.7309,-4.7164,-4.6887,-4.6491,-4.5494,-4.4363,-4.2978,-4.1604,-4.0642,-3.9826,-3.9736,-3.9697,-3.9697,-3.9697,-3.9697,-3.9697,-3.9697,-3.9697,-3.3124,-3.3124,-3.3124,-3.3124,-3.3124,-3.3124,-3.3124,-3.3124,-3.3124,-3.2939,-3.2426,-3.1356,-3.0541,-2.9909,-2.8762,-2.8541,-2.8819,-2.905,-2.9909,-3.0899,-3.1356,-3.2008,-3.2896,-3.3124,-3.3124,-3.3124,-3.3124,-3.3124,-3.3124,-3.3124,-3.3124,-3.3124,-3.3124,-3.3124,-3.3025,-3.1865,-3.0765,-2.9453,-2.8901,-2.7814,-2.7173,-2.639,-2.6024,-2.6716,-2.722,-2.772,-2.8727,-2.9818,-3.0866,-3.2108,-3.2382,-3.2655,-3.2698,-3.2982,-3.3081,-3.3124,-3.3124,-3.3124,-3.3124,-3.3124,-3.3167,-3.3784,-3.5002,-3.5925,-3.7535,-4.0114,-4.1575,-4.1768,-4.1758,-4.1348,-4.0717,-3.9366,-3.8405,-3.9002,-3.971,-4.1082,-4.2449,-4.4399,-4.6413,-4.6897,-4.7221,-4.7309,-4.7309,-4.7309,-4.7309,-4.7309,-4.7309,-4.7309,-4.7222,-4.7207,-4.7164,-4.7207,-4.7309,-4.7309,-4.7309,-4.7309,-4.7309,-4.6887,-4.6638,-4.6314,-4.5838,-4.4642,-4.3361,-4.2461,-4.1369,-4.0453,-3.9826,-3.9736,-3.9697,-3.9697,-3.9697,-3.9697,-3.9697,-3.9697,-3.9697,-3.3124,-3.3124,-3.3124,-3.3124,-3.3124,-3.3124,-3.3124,-3.3124,-3.3124,-3.3124,-3.2939,-3.1821,-3.1223,-3.1045,-2.9943,-2.9897,-3.009,-3.0181,-3.1057,-3.1733,-3.2008,-3.2469,-3.2896,-3.3124,-3.3124,-3.3124,-3.3124,-3.3124,-3.3124,-3.3124,-3.3124,-3.3124,-3.3124,-3.3081,-3.2982,-3.2239,-3.1089,-2.9498,-2.9909,-2.9498,-2.8505,-2.7814,-2.7173,-2.7814,-2.8179,-2.8773,-2.9407,-3.0586,-3.1789,-3.2711,-3.2982,-3.3025,-3.2982,-3.3081,-3.3124,-3.3124,-3.3124,-3.3124,-3.3124,-3.3167,-3.3326,-3.4095,-3.5075,-3.6255,-3.7313,-3.9665,-4.0928,-4.1224,-4.2004,-4.1766,-4.14,-4.0319,-3.9653,-3.9807,-4.0977,-4.2366,-4.3979,-4.5784,-4.6851,-4.7103,-4.7309,-4.7309,-4.7309,-4.7309,-4.7309,-4.7309,-4.7309,-4.7222,-4.7164,-4.6829,-4.6873,-4.6873,-4.6785,-4.7121,-4.7309,-4.7309,-4.7309,-4.6785,-4.6166,-4.4932,-4.4069,-4.3266,-4.2315,-4.1419,-4.0794,-4.0364,-3.989,-3.9749,-3.9697,-3.9697,-3.9697,-3.9697,-3.9697,-3.9697,-3.9697,-3.3124,-3.3124,-3.3124,-3.3124,-3.3124,-3.3124,-3.3124,-3.3124,-3.3124,-3.3124,-3.3025,-3.2008,-3.15,-3.1045,-3.0496,-3.0866,-3.1178,-3.1412,-3.2239,-3.2667,-3.2939,-3.2982,-3.2982,-3.3124,-3.3124,-3.3124,-3.3124,-3.3124,-3.3124,-3.3124,-3.3124,-3.3124,-3.3124,-3.3124,-3.3124,-3.2853,-3.1977,-3.0732,-3.0496,-3.0631,-3.0079,-2.9453,-2.8727,-2.8541,-2.8866,-2.9407,-2.9681,-3.0687,-3.1921,-3.2426,-3.2939,-3.3124,-3.3124,-3.3124,-3.3124,-3.3124,-3.3124,-3.3124,-3.3124,-3.3124,-3.3713,-3.454,-3.5628,-3.6696,-3.7715,-3.8824,-4.0077,-4.095,-4.1735,-4.2129,-4.1729,-4.1448,-4.0817,-4.0972,-4.2351,-4.3555,-4.525,-4.6745,-4.6998,-4.7193,-4.7178,-4.7163,-4.7266,-4.7266,-4.7294,-4.7294,-4.7251,-4.7164,-4.6931,-4.6299,-4.5973,-4.5838,-4.5689,-4.6166,-4.7019,-4.7207,-4.7164,-4.6682,-4.5883,-4.3929,-4.2315,-4.1703,-4.1082,-4.0415,-3.9839,-3.989,-3.9839,-3.9749,-3.9697,-3.9697,-3.9697,-3.9697,-3.9697,-3.9697,-3.9697,-3.3124,-3.3124,-3.3124,-3.3081,-3.3081,-3.3124,-3.3124,-3.3124,-3.3124,-3.3124,-3.3025,-3.2982,-3.2742,-3.2711,-3.2568,-3.2556,-3.2295,-3.2525,-3.2655,-3.3081,-3.3124,-3.3124,-3.3124,-3.3124,-3.3124,-3.3124,-3.3124,-3.3124,-3.3124,-3.3124,-3.3124,-3.3124,-3.3124,-3.3124,-3.3124,-3.2853,-3.2382,-3.1412,-3.1557,-3.1909,-3.081,-3.009,-2.9407,-2.9544,-3.0226,-2.9407,-2.9326,-3.1247,-3.1789,-3.2096,-3.2525,-3.2982,-3.3124,-3.3124,-3.3124,-3.3124,-3.3124,-3.3124,-3.3124,-3.3283,-3.3911,-3.4843,-3.5868,-3.6852,-3.7866,-3.8811,-3.9846,-4.0531,-4.128,-4.1938,-4.1829,-4.177,-4.1476,-4.2548,-4.3823,-4.4613,-4.5845,-4.6468,-4.6797,-4.6811,-4.6767,-4.6841,-4.7062,-4.7091,-4.7234,-4.7219,-4.7189,-4.7016,-4.6166,-4.5598,-4.507,-4.4826,-4.4642,-4.5779,-4.6829,-4.696,-4.6873,-4.6403,-4.5403,-4.3266,-4.1555,-4.0364,-3.9749,-3.9697,-3.9697,-3.9749,-3.9697,-3.9697,-3.9697,-3.9697,-3.9697,-3.9697,-3.9697,-3.9697,-3.9697]},{"header":{"parameterUnit":"m.s-1","parameterCategory":1,"la1":31.0,"la2":29.5877,"lo1":-88.7671,"lo2":-86.6584,"dx":0.0162,"dy":0.0185,"nx":115,"ny":88,"refTime":"2023-01-01T18:00:00:Z","depth":0,"parameterNumber":3,"parameterNumberName":"V-component_of_WINDS"},"data":[0.0,0.0,0.0,0.0,0.0,0.0,0.0,0.0,0.0,0.0,0.0,0.0,0.0,0.0,0.0,0.0,0.0,0.0,0.0,0.0,0.0,0.0,0.0,0.0,0.0,0.0,0.0,0.0,0.0,0.0,0.0,0.0,0.0,0.0,0.0,0.0,0.0,0.0,0.0,0.0,0.0,0.0,0.0,0.0,0.0,0.0,0.0,0.0,0.0,0.0,0.0,0.0,0.0,0.0,0.0,0.0,0.0,0.0,0.0,0.0,0.0,0.0,0.0,0.0,0.0,0.0,0.0,0.0,0.0,0.0,0.0,0.0,0.0,0.0,0.0,0.0,0.0,0.0,0.0,0.0,0.0,0.0,0.0,0.0,0.0,0.0,0.0,0.0,0.0,0.0,0.0,0.0,0.0,0.0,0.0,0.0,0.0,0.0,0.0,0.0,0.0,0.0,0.0,0.0,0.0,0.0,0.0,0.0,0.0,0.0,0.0,0.0,0.0,0.0,0.0,0.0,0.0,0.0,0.0,0.0,0.0,0.0,0.0,0.0,0.0,0.0,0.0,0.0,0.0,0.0,0.0,0.0,0.0,0.0,0.0,0.0,0.0,0.0,0.0,0.0,0.0,0.0,0.0,0.0,0.0,0.0,0.0,0.0,0.0,0.0,0.0,0.0,0.0,0.0,0.0,0.0,0.0,0.0,0.0,0.0,0.0,0.0,0.0,0.0,0.0,0.0,0.0,0.0,0.0,0.0,0.0,0.0,0.0,0.0,0.0,0.0,0.0,0.0,0.0,0.0,0.0,0.0,0.0,0.0,0.0,0.0,0.0,0.0,0.0,0.0,0.0,0.0,0.0,0.0,0.0,0.0,0.0,0.0,0.0,0.0,0.0,0.0,0.0,0.0,0.0,0.0,0.0,0.0,0.0,0.0,0.0,0.0,0.0,0.0,0.0,0.0,0.0,0.0,0.0,0.0,0.0,0.0,0.0,0.0,0.0,0.0,0.0,0.0,0.0,0.0,0.0,0.0,0.0,0.0,0.0,0.0,0.0,0.0,0.0,0.0,0.0,0.0,0.0,0.0,0.0,0.0,0.0,0.0,0.0,0.0,0.0,0.0,0.0,0.0,0.0,0.0,0.0,0.0,0.0,0.0,0.0,0.0,0.0,0.0,0.0,0.0,0.0,0.0,0.0,0.0,0.0,0.0,0.0,0.0,0.0,0.0,0.0,0.0,0.0,0.0,0.0,0.0,0.0,0.0,0.0,0.0,0.0,0.0,0.0,0.0,0.0,0.0,0.0,0.0,0.0,0.0,0.0,0.0,0.0,0.0,0.0,0.0,0.0,0.0,0.0,0.0,0.0,0.0,0.0,0.0,0.0,0.0,0.0,0.0,0.0,0.0,0.0,0.0,0.0,0.0,0.0,0.0,0.0,0.0,0.0,0.0,0.0,0.0,0.0,0.0,0.0,0.0,0.0,0.0,0.0,0.0,0.0,0.0,0.0,0.0,0.0,0.0,0.0,0.0,0.0,0.0,0.0,0.0,0.0,0.0,0.0,0.0,0.0,0.0,0.0,0.0,0.0,0.0,0.0,0.0,0.0,0.0,0.0,0.0,0.0,0.0,0.0,0.0,0.0,0.0,0.0,0.0,0.0,0.0,0.0,0.0,0.0,0.0,0.0,0.0,0.0,0.0,0.0,0.0,0.0,0.0,0.0,0.0,0.0,0.0,0.0,0.0,0.0,0.0,0.0,0.0,0.0,0.0,0.0,0.0,0.0,0.0,0.0,0.0,0.0,0.0,0.0,0.0,0.0,0.0,0.0,0.0,0.0,0.0,0.0,0.0,0.0,0.0,0.0,0.0,0.0,0.0,0.0,0.0,0.0,0.0,0.0,0.0,0.0,0.0,0.0,0.0,0.0,0.0,0.0,0.0,0.0,0.0,0.0,0.0,0.0,0.0,0.0,0.0,0.0,0.0,0.0,0.0,0.0,0.0,0.0,0.0,0.0,0.0,0.0,0.0,0.0,0.0,0.0,0.0,0.0,0.0,0.0,0.0,0.0,0.0,0.0,0.0,0.0,0.0,0.0,0.0,0.0,0.0,0.0,0.0,0.0,0.0,0.0,0.0,0.0,0.0,0.0,0.0,0.0,0.0,0.0,0.0,0.0,0.0,0.0,0.0,0.0,0.0,0.0,0.0,0.0,0.0,0.0,0.0,0.0,0.0,0.0,0.0,0.0,0.0,0.0,0.0,0.0,0.0,0.0,0.0,0.0,0.0,0.0,0.0,0.0,0.0,0.0,0.0,0.0,0.0,0.0,0.0,0.0,0.0,0.0,0.0,0.0,0.0,0.0,0.0,0.0,0.0,0.0,0.0,0.0,0.0,0.0,0.0,0.0,0.0,0.0,0.0,0.0,0.0,0.0,0.0,0.0,0.0,0.0,0.0,0.0,0.0,0.0,0.0,0.0,0.0,0.0,0.0,0.0,0.0,0.0,0.0,0.0,0.0,0.0,0.0,0.0,0.0,0.0,0.0,0.0,0.0,0.0,0.0,0.0,0.0,0.0,0.0,0.0,0.0,0.0,0.0,0.0,0.0,0.0,0.0,0.0,0.0,0.0,0.0,0.0,0.0,0.0,0.0,0.0,0.0,0.0,0.0,0.0,0.0,0.0,0.0,0.0,0.0,0.0,0.0,0.0,0.0,0.0,0.0,0.0,0.0,0.0,0.0,0.0,0.0,0.0,0.0,0.0,0.0,0.0,0.0,0.0,0.0,0.0,0.0,0.0,0.0,0.0,0.0,0.0,0.0,0.0,0.0,0.0,0.0,0.0,0.0,0.0,0.0,0.0,0.0,0.0,0.0,0.0,0.0,0.0,0.0,0.0,0.0,0.0,0.0,0.0,0.0,0.0,0.0,0.0,0.0,0.0,0.0,0.0,0.0,0.0,0.0,0.0,0.0,0.0,0.0,0.0,0.0,0.0,0.0,0.0,0.0,0.0,0.0,0.0,0.0,0.0,0.0,0.0,0.0,0.0,0.0,0.0,0.0,0.0,0.0,0.0,0.0,0.0,0.0,0.0,0.0,0.0,0.0,0.0,0.0,0.0,0.0,0.0,0.0,0.0,0.0,0.0,0.0,0.0,0.0,0.0,0.0,0.0,0.0,0.0,0.0,0.0,0.0,0.0,0.0,0.0,0.0,0.0,0.0,0.0,0.0,0.0,0.0,0.0,0.0,0.0,0.0,0.0,0.0,0.0,0.0,0.0,0.0,0.0,0.0,0.0,0.0,0.0,0.0,0.0,0.0,0.0,0.0,0.0,0.0,0.0,0.0,0.0,0.0,0.0,0.0,0.0,0.0,0.0,0.0,0.0,0.0,0.0,0.0,0.0,0.0,0.0,0.0,0.0,0.0,0.0,0.0,0.0,0.0,0.0,0.0,0.0,0.0,0.0,0.0,0.0,0.0,0.0,0.0,0.0,0.0,0.0,0.0,0.0,0.0,0.0,0.0,0.0,0.0,0.0,0.0,0.0,0.0,0.0,0.0,0.0,0.0,0.0,0.0,0.0,0.0,0.0,0.0,0.0,0.0,0.0,0.0,0.0,0.0,0.0,0.0,0.0,0.0,0.0,0.0,0.0,0.0,0.0,0.0,0.0,0.0,0.0,0.0,0.0,0.0,0.0,0.0,0.0,0.0,0.0,0.0,0.0,0.0,0.0,0.0,0.0,0.0,0.0,0.0,0.0,0.0,0.0,0.0,0.0,0.0,0.0,0.0,0.0,0.0,0.0,0.0,0.0,0.0,0.0,0.0,0.0,0.0,0.0,0.0,0.0,0.0,0.0,0.0,0.0,0.0,0.0,0.0,0.0,0.0,0.0,0.0,0.0,0.0,0.0,0.0,0.0,0.0,0.0,0.0,0.0,0.0,0.0,0.0,0.0,0.0,0.0,0.0,0.0,0.0,0.0,0.0,0.0,0.0,0.0,0.0,0.0,0.0,0.0,0.0,0.0,0.0,0.0,0.0,0.0,0.0,0.0,0.0,0.0,0.0,0.0,0.0,0.0,0.0,0.0,0.0,0.0,0.0,0.0,0.0,0.0,0.0,0.0,0.0,0.0,0.0,0.0,0.0,0.0,0.0,0.0,0.0,0.0,0.0,0.0,0.0,0.0,0.0,0.0,0.0,0.0,0.0,0.0,0.0,0.0,0.0,0.0,0.0,0.0,0.0,0.0,0.0,0.0,0.0,0.0,0.0,0.0,0.0,0.6348,0.0,0.0,0.0,0.5127,0.0,0.0,0.0,0.0,0.0,0.0,0.0,0.0,0.0,0.0,0.0,0.0,0.0,0.0,0.0,0.0,0.0,0.0,0.0,0.0,0.0,0.0,0.0,0.0,0.0,0.0,0.0,0.0,0.0,0.0,0.0,0.0,0.0,0.0,0.0,0.0,0.0,0.0,0.0,0.0,0.0,0.0,0.0,0.0,0.0,0.0,0.0,0.0,0.0,0.0,0.0,0.0,0.0,0.0,0.0,0.0,0.0,0.0,0.0,0.0,0.0,0.0,0.0,0.0,0.0,0.0,0.0,0.0,0.0,0.0,0.0,0.0,0.0,0.0,0.0,0.0,0.0,0.0,0.0,0.0,0.0,0.0,0.0,0.0,0.0,0.0,0.0,0.0,0.0,0.0,0.0,0.0,0.0,0.0,0.0,0.0,0.0,0.0,0.0,0.0,0.0,0.0,0.0,0.0,0.0,0.0,0.0,0.0,0.0,0.0,0.682,0.6317,0.6859,0.6607,0.5445,0.0,0.0,0.0,0.0,0.0,0.0,0.0,0.0,0.0,0.0,0.0,0.0,0.0,0.0,0.0,0.0,0.0,0.0,0.0,0.0,0.0,0.0,0.0,0.0,0.0,0.0,0.0,0.0,0.0,0.0,0.0,0.0,0.0,0.0,0.0,0.0,0.0,0.0,0.0,0.0,0.0,0.0,0.0,0.0,0.0,0.0,0.0,0.0,0.0,0.0,0.0,0.0,0.0,0.0,0.0,0.0,0.0,0.0,0.0,0.0,0.0,0.0,0.0,0.0,0.0,0.0,0.0,0.0,0.0,0.0,0.0,0.0,0.0,0.0,0.0,0.0,0.0,0.0,0.0,0.0,0.0,0.0,0.0,0.0,0.0,0.0,0.0,0.0,0.0,0.0,0.0,0.0,0.0,0.0,0.0,0.0,0.0,0.0,0.0,0.0,0.0,0.0,0.0,0.0,0.0,0.0,0.0,0.0,0.0,0.0,0.0,0.0,0.7438,0.7243,0.6174,0.0,0.0,0.0,0.0,0.0,0.0,0.0,0.0,0.0,0.0,0.0,0.0,0.0,0.0,0.0,0.0,0.0,0.0,0.0,0.0,0.0,0.0,0.0,0.0,0.0,0.0,0.0,0.0,0.0,0.0,0.0,0.0,0.0,0.0,0.0,0.0,0.0,0.0,0.0,0.0,0.0,0.0,0.0,0.0,0.0,0.0,0.0,0.0,0.0,0.0,0.0,0.0,0.0,0.0,0.0,0.0,0.0,0.0,0.0,0.0,0.0,0.0,0.0,0.0,0.0,0.0,0.0,0.0,0.0,0.0,0.0,0.0,0.0,0.0,0.0,0.0,0.0,0.0,0.0,0.0,0.0,0.0,0.0,0.0,0.0,0.0,0.0,0.0,0.0,0.0,0.0,0.0,0.0,0.0,0.0,0.0,0.0,0.0,0.0,0.0,0.0,0.0,0.0,0.0,0.0,0.0,0.0,0.0,0.0,0.0,0.7083,0.7584,0.7608,0.0,0.7369,0.0,0.0,0.0,0.0,0.0,0.0,0.0,0.0,0.0,0.0,0.0,0.0,0.0,0.0,0.0,0.0,0.0,0.0,0.0,0.0,0.0,0.0,0.0,0.0,0.0,0.0,0.0,0.0,0.0,0.0,0.0,0.0,0.0,0.0,0.0,0.0,0.0,0.0,0.0,0.0,0.0,0.0,0.0,0.0,0.0,0.0,0.0,0.0,0.0,0.0,0.0,0.0,0.0,0.0,0.0,0.0,0.0,0.0,0.0,0.0,0.0,0.0,0.0,0.0,0.0,0.0,0.0,0.0,0.0,0.0,0.0,0.0,0.0,0.0,0.0,0.0,0.0,0.0,0.0,0.0,0.0,0.0,0.0,0.0,0.0,0.0,0.0,0.0,0.0,0.0,0.0,0.0,0.0,0.0,0.0,0.0,0.0,0.0,0.0,0.0,0.0,0.0,0.0,0.0,0.0,0.0,0.0,0.0,0.0,0.0,0.7958,0.8515,0.7915,0.7356,0.0,0.0,0.0,0.0,0.0,0.0,0.0,0.0,0.0,0.0,0.0,0.0,0.0,0.0,0.0,0.0,0.0,0.0,0.0,0.0,0.0,0.0,0.0,0.0,0.0,0.0,0.0,0.0,0.0,0.0,0.0,0.0,0.0,0.0,0.0,0.0,0.0,0.0,0.0,0.0,0.0,0.0,0.0,0.0,0.0,0.0,0.0,0.0,0.0,0.0,0.0,0.0,0.0,0.0,0.0,0.0,0.0,0.0,0.0,0.0,0.0,0.0,0.0,0.0,0.0,0.0,0.0,0.0,0.0,0.0,0.0,0.0,0.0,0.0,0.0,0.0,0.0,0.0,0.0,0.0,0.0,0.0,0.0,0.0,0.0,0.0,0.0,0.0,0.0,0.0,0.0,0.0,0.0,0.0,0.0,0.0,0.0,0.0,0.0,0.0,0.0,0.0,0.0,0.0,0.0,0.0,0.0,0.0,0.0,0.0,0.8531,0.866,0.9141,0.856,0.7812,0.6925,0.0,0.0,0.0,0.0,0.0,0.0,0.0,0.0,0.0,0.0,0.0,0.0,0.0,0.0,0.0,0.0,0.0,0.0,0.0,0.0,0.0,0.0,0.0,0.0,0.0,0.0,0.0,0.0,0.0,0.0,0.0,0.0,0.0,0.0,0.0,0.0,0.0,0.0,0.0,0.0,0.0,0.0,0.0,0.0,0.0,0.0,0.0,0.0,0.0,0.0,0.0,0.0,0.0,0.0,0.0,0.0,0.0,0.0,0.0,0.0,0.0,0.0,0.0,0.0,0.0,0.0,0.0,0.0,0.0,0.0,0.0,0.0,0.0,0.0,0.0,0.0,0.0,0.0,0.0,0.0,0.0,0.0,0.0,0.0,0.0,0.0,0.0,0.0,0.0,0.0,0.0,0.0,0.0,0.0,0.0,0.0,0.0,0.0,0.0,0.0,0.0,0.0,0.0,0.0,0.0,0.0,0.0,0.0,0.9751,0.9028,0.8875,0.9459,0.9619,0.9288,0.0,0.0,0.0,0.0,0.0,0.0,0.0,0.0,0.0,0.0,0.0,0.0,0.0,0.0,0.0,0.0,0.0,0.0,0.0,0.0,0.0,0.0,0.0,0.0,0.0,0.0,0.0,0.0,0.0,0.0,0.0,0.0,0.0,0.0,0.0,0.0,0.0,0.0,0.0,0.0,0.0,0.0,0.0,0.0,0.0,0.0,0.0,0.0,0.0,0.0,0.0,0.0,0.0,0.0,0.0,0.0,0.0,0.0,0.0,0.0,0.0,0.0,0.0,0.0,0.0,0.0,0.0,0.0,0.0,0.0,0.0,0.0,0.0,0.0,0.0,0.0,0.0,0.0,0.0,0.0,0.0,0.0,0.0,0.0,0.0,0.0,0.0,0.0,0.0,0.0,0.0,0.0,0.0,0.0,0.0,0.0,0.0,0.0,0.0,0.0,0.0,0.0,0.0,0.0,0.0,0.0,0.0,0.0,0.0,0.9427,0.9468,0.9623,0.9843,0.9375,0.8985,0.0,0.0,0.0,0.0,0.0,0.0,0.0,0.0,0.0,0.0,0.0,0.0,0.0,0.0,0.0,0.0,0.0,0.0,0.0,0.0,0.0,0.0,0.0,0.0,0.0,0.0,0.0,0.0,0.0,0.0,0.0,0.0,0.0,0.0,0.0,0.0,0.0,0.0,0.0,0.0,0.0,0.0,0.0,0.0,0.0,0.0,0.0,0.0,0.0,0.0,0.0,0.0,0.0,0.0,0.0,0.0,0.0,0.0,0.0,0.0,0.0,0.0,0.0,0.0,0.0,0.0,0.0,0.0,0.0,0.0,0.0,0.0,0.0,0.0,0.0,0.0,0.0,0.0,0.0,0.0,0.0,0.0,0.0,0.0,0.0,0.0,0.0,0.0,0.0,0.0,0.0,0.0,0.0,0.0,0.0,0.0,0.0,0.0,0.0,0.0,0.0,0.0,0.0,0.0,0.0,0.0,0.0,0.0,0.0,0.985,1.0485,1.0782,1.0629,0.9988,0.9377,0.0,0.0,0.0,0.0,0.0,0.0,0.0,0.0,0.0,0.0,0.0,0.0,0.0,0.0,0.0,0.0,0.0,0.0,0.0,0.0,0.0,0.0,0.0,0.0,0.0,0.0,0.0,0.0,0.0,0.0,0.0,0.0,0.0,0.0,0.0,0.0,0.0,0.0,0.0,0.0,0.0,0.0,0.0,0.0,0.0,0.0,0.0,0.0,0.0,0.0,0.0,0.0,0.0,0.0,0.0,0.0,0.0,0.0,0.0,0.0,0.0,0.0,0.0,0.0,0.0,0.0,0.0,0.0,0.0,0.0,0.0,0.0,0.0,0.0,0.0,0.0,0.0,0.0,0.0,0.0,0.0,0.0,0.0,0.0,0.0,0.0,0.0,0.0,0.0,0.0,0.0,0.0,0.0,0.0,0.0,0.0,0.0,0.0,0.0,0.0,0.0,0.0,0.0,0.0,0.0,0.0,0.0,0.0,0.9949,1.1134,1.2036,1.2222,1.1807,1.1507,1.0623,0.0,0.0,0.0,0.0,0.0,0.0,0.0,0.0,0.0,0.0,0.0,0.0,0.0,0.0,0.0,0.0,0.0,0.0,0.0,0.0,0.0,0.0,0.0,0.0,0.0,0.0,0.0,0.0,0.0,0.0,0.0,0.0,0.0,0.0,0.0,0.0,0.0,0.0,0.0,0.0,0.0,0.0,0.0,0.0,0.0,0.0,0.0,0.0,0.0,0.0,0.0,0.0,0.0,0.0,0.0,0.0,0.0,0.0,0.0,0.0,0.0,0.0,0.0,0.0,0.0,0.0,0.0,0.0,0.0,0.0,0.0,0.0,0.0,0.0,0.0,0.0,0.0,0.0,0.0,0.0,0.0,0.0,0.0,0.0,0.0,0.0,0.0,0.0,0.0,0.0,0.0,0.0,0.0,0.0,0.0,0.0,0.0,0.0,0.0,0.0,0.0,0.0,0.0,0.0,0.0,0.0,0.0,0.0,0.0,1.0568,1.1704,1.2267,1.2128,1.1401,1.0911,0.0,0.0,0.0,0.0,0.0,0.0,0.0,0.0,0.0,0.0,0.0,0.0,0.0,0.0,0.0,0.0,0.0,0.0,0.0,0.0,0.0,0.0,0.0,0.0,0.0,0.0,0.0,0.0,0.0,0.0,0.0,0.0,0.0,0.0,0.0,0.0,0.0,0.0,0.0,0.0,0.0,0.0,0.0,0.0,0.0,0.0,0.0,0.0,0.0,0.0,0.0,0.0,0.0,0.0,0.0,0.0,0.0,0.0,0.0,0.0,0.0,0.0,0.0,0.0,0.0,0.0,0.0,0.0,0.0,0.0,0.0,0.0,0.0,0.0,0.0,0.0,0.0,0.0,0.0,0.0,0.0,0.0,0.0,0.0,0.0,0.0,0.0,0.0,0.0,0.0,0.0,0.0,0.0,0.0,0.0,0.0,0.0,0.0,0.0,0.0,0.0,0.0,0.0,0.0,0.0,0.0,0.0,0.0,0.0,1.2101,1.3202,1.3664,1.33,1.2492,1.1831,1.1323,0.0,0.0,0.0,0.0,0.0,0.0,0.0,0.0,0.0,0.0,0.0,0.0,0.0,0.0,0.0,0.0,0.0,0.0,0.0,0.0,0.0,0.0,0.0,0.0,0.0,0.0,0.0,0.0,0.0,0.0,0.0,0.0,0.0,0.0,0.0,0.0,0.0,0.0,0.0,0.0,0.0,0.0,0.0,0.0,0.0,0.0,0.0,0.0,0.0,0.0,0.0,0.0,0.0,0.0,0.0,0.0,0.0,0.0,0.0,0.0,0.0,0.0,0.0,0.0,0.0,0.0,0.0,0.0,0.0,0.0,0.0,0.0,0.0,0.0,0.0,0.0,0.0,0.0,0.0,0.0,0.0,0.0,0.0,0.0,0.0,0.0,0.0,0.0,0.0,0.0,0.0,0.0,0.0,0.0,0.0,0.0,0.0,0.0,0.0,0.0,0.0,0.0,0.0,0.0,0.0,0.0,0.0,0.0,1.5108,1.6192,1.6199,1.5078,1.4463,1.3273,0.0,0.0,0.0,0.0,0.0,0.0,0.0,0.0,0.0,0.0,0.0,0.0,0.0,0.0,0.0,0.0,0.0,0.0,0.0,0.0,0.0,0.0,0.0,0.0,0.0,0.0,0.0,0.0,0.0,0.0,0.0,0.0,0.0,0.0,0.0,0.0,0.0,0.0,0.0,0.0,0.0,0.0,0.0,0.0,0.0,0.0,0.0,0.0,0.0,0.0,0.0,0.0,0.0,0.0,0.0,0.0,0.0,0.0,0.0,0.0,0.0,0.0,0.0,0.0,0.0,0.0,0.0,0.0,0.0,0.0,0.0,0.0,0.0,0.0,0.0,0.0,0.0,0.0,0.0,0.0,0.0,0.0,0.0,0.0,0.0,0.0,0.0,0.0,0.0,0.0,0.0,0.0,0.0,0.0,0.0,0.0,0.0,0.0,0.0,0.0,0.0,0.0,0.0,0.0,0.0,0.0,0.0,0.0,0.0,1.6692,1.793,1.7778,1.6092,1.4851,1.3938,0.0,0.0,0.0,0.0,0.0,0.0,0.0,0.0,0.0,0.0,0.0,0.0,0.0,0.0,0.0,0.0,0.0,0.0,0.0,0.0,0.0,0.0,0.0,0.0,0.0,0.0,0.0,0.0,0.0,0.0,0.0,0.0,0.0,0.0,0.0,0.0,0.0,0.0,0.0,0.0,0.0,0.0,0.0,0.0,0.0,0.0,0.0,0.0,0.0,0.0,0.0,0.0,0.0,0.0,0.0,0.0,0.0,0.0,0.0,0.0,0.0,0.0,0.0,0.0,0.0,0.0,0.0,0.0,0.0,0.0,0.0,0.0,0.0,0.0,0.0,0.0,0.0,0.0,0.0,0.0,0.0,0.0,0.0,0.0,0.0,0.0,0.0,0.0,0.0,0.0,0.0,0.0,0.0,0.0,0.0,0.0,0.0,0.0,0.0,0.0,0.0,0.0,0.0,0.0,0.0,0.0,0.0,0.0,1.6286,1.8064,1.9037,1.9232,1.8675,1.6761,1.5408,0.0,0.0,0.0,0.0,0.0,0.0,0.0,0.0,0.0,0.0,0.0,0.0,0.0,0.0,0.0,0.0,0.0,0.0,0.0,0.0,0.0,0.0,0.0,0.0,0.0,0.0,0.0,0.0,0.0,0.0,0.0,0.0,0.0,0.0,0.0,0.0,0.0,0.0,0.0,0.0,0.0,0.0,0.0,0.0,0.0,0.0,0.0,0.0,0.0,0.0,0.0,0.0,0.0,0.0,0.0,0.0,0.0,0.0,0.0,0.0,0.0,0.0,0.0,0.0,0.0,0.0,0.0,0.0,0.0,0.0,0.0,0.0,0.0,0.0,0.0,0.0,0.0,0.0,0.0,0.0,0.0,0.0,0.0,0.0,0.0,0.0,0.0,0.0,0.0,0.0,0.0,0.0,0.0,0.0,0.0,0.0,0.0,0.0,0.0,0.0,0.0,0.0,0.0,0.0,0.0,0.0,0.0,0.0,1.7017,1.9159,1.9683,2.054,2.1752,1.93,1.7172,0.0,0.0,0.0,0.0,0.0,0.0,0.0,0.0,0.0,0.0,0.0,0.0,0.0,0.0,0.0,0.0,0.0,0.0,0.0,0.0,0.0,0.0,0.0,0.0,0.0,0.0,0.0,0.0,0.0,0.0,0.0,0.0,0.0,0.0,0.0,0.0,0.0,0.0,0.0,0.0,0.0,0.0,0.0,0.0,0.0,0.0,0.0,0.0,0.0,0.0,0.0,0.0,0.0,0.0,0.0,0.0,0.0,0.0,0.0,0.0,0.0,0.0,0.0,0.0,0.0,0.0,0.0,0.0,0.0,0.0,0.0,0.0,0.0,0.0,0.0,0.0,0.0,0.0,0.0,0.0,0.0,0.0,0.0,0.0,0.0,0.0,0.0,0.0,0.0,0.0,0.0,0.0,0.0,0.0,0.0,0.0,0.0,0.0,0.0,0.0,0.0,0.0,0.0,0.0,0.0,0.0,0.0,0.0,1.819,1.9409,2.0143,2.1134,2.2462,1.9505,1.7697,0.0,0.0,0.0,0.0,0.0,0.0,0.0,0.0,0.0,0.0,0.0,0.0,0.0,0.0,0.0,0.0,0.0,0.0,0.0,0.0,0.0,0.0,0.0,0.0,0.0,0.0,0.0,0.0,0.0,0.0,0.0,0.0,0.0,0.0,0.0,0.0,0.0,0.0,0.0,0.0,0.0,0.0,0.0,0.0,0.0,0.0,0.0,0.0,1.3301,0.0,0.0,0.0,0.0,0.0,0.0,0.0,0.0,0.0,0.0,0.0,0.0,0.0,0.0,0.0,0.0,0.0,0.0,0.0,0.0,0.0,0.0,0.0,0.0,0.0,0.0,0.0,0.0,0.0,0.0,0.0,0.0,0.0,0.0,0.0,0.0,0.0,0.0,0.0,0.0,0.0,0.0,0.0,0.0,0.0,0.0,0.0,0.0,0.0,0.0,0.0,0.0,0.0,0.0,0.0,0.0,0.0,0.0,0.0,1.9073,2.0256,2.0828,2.1861,2.337,2.1346,1.9558,0.0,0.0,0.0,0.0,0.0,0.0,0.0,0.0,0.0,0.0,0.0,0.0,0.0,0.0,0.0,0.0,0.0,0.0,0.0,0.0,0.0,0.0,0.0,0.0,0.0,0.0,0.0,0.0,0.0,0.0,0.0,0.0,0.0,0.0,0.0,0.0,0.0,0.0,0.0,0.0,0.0,0.0,0.0,0.0,0.0,0.0,0.0,0.0,0.0,0.0,0.0,0.0,0.0,0.0,0.0,0.0,0.0,0.0,0.0,0.0,0.0,0.0,0.0,0.0,0.0,0.0,0.0,0.0,0.0,0.0,0.0,0.0,0.0,0.0,0.0,0.0,0.0,0.0,0.0,0.0,0.0,0.0,0.0,0.0,0.0,0.0,0.0,0.0,0.0,0.0,0.0,0.0,0.0,0.0,0.0,0.0,0.0,0.0,0.0,0.0,0.0,0.0,0.0,0.0,0.0,0.0,0.0,1.829,1.9678,2.1183,2.1496,2.255,2.4403,2.3419,2.162,1.9101,0.0,0.0,0.0,0.0,0.0,0.0,0.0,0.0,0.0,0.0,0.0,0.0,0.0,0.0,0.0,0.0,0.0,0.0,0.0,0.0,0.0,0.0,0.0,0.0,0.0,0.0,0.0,0.0,0.0,0.0,0.0,0.0,0.0,0.0,0.0,0.0,0.0,0.0,1.1096,1.1867,0.0,0.0,0.0,0.0,0.0,0.0,0.0,0.0,1.2778,0.0,0.0,0.0,0.0,0.0,0.0,0.0,0.0,0.0,0.0,0.0,0.0,0.0,0.0,0.0,0.0,0.0,0.0,0.0,0.0,0.0,0.0,0.0,0.0,0.0,0.0,0.0,0.0,0.0,0.0,0.0,0.0,0.0,0.0,0.0,0.0,0.0,0.0,0.0,0.0,0.0,0.0,0.0,0.0,0.0,0.0,0.0,0.0,0.0,0.0,0.0,0.0,0.0,0.0,0.0,0.0,1.8571,1.8872,1.9783,2.1418,2.1923,2.2911,2.4404,2.3766,2.2223,1.9917,0.0,0.0,0.0,0.0,0.0,0.0,0.0,0.0,0.0,0.0,0.0,0.0,0.0,0.0,0.0,0.0,0.0,0.0,0.0,0.0,0.0,0.0,0.0,0.0,0.0,0.0,0.0,0.0,0.0,0.0,0.0,0.0,0.0,0.0,0.0,0.0,0.0,0.0,0.0,1.4306,1.4488,0.0,0.0,0.0,0.0,0.0,0.0,0.0,0.0,1.3465,0.0,0.0,0.0,0.0,0.0,0.0,0.0,0.0,0.0,0.0,0.0,0.0,0.0,0.0,0.0,0.0,0.0,0.0,0.0,0.0,0.0,0.0,0.0,0.0,0.0,0.0,0.0,0.0,0.0,0.0,0.0,0.0,0.0,0.0,0.0,0.0,0.0,0.0,0.0,0.0,0.0,0.0,0.0,0.0,0.0,0.0,0.0,0.0,0.0,0.0,0.0,0.0,0.0,0.0,0.0,1.8963,2.0592,2.1943,2.2905,2.2803,2.3428,2.486,2.4003,2.2573,0.0,0.0,0.0,0.0,0.0,0.0,0.0,0.0,0.0,0.0,0.0,0.0,0.0,0.0,0.0,0.0,0.0,0.0,0.0,0.0,0.0,0.0,0.0,0.0,0.0,0.0,0.0,0.0,0.0,0.0,0.0,0.0,0.0,0.0,0.0,0.0,0.0,0.0,0.0,0.0,1.5155,1.5757,1.6781,0.0,0.0,0.0,0.0,0.0,0.0,1.4743,1.3891,0.0,0.0,0.0,0.0,0.0,0.0,0.0,0.0,0.0,0.0,0.0,0.0,0.0,0.0,0.0,0.0,0.0,0.0,0.0,0.0,0.0,0.0,0.0,0.0,0.0,0.0,0.0,0.0,0.0,0.0,0.0,0.0,0.0,0.0,0.0,0.0,0.0,0.0,0.0,0.0,0.0,0.0,0.0,0.0,0.0,0.0,0.0,0.0,0.0,0.0,0.0,0.0,0.0,0.0,0.0,1.9095,2.1805,2.3659,2.4371,2.3692,2.4075,2.5673,2.4319,2.2842,0.0,0.0,0.0,0.0,0.0,0.0,0.0,0.0,0.0,0.0,0.0,0.0,0.0,0.0,0.0,0.0,0.0,0.0,0.0,0.0,0.0,0.0,0.0,0.0,0.0,0.0,0.0,0.0,0.0,0.0,0.0,0.0,0.0,0.0,0.0,0.0,0.0,0.0,0.0,0.0,0.0,1.686,1.7943,1.7251,0.0,0.0,0.0,0.0,1.7142,1.6227,0.0,0.0,0.0,0.0,0.0,0.0,0.0,0.0,0.0,0.0,0.0,0.0,0.0,0.0,0.0,0.0,0.0,0.0,0.0,0.0,0.0,0.0,0.0,0.0,0.0,0.0,0.0,0.0,0.0,0.0,0.0,0.0,0.0,0.0,0.0,0.0,0.0,0.0,0.0,0.0,0.0,0.0,0.0,0.0,0.0,0.0,0.0,0.0,0.0,0.0,0.0,0.0,0.0,0.0,0.0,0.0,1.9133,2.0879,2.2825,2.4856,2.428,2.487,2.6886,2.4843,2.3168,0.0,0.0,0.0,0.0,0.0,0.0,0.0,0.0,0.0,0.0,0.0,0.0,0.0,0.0,0.0,0.0,0.0,0.0,0.0,0.0,0.0,0.0,0.0,0.0,0.0,0.0,0.0,0.0,0.0,0.0,0.0,0.0,0.0,0.0,0.0,0.0,0.0,0.0,0.0,0.0,0.0,1.8044,1.9305,1.8458,1.7871,0.0,0.0,1.9913,1.995,2.0223,0.0,0.0,0.0,0.0,0.0,0.0,0.0,0.0,0.0,0.0,0.0,0.0,0.0,0.0,0.0,0.0,0.0,0.0,0.0,0.0,0.0,0.0,0.0,0.0,0.0,0.0,0.0,0.0,0.0,0.0,0.0,0.0,0.0,0.0,0.0,0.0,0.0,0.0,0.0,0.0,0.0,0.0,0.0,0.0,0.0,0.0,0.0,0.0,0.0,0.0,0.0,0.0,0.0,0.0,0.0,1.9155,2.0387,2.288,2.486,2.6178,2.5078,2.5101,2.6415,2.4682,2.3008,0.0,0.0,0.0,0.0,0.0,0.0,0.0,0.0,0.0,0.0,0.0,0.0,0.0,0.0,0.0,0.0,0.0,0.0,0.0,0.0,0.0,0.0,0.0,0.0,0.0,0.0,0.0,0.0,0.0,0.0,0.0,0.0,0.0,0.0,0.0,0.0,0.0,0.0,0.0,0.0,0.0,0.0,2.1328,2.0834,0.0,0.0,0.0,2.1536,2.1676,0.0,0.0,0.0,0.0,0.0,0.0,0.0,0.0,0.0,0.0,0.0,0.0,0.0,0.0,0.0,0.0,0.0,0.0,0.0,0.0,0.0,0.0,0.0,0.0,0.0,0.0,0.0,0.0,0.0,0.0,0.0,0.0,0.0,0.0,0.0,0.0,0.0,0.0,0.0,0.0,0.0,0.0,0.0,0.0,0.0,0.0,0.0,0.0,0.0,0.0,0.0,0.0,0.0,0.0,0.0,0.0,0.0,2.1334,2.4894,2.7068,2.7682,2.6138,2.5742,2.6632,2.5368,0.0,0.0,0.0,0.0,0.0,0.0,0.0,0.0,0.0,0.0,0.0,0.0,0.0,0.0,0.0,0.0,0.0,0.0,0.0,0.0,0.0,0.0,0.0,0.0,0.0,0.0,0.0,1.2437,0.0,0.0,0.0,0.0,0.0,0.0,0.0,0.0,0.0,0.0,0.0,0.0,0.0,0.0,2.1305,2.3007,2.2994,2.3268,0.0,0.0,2.3457,2.3865,2.4451,2.398,0.0,0.0,0.0,0.0,0.0,0.0,0.0,0.0,0.0,0.0,0.0,0.0,0.0,0.0,0.0,0.0,0.0,0.0,0.0,0.0,0.0,0.0,0.0,0.0,0.0,0.0,0.0,0.0,0.0,0.0,0.0,0.0,0.0,0.0,0.0,0.0,0.0,0.0,0.0,0.0,0.0,0.0,0.0,0.0,0.0,0.0,0.0,0.0,0.0,0.0,0.0,0.0,0.0,0.0,2.1329,2.1621,2.5953,2.8541,2.9085,2.7573,2.7416,2.8711,2.77,2.5507,0.0,0.0,0.0,0.0,0.0,0.0,0.0,0.0,0.0,0.0,0.0,0.0,0.0,0.0,0.0,0.0,0.0,0.0,0.0,0.0,0.0,0.0,0.0,0.0,0.0,0.0,0.0,0.0,0.0,0.0,0.0,0.0,0.0,0.0,0.0,0.0,0.0,0.0,0.0,0.0,0.0,2.1564,2.3894,2.4264,2.5061,0.0,2.6768,2.6553,2.7151,2.8213,2.7302,2.23,0.0,0.0,0.0,0.0,0.0,0.0,0.0,0.0,0.0,0.0,0.0,0.0,0.0,0.0,0.0,0.0,0.0,0.0,0.0,0.0,0.0,0.0,0.0,0.0,0.0,0.0,0.0,0.0,0.0,0.0,0.0,0.0,0.0,0.0,0.0,0.0,0.0,0.0,0.0,0.0,0.0,0.0,0.0,0.0,0.0,0.0,0.0,0.0,0.0,0.0,0.0,0.0,0.0,2.1659,2.2157,2.6625,2.9433,3.0368,2.9386,2.9273,3.0224,2.9681,2.7631,0.0,0.0,0.0,0.0,0.0,0.0,0.0,0.0,0.0,0.0,0.0,0.0,0.0,0.0,0.0,0.0,0.0,0.0,0.0,0.0,0.0,0.0,0.0,0.0,0.0,0.0,0.0,0.0,1.6407,1.6543,1.5764,0.0,0.0,0.0,0.0,0.0,0.0,0.0,0.0,0.0,0.0,2.4941,2.7238,2.7932,0.0,0.0,2.8846,2.8244,2.769,2.798,2.7206,2.4036,2.2243,0.0,0.0,0.0,0.0,0.0,0.0,0.0,0.0,0.0,0.0,0.0,0.0,0.0,0.0,0.0,0.0,0.0,0.0,0.0,0.0,0.0,0.0,0.0,0.0,0.0,0.0,0.0,0.0,0.0,0.0,0.0,0.0,0.0,0.0,0.0,0.0,0.0,0.0,0.0,0.0,0.0,0.0,0.0,0.0,0.0,0.0,0.0,0.0,0.0,0.0,0.0,0.0,2.2463,2.3192,2.8026,3.0984,3.1854,3.1082,3.0876,3.1335,3.1168,2.9406,0.0,0.0,0.0,0.0,0.0,0.0,0.0,0.0,0.0,0.0,0.0,0.0,0.0,0.0,0.0,0.0,0.0,0.0,0.0,0.0,0.0,0.0,0.0,0.0,0.0,0.0,0.0,0.0,1.741,1.741,1.6537,0.0,0.0,0.0,0.0,0.0,0.0,0.0,0.0,0.0,0.0,2.7498,2.9328,2.9789,2.9911,2.9744,2.8812,2.7863,2.7225,2.7375,2.7025,2.528,0.0,0.0,0.0,0.0,0.0,0.0,0.0,0.0,0.0,0.0,0.0,0.0,0.0,0.0,0.0,0.0,0.0,0.0,0.0,0.0,0.0,0.0,0.0,0.0,0.0,0.0,0.0,1.4444,0.0,0.0,1.3562,0.0,0.0,0.0,0.0,0.0,0.0,0.0,0.0,0.0,0.0,0.0,0.0,0.0,0.0,0.0,0.0,0.0,0.0,0.0,0.0,0.0,0.0,2.3863,2.4805,3.0396,3.3403,3.3452,3.2624,3.2173,3.2216,3.219,3.0752,2.7632,0.0,0.0,0.0,0.0,0.0,0.0,0.0,0.0,0.0,0.0,0.0,0.0,0.0,0.0,0.0,0.0,0.0,0.0,0.0,0.0,0.0,0.0,0.0,0.0,0.0,0.0,1.4612,1.6056,1.7239,0.0,0.0,0.0,0.0,0.0,0.0,0.0,0.0,0.0,2.3158,2.6228,2.8506,2.9463,2.9071,2.8628,2.8206,2.6273,2.5116,2.5991,2.6916,2.7111,0.0,0.0,0.0,0.0,0.0,0.0,0.0,0.0,0.0,0.0,0.0,0.0,0.0,0.0,0.0,0.0,0.0,0.0,0.0,0.0,0.0,0.0,0.0,0.0,0.0,0.0,0.0,1.7004,1.6674,0.0,0.0,0.0,0.0,0.0,0.0,0.0,0.0,0.0,0.0,0.0,2.3966,2.3711,0.0,0.0,0.0,0.0,0.0,0.0,0.0,0.0,0.0,0.0,0.0,0.0,2.4773,2.583,3.134,3.4506,3.4866,3.4134,3.3957,3.4401,3.4416,3.2731,2.9227,0.0,0.0,0.0,0.0,0.0,0.0,0.0,0.0,0.0,0.0,0.0,0.0,0.0,0.0,0.0,0.0,0.0,0.0,0.0,0.0,0.0,0.0,0.0,0.0,0.0,1.7148,0.0,0.0,0.0,0.0,0.0,0.0,0.0,0.0,0.0,0.0,2.0843,2.3026,2.5916,2.7269,2.8441,2.9612,2.9709,2.9667,0.0,0.0,0.0,0.0,0.0,0.0,0.0,0.0,0.0,0.0,0.0,0.0,0.0,0.0,2.2547,1.951,1.91,1.9249,1.9414,0.0,0.0,0.0,0.0,0.0,0.0,0.0,0.0,0.0,0.0,0.0,0.0,0.0,0.0,2.0595,1.9819,2.0061,0.0,0.0,0.0,0.0,0.0,0.0,0.0,0.0,2.5547,2.6932,2.7833,2.7568,2.7211,2.6715,2.5017,2.2843,0.0,0.0,0.0,0.0,0.0,0.0,0.0,0.0,2.6333,2.8022,3.2846,3.5692,3.626,3.5565,3.5489,3.6148,3.5968,3.458,3.195,2.97,2.7287,0.0,0.0,0.0,0.0,0.0,0.0,0.0,0.0,0.0,0.0,0.0,0.0,0.0,0.0,0.0,0.0,0.0,0.0,0.0,0.0,0.0,0.0,0.0,1.8734,0.0,0.0,0.0,0.0,0.0,0.0,0.0,0.0,0.0,2.2329,2.3926,2.5955,2.8304,2.9319,2.9907,3.0083,0.0,0.0,0.0,0.0,0.0,0.0,0.0,2.6726,2.7414,2.6552,2.6221,2.7575,2.8067,2.7742,2.6152,0.0,0.0,2.2732,2.2107,2.2245,2.2418,2.2671,2.2764,2.2498,2.2951,2.327,0.0,0.0,0.0,0.0,2.4335,0.0,0.0,0.0,2.6017,2.5001,0.0,2.4467,0.0,0.0,0.0,0.0,2.1897,2.4758,0.0,0.0,3.1103,3.1852,3.0754,3.1084,3.1279,3.113,2.8916,2.7784,2.7488,2.4374,0.0,0.0,0.0,0.0,0.0,0.0,2.863,3.1615,3.5002,3.708,3.7725,3.6932,3.6791,3.733,3.6821,3.6178,3.5462,3.2702,3.0175,2.804,2.3666,0.0,0.0,0.0,0.0,0.0,0.0,0.0,0.0,0.0,0.0,0.0,0.0,0.0,0.0,0.0,0.0,0.0,0.0,0.0,0.0,1.9848,0.0,0.0,0.0,0.0,0.0,0.0,0.0,0.0,0.0,2.5933,2.5266,2.6645,2.8441,3.0205,0.0,0.0,0.0,0.0,3.1381,2.8607,2.7384,2.6578,2.5781,2.7847,2.9835,3.0616,0.0,0.0,3.0849,3.0637,3.0002,2.7865,2.8966,2.9386,2.6645,2.5353,2.4846,2.5239,2.5041,2.4823,2.5242,2.5734,2.6115,3.1809,0.0,0.0,0.0,0.0,2.8969,2.985,3.1951,3.0781,2.9818,2.9047,2.8636,0.0,0.0,0.0,0.0,0.0,0.0,2.9656,3.1939,3.2895,3.4155,3.5738,3.5354,3.5169,3.51,3.3487,3.2654,3.2567,3.1073,2.6819,2.009,0.0,0.0,0.0,0.0,3.169,3.4516,3.6975,3.856,3.9232,3.7868,3.724,3.7404,3.724,3.6836,3.6222,3.5377,3.3427,3.0262,2.7911,0.0,0.0,0.0,0.0,0.0,0.0,0.0,0.0,0.0,0.0,0.0,0.0,0.0,0.0,0.0,0.0,0.0,0.0,0.0,1.7969,2.056,2.1991,0.0,0.0,0.0,0.0,0.0,0.0,0.0,0.0,0.0,2.9792,2.955,2.9497,0.0,0.0,2.9783,2.8154,2.9622,3.0752,3.0449,3.0786,0.0,3.0518,3.0173,3.0237,3.1025,3.2444,3.2877,3.1093,3.1551,3.1785,3.0419,3.0687,3.0749,3.0088,2.9312,2.8777,2.8549,2.8638,2.8715,2.8537,2.8613,2.8816,3.8978,3.7463,3.4141,3.3388,3.4372,3.3353,3.4084,3.5934,3.5135,3.4112,3.3025,3.3098,3.1464,2.8609,2.8164,0.0,0.0,0.0,3.3199,3.557,3.5385,3.6231,3.7814,3.7451,3.7211,3.7087,3.5219,3.4695,3.5421,3.374,3.0121,2.4745,0.0,2.6179,2.6725,3.103,3.4682,3.7458,3.9002,3.9914,4.0271,3.8925,3.8212,3.8197,3.7943,3.7494,3.6866,3.6626,3.5212,3.2491,3.0725,2.8648,0.0,0.0,0.0,0.0,0.0,0.0,0.0,0.0,0.0,0.0,0.0,1.8676,1.7313,0.0,0.0,0.0,2.1033,2.1082,2.1654,2.3529,0.0,0.0,0.0,0.0,0.0,0.0,0.0,2.7367,2.9624,3.1594,3.291,3.241,3.1944,3.2058,3.202,3.1515,3.011,0.0,3.2438,3.2383,3.2525,3.2526,3.219,3.1924,3.1971,3.256,3.327,3.3365,3.2096,3.2454,3.2613,3.194,3.1712,3.1637,3.1424,3.1298,3.1085,3.0545,3.0683,3.0783,3.0482,3.0419,3.0532,4.5395,4.5205,3.7489,3.5738,3.7972,3.7309,3.7777,3.8986,3.8894,3.7799,3.6147,3.7398,3.5712,3.1941,3.2039,0.0,3.5598,3.5978,3.7079,3.878,3.8308,3.8091,3.8091,3.8075,3.807,3.8012,3.5435,3.5152,3.6812,3.4091,3.2295,3.1624,3.1795,3.2174,3.2768,3.4818,3.7346,4.0238,4.0827,4.105,4.088,3.9914,3.9388,3.9373,3.8796,3.8167,3.7509,3.6881,3.5968,3.4683,3.2549,3.0823,2.9593,0.0,0.0,0.0,0.0,0.0,0.0,0.0,0.0,0.0,0.0,0.0,0.0,0.0,0.0,2.4307,2.6306,0.0,2.7947,2.7679,0.0,0.0,0.0,2.6092,2.7312,2.8596,2.9811,3.1018,0.0,0.0,3.4879,3.5075,3.5299,3.5746,3.6148,3.5956,3.4608,3.5204,3.556,3.4212,3.3353,3.2563,3.2283,3.309,3.3968,3.4202,3.4581,3.4087,3.3229,3.3066,3.2872,3.2378,3.229,3.2152,3.1612,3.1964,3.2127,3.1625,3.1486,3.1436,3.1364,3.1298,3.1323,4.5358,4.5718,4.3722,4.292,4.2941,4.2356,4.1998,4.1669,4.0771,4.0089,3.9617,3.8986,3.8166,3.7191,3.7757,3.8362,3.8945,3.904,3.932,3.9742,3.9645,3.9588,3.9588,3.9588,3.986,4.0294,3.9152,3.9105,3.9991,3.8102,3.6722,3.5938,3.5989,3.4933,3.2879,3.5462,3.8299,4.118,4.0739,4.0593,4.0716,3.9859,3.9388,3.9388,3.926,3.8856,3.8167,3.7539,3.6821,3.6061,3.5034,3.4288,3.3736,2.9165,0.0,0.0,0.0,0.0,0.0,0.0,0.0,0.0,0.0,2.3472,2.0573,0.0,2.3547,0.0,2.8789,2.9637,2.7272,2.8798,0.0,0.0,2.9026,2.9492,3.1288,3.2581,3.3276,3.3198,3.4726,3.5916,3.617,3.6685,3.7402,3.8272,3.6982,3.5364,3.4039,3.5669,3.6663,3.5675,3.5843,3.5881,3.4166,3.3593,3.3421,3.3475,3.3471,3.3398,3.3167,3.3124,3.3018,3.2893,3.2867,3.2847,3.2709,3.2792,3.2817,3.2667,3.2328,3.1888,3.1486,3.1399,3.1512,4.6663,4.6966,4.6966,4.6507,4.5718,4.5075,4.439,4.3682,4.2732,4.219,4.1908,4.1226,4.1037,4.1283,4.1698,4.2014,4.223,4.1729,4.1475,4.1467,4.1206,4.1077,4.1094,4.1077,4.1288,4.1651,4.0956,4.0821,4.1132,4.0206,3.9125,3.7996,3.8607,3.7778,3.5709,3.7219,3.8766,4.0172,4.0604,4.0952,4.1251,4.0413,3.9187,3.7575,3.8374,3.7918,3.5992,3.6161,3.5904,3.5048,3.4452,3.4017,3.3654,3.065,2.8903,0.0,0.0,0.0,0.0,0.0,0.0,0.0,0.0,0.0,0.0,0.0,2.6438,2.7296,3.0525,3.1513,2.8848,3.1051,3.258,3.2491,3.2747,3.3457,3.4767,3.5501,3.5889,3.5911,3.6809,3.7571,3.7807,3.8217,3.8692,3.9334,3.7792,3.6365,3.5668,3.6335,3.6513,3.5593,3.555,3.5373,3.4108,3.3471,3.3124,3.3124,3.3124,3.3124,3.3124,3.3124,3.3124,3.3124,3.3124,3.3124,3.3124,3.3124,3.3124,3.3086,3.283,3.2503,3.2202,3.2152,3.2252,4.8132,4.8191,4.8249,4.7902,4.7186,4.6507,4.5825,4.516,4.4399,4.374,4.3185,4.3168,4.3426,4.3862,4.3971,4.4241,4.4568,4.3623,4.3168,4.3061,4.2533,4.2303,4.2303,4.2303,4.2354,4.2395,4.1788,4.1529,4.16,4.1411,4.0545,3.9203,4.0186,4.0151,3.902,3.9142,3.9129,3.8917,4.0363,4.128,4.1563,4.0556,3.8442,3.5385,3.6961,3.6569,3.3552,3.4463,3.4635,3.3689,3.3176,3.286,3.2754,3.2065,3.1028,0.0,2.87,0.0,0.0,0.0,0.0,0.0,0.0,0.0,0.0,3.0129,3.0039,2.9187,3.2057,3.3352,3.1925,3.3955,3.5495,3.5911,3.6586,3.7166,3.7499,3.7614,3.7883,3.8452,3.8527,3.8751,3.926,3.9388,3.9388,3.909,3.8332,3.7465,3.7258,3.6648,3.5917,3.4869,3.3797,3.3398,3.324,3.3167,3.3124,3.3124,3.3124,3.3124,3.3124,3.3124,3.3124,3.3124,3.3124,3.3124,3.3124,3.3124,3.3124,3.3124,3.3086,3.3074,3.3048,3.3023,3.3124,4.7088,4.7596,4.8094,4.8214,4.8048,4.7921,4.7038,4.568,4.4589,4.3504,4.2507,4.2481,4.2542,4.268,4.32,4.3224,4.2842,4.3143,4.2986,4.2454,4.2366,4.2303,4.2303,4.2303,4.2608,4.3139,4.3063,4.3311,4.3934,4.3221,4.2328,4.1319,4.1001,3.9947,3.8288,0.0,0.0,0.0,3.9875,3.9561,3.9331,3.7479,3.6045,3.5164,3.6574,0.0,3.6409,3.6093,3.5995,3.6027,3.6039,0.0,0.0,0.0,0.0,0.0,0.0,0.0,0.0,0.0,0.0,0.0,3.2648,3.2174,3.0551,3.1669,3.2613,3.2863,3.4364,3.5578,3.6142,3.7117,3.7548,3.7169,3.8157,3.8706,3.8302,3.8676,3.9095,3.92,3.9215,3.9224,3.9358,3.9388,3.9068,3.8345,3.7942,3.7112,3.5574,3.5868,3.5774,3.4856,3.3755,3.3124,3.3124,3.3124,3.3124,3.3124,3.3124,3.3124,3.3124,3.3124,3.3124,3.3124,3.3124,3.3124,3.3124,3.3124,3.3124,3.3124,3.3124,3.3124,3.3124,3.3124,3.3124,4.6778,4.7446,4.7718,4.8035,0.0,4.8324,4.7847,4.6983,4.5777,4.4565,4.3474,4.3729,4.387,4.3897,4.4241,4.4216,4.387,4.3914,4.3763,4.3447,4.342,4.342,4.343,4.3447,4.3623,4.3978,4.3995,4.4198,4.4553,4.4167,4.3489,4.2579,4.2248,4.1564,4.0631,4.1774,4.215,4.1738,4.1188,4.0953,4.0959,3.9928,3.818,3.5913,3.7375,0.0,0.0,0.0,0.0,0.0,0.0,0.0,0.0,3.6916,0.0,3.6848,3.4858,3.3889,3.4527,3.4627,3.5495,3.7427,3.7369,3.6465,3.4738,3.5328,3.5938,3.6212,3.6723,3.7248,3.7838,3.8497,3.8751,3.8482,3.9005,3.926,3.9005,3.9215,3.9388,3.9388,3.9388,3.9388,3.9388,3.9388,3.9192,3.8657,3.8107,3.7242,3.5788,3.544,3.5088,3.4079,3.3513,3.3124,3.3124,3.3124,3.3124,3.3124,3.3124,3.3124,3.3124,3.3124,3.3124,3.3124,3.3124,3.3124,3.3124,3.3124,3.3124,3.3124,3.3124,3.3124,3.3124,3.3124,3.3124,4.6618,4.7237,4.7363,4.7756,4.8287,4.8191,4.8015,4.7756,4.6801,0.0,0.0,4.5142,4.5346,4.5329,4.5477,4.5433,4.532,4.4934,4.4709,4.4598,4.4598,4.4598,4.4598,4.4598,4.4598,4.4598,4.4598,4.4598,4.4598,4.4598,4.4253,4.3575,4.3532,4.3515,4.3562,4.4253,4.4071,4.3053,4.256,4.2436,4.2721,4.2506,4.0549,3.6705,3.8316,3.7777,3.4769,3.5587,3.6305,3.6674,3.6381,3.6779,3.795,3.7961,3.8002,3.81,3.7781,3.8126,3.9237,3.9204,4.0062,4.2145,4.1047,3.9967,3.9238,3.881,3.8629,3.8719,3.8659,3.8556,3.8586,3.908,3.9388,3.9388,3.9388,3.9388,3.9388,3.9388,3.9388,3.9388,3.9388,3.9388,3.9388,3.9388,3.9301,3.9031,3.8308,3.7305,3.6146,3.5007,3.415,3.3368,3.3154,3.3124,3.3124,3.3124,3.3124,3.3124,3.3124,3.3124,3.3124,3.3124,3.3124,3.3124,3.3124,3.3124,3.3124,3.3124,3.3124,3.3124,3.3124,3.3124,3.3124,3.3124,3.3124,4.6007,4.6594,4.7172,4.7756,4.8267,4.7756,4.6927,4.5915,4.624,4.5707,4.4598,4.4709,4.472,4.4748,4.5267,4.5205,4.4776,4.5152,4.5089,4.4598,4.4598,4.4598,4.4598,4.4598,4.4598,4.4598,4.4598,4.4598,4.4598,4.4598,4.4542,4.4412,4.4412,4.4412,4.4429,4.4542,4.4496,4.4281,4.1997,4.0721,4.0542,3.9429,3.8435,3.7619,3.8226,3.8331,3.7801,3.7279,3.7178,3.7511,3.8172,3.9195,4.0704,4.0771,4.1283,4.2232,4.1107,4.0426,4.0601,4.0057,4.0402,4.2017,4.1887,4.1389,4.0653,3.927,3.8672,3.9228,3.9257,3.9275,3.9254,3.9313,3.9388,3.9388,3.9388,3.9388,3.9388,3.9388,3.9388,3.9388,3.9388,3.9388,3.9388,3.9388,3.9068,3.8308,3.8089,3.7193,3.5562,3.3982,3.3356,3.3167,3.3124,3.3124,3.3237,3.3093,3.3199,3.3124,3.3131,3.3194,3.3199,3.3237,3.325,3.3149,3.3212,3.3162,3.3162,3.3124,3.3124,3.3124,3.3124,3.3124,3.3124,3.3124,3.3124,4.5372,4.5947,4.6594,4.7237,4.7777,4.753,4.6864,4.6014,4.5933,4.5433,4.4626,4.4598,4.4598,4.4626,4.4879,4.4869,4.4615,4.4879,4.4869,4.4598,4.4598,4.4598,4.4598,4.4598,4.4598,4.4598,4.4598,4.4598,4.4598,4.4598,4.4598,4.4598,4.4598,4.4598,4.4598,4.4598,4.4598,4.4564,4.3352,4.2656,4.2523,4.1942,4.1334,4.0779,4.0943,4.0591,3.966,3.9313,3.917,3.933,3.9706,4.0686,4.2307,4.1969,4.1992,4.2518,4.1453,4.0791,4.0775,4.0928,4.1307,4.2002,4.2028,4.1869,4.1518,4.036,3.9586,3.9415,3.9388,3.9388,3.9388,3.9388,3.9388,3.9388,3.9388,3.9388,3.9388,3.9388,3.9388,3.9388,3.9388,3.9388,3.9388,3.9388,3.9265,3.8738,3.8518,3.7838,3.6675,3.563,3.4581,3.3757,3.3533,3.3671,3.3884,3.3972,3.3847,3.3596,3.3784,3.3809,3.3658,3.3721,3.3935,3.3935,3.3746,3.3545,3.352,3.3257,3.3174,3.3124,3.3124,3.3124,3.3124,3.3124,3.3124,4.4961,4.5545,4.6014,4.6589,4.7172,4.7342,4.6932,4.6185,4.5681,4.5152,4.4654,4.4598,4.4598,4.4598,4.4598,4.4598,4.4598,4.4598,4.4598,4.4598,4.4598,4.4598,4.4598,4.4598,4.4598,4.4598,4.4598,4.4598,4.4598,4.4598,4.4598,4.4598,4.4598,4.4514,4.4327,4.4514,4.4514,4.4327,4.453,4.4598,4.4598,4.4598,4.4253,4.3667,4.338,4.2567,4.1113,4.0826,4.0622,4.0432,4.0588,4.1396,4.2831,4.2189,4.1804,4.1869,4.0995,4.0397,4.0432,4.1028,4.1511,4.1707,4.1901,4.1981,4.1965,4.1412,4.0622,3.9829,3.9538,3.9388,3.9388,3.9388,3.9388,3.9388,3.9388,3.9388,3.9388,3.9388,3.9388,3.9388,3.9508,3.9664,3.9649,3.9768,3.9881,3.9846,3.9576,3.9182,3.8514,3.7561,3.6237,3.512,3.4338,3.4211,3.4663,3.4643,3.45,3.4123,3.4399,3.4412,3.4236,3.4462,3.463,3.46,3.4361,3.4123,3.4048,3.3784,3.3558,3.3571,3.3596,3.352,3.3558,3.3545,3.3345,4.4961,4.5459,4.5571,4.594,4.653,4.7128,4.6705,4.5656,4.5511,4.5169,4.4626,4.4598,4.4598,4.4598,4.4598,4.4598,4.4598,4.4598,4.4598,4.4598,4.4598,4.4598,4.4598,4.4598,4.4598,4.4598,4.4598,4.4598,4.4598,4.4598,4.4598,4.4598,4.4598,4.4212,4.3621,4.4224,4.4224,4.3472,4.4196,4.4598,4.4598,4.4598,4.4542,4.4485,4.371,4.2847,4.1885,4.1113,4.0328,3.9666,4.0259,4.1113,4.1933,4.1313,4.118,4.1853,4.0447,3.9517,3.9538,3.9574,4.0025,4.0792,4.1543,4.1965,4.1997,4.1933,4.1511,4.0706,3.9864,3.9424,3.9388,3.9388,3.9388,3.9388,3.9388,3.9388,3.9388,3.9388,3.9388,3.9388,3.9918,4.0307,4.0352,4.0726,4.11,4.11,4.1024,4.066,3.9768,3.8821,3.7874,3.6911,3.5807,3.4906,3.4949,3.4751,3.4956,3.4778,3.4745,3.4796,3.4828,3.4758,3.4718,3.5027,3.4705,3.4618,3.4605,3.4542,3.4512,3.4336,3.4387,3.4467,3.4562,3.4474,3.4161,4.4748,4.4981,4.5346,4.5858,4.6407,4.6687,4.6312,4.5511,4.5115,4.4814,4.4626,4.4598,4.4598,4.4598,4.4598,4.4598,4.4598,4.4598,4.4598,4.4598,4.4598,4.4598,4.4598,4.4598,4.4598,4.4598,4.4598,4.4598,4.4598,4.4598,4.4598,4.4598,4.4598,4.415,4.3443,4.4167,4.4167,4.3383,4.4167,4.4598,4.4598,4.4598,4.4598,4.457,4.427,4.3396,4.2157,4.1642,4.0826,3.9574,3.9737,4.0569,4.1933,4.118,4.108,4.1804,4.0359,3.9388,3.9388,3.9388,3.9538,3.9935,4.074,4.1429,4.1949,4.1981,4.1836,4.1412,4.0205,3.9388,3.9388,3.9388,3.9388,3.9388,3.9388,3.9388,3.9388,3.9388,3.9508,3.9933,4.0232,4.0576,4.092,4.1242,4.1587,4.1871,4.1991,4.1679,4.0966,4.0426,3.9817,3.897,3.8175,3.7505,3.6871,3.6729,3.6573,3.6379,3.6522,3.6541,3.5552,3.6211,3.656,3.5873,3.547,3.5261,3.5157,3.4856,3.468,3.4731,3.4705,3.468,3.468,3.468,3.4462,4.4598,4.4692,4.5258,4.5757,4.6143,4.6143,4.5915,4.5459,4.4869,4.4598,4.4598,4.4598,4.4598,4.4598,4.4598,4.4598,4.4598,4.4598,4.4598,4.4598,4.4598,4.4598,4.4598,4.4598,4.4598,4.4598,4.4598,4.4598,4.4598,4.4598,4.4598,4.4598,4.4598,4.4035,4.3169,4.4006,4.4035,4.3122,4.4006,4.4598,4.4598,4.4598,4.4598,4.4598,4.4598,4.3768,4.2077,4.1981,4.1196,3.9517,3.9388,4.0076,4.1478,4.1046,4.0979,4.1445,4.0255,3.9388,3.9388,3.9388,3.9388,3.9445,4.0205,4.108,4.1804,4.1981,4.2125,4.2237,4.0774,3.9737,3.9424,3.9388,3.9388,3.9388,3.9388,3.9388,3.9388,3.9388,3.9642,4.0277,4.0561,4.101,4.1713,4.1983,4.2177,4.2536,4.2641,4.2535,4.2117,4.1765,4.121,4.0476,4.0347,3.98,3.8872,3.851,3.8363,3.8287,3.831,3.8095,3.6929,3.8,3.8172,3.7131,3.6511,3.6012,3.5814,3.5416,3.5165,3.5177,3.5165,3.5177,3.5328,3.5215,3.5203,4.4598,4.4665,4.5258,4.5511,4.5563,4.5588,4.5537,4.5381,4.4852,4.4598,4.4598,4.4598,4.4598,4.4598,4.4598,4.4598,4.4598,4.4598,4.4598,4.4598,4.4598,4.4598,4.4598,4.4598,4.4598,4.4598,4.4598,4.4598,4.4598,4.4598,4.4598,4.4598,4.4598,4.3768,4.2645,4.3844,4.3768,4.2583,4.3814,4.4598,4.4598,4.4598,4.4598,4.4598,4.4598,4.3798,4.2284,4.1981,4.1196,3.9481,3.9424,3.9844,4.0656,4.0758,4.0811,4.0792,3.9955,3.9409,3.946,3.9424,3.9388,3.9481,4.0115,4.1046,4.1885,4.1981,4.2316,4.3108,4.1658,4.0447,3.961,3.946,3.9454,3.9463,3.9433,3.9448,3.9463,3.9597,3.9738,4.0412,4.107,4.1848,4.3,4.3215,4.3095,4.3155,4.3215,4.3175,4.2976,4.2275,4.1726,4.1587,4.1462,4.1127,4.0116,3.9798,3.9784,3.9731,3.9646,3.9653,3.9754,3.9667,3.9036,3.8379,3.7821,3.7213,3.6633,3.6304,3.6191,3.6128,3.6091,3.6103,3.5881,3.6216,3.6166,4.4598,4.4637,4.5258,4.5267,4.4971,4.532,4.5267,4.4889,4.4709,4.4598,4.4598,4.4598,4.4598,4.4598,4.4598,4.4598,4.4598,4.4598,4.4598,4.4598,4.4598,4.4598,4.4598,4.4598,4.4598,4.4598,4.4598,4.4598,4.4598,4.4598,4.4598,4.4598,4.4598,4.4006,4.3259,4.4006,4.3989,4.3078,4.4018,4.4598,4.4598,4.4598,4.4598,4.4598,4.4598,4.4064,4.2878,4.2316,4.1445,4.0274,3.9702,3.9793,4.0622,4.1247,4.1804,4.2157,4.1028,4.0205,4.015,3.9702,3.9388,3.9424,3.9681,4.055,4.1674,4.2013,4.2347,4.2939,4.2847,4.1804,4.0466,3.9737,3.9568,3.9963,4.0053,4.0202,4.0561,4.0696,4.0935,4.1579,4.2222,4.2851,4.3095,4.3305,4.3305,4.3305,4.3305,4.3305,4.325,4.2886,4.2673,4.2684,4.2684,4.2563,4.2263,4.1393,4.0986,4.1,4.0916,4.0447,4.0318,4.0689,4.029,3.8456,3.8107,3.7665,3.6777,3.6392,3.6417,3.6417,3.6417,3.6417,3.6405,3.6417,3.6417,4.4598,4.4654,4.5052,4.4971,4.4665,4.5025,4.4971,4.4598,4.4598,4.4598,4.4598,4.4598,4.4598,4.4598,4.4598,4.4598,4.4598,4.4598,4.4598,4.4598,4.4598,4.4598,4.4598,4.4598,4.4598,4.4598,4.4598,4.4598,4.4598,4.4598,4.4598,4.4598,4.4598,4.4167,4.3591,4.4167,4.4167,4.3621,4.415,4.4598,4.4598,4.4598,4.4598,4.4598,4.4598,4.4196,4.3336,4.2458,4.1593,4.0724,3.9864,3.9793,4.0656,4.1231,4.1965,4.2599,4.1511,4.0724,4.0588,3.99,3.9388,3.9388,3.946,4.013,4.1723,4.1981,4.2536,4.332,4.3078,4.2332,4.1529,4.0416,3.9918,4.0352,4.0576,4.0876,4.1309,4.1407,4.1707,4.2246,4.2836,4.32,4.3305,4.3305,4.3305,4.3305,4.3305,4.3305,4.3305,4.3499,4.3484,4.3394,4.3728,4.3747,4.35,4.2811,4.2245,4.2187,4.1838,4.1309,4.0746,4.1211,4.0675,3.889,3.7848,3.7415,3.6989,3.6546,3.6417,3.6417,3.6417,3.6417,3.6417,3.6417,3.6417,4.4598,4.4598,4.4598,4.4654,4.4598,4.4637,4.4643,4.4598,4.4598,4.4598,4.4598,4.4598,4.4598,4.4598,4.4598,4.4598,4.4598,4.4598,4.4598,4.4598,4.4598,4.4598,4.4598,4.4598,4.4598,4.4598,4.4598,4.4598,4.4598,4.4598,4.4598,4.4598,4.4598,4.4224,4.3366,4.4167,4.4196,4.3756,4.4241,4.4598,4.4598,4.4598,4.4598,4.4598,4.4598,4.4224,4.3396,4.2489,4.1642,4.0811,3.9884,3.9829,4.0554,4.0878,4.1213,4.1933,4.1247,4.0826,4.069,3.992,3.9388,3.9388,3.9388,4.013,4.1642,4.2029,4.2676,4.3902,4.3251,4.2334,4.2549,4.1544,4.0628,4.0516,4.107,4.1429,4.1519,4.1497,4.1707,4.241,4.2985,4.3275,4.3319,4.3409,4.3469,4.3559,4.3559,4.3574,4.3663,4.4047,4.4003,4.3813,4.4201,4.4646,4.4441,4.4176,4.3707,4.3299,4.2813,4.2263,4.1183,4.1042,4.0204,3.868,3.7678,3.7196,3.6769,3.6417,3.6417,3.6417,3.6417,3.6417,3.6417,3.6417,3.6417,4.4598,4.4598,4.4598,4.4598,4.4598,4.4598,4.4598,4.4598,4.4598,4.4598,4.4598,4.4598,4.4598,4.4598,4.4598,4.4598,4.4598,4.4598,4.4598,4.4598,4.4598,4.4598,4.4598,4.4598,4.4598,4.4598,4.4598,4.4598,4.4598,4.4598,4.4598,4.4598,4.4598,4.4485,4.4196,4.444,4.4412,4.4298,4.444,4.4598,4.4598,4.4598,4.4598,4.4598,4.4598,4.444,4.4167,4.2769,4.1901,4.1576,4.0185,3.9793,4.0588,4.128,4.1997,4.2645,4.2093,4.1593,4.1412,4.0255,3.9388,3.9388,3.9388,4.0255,4.1707,4.1997,4.2769,4.4291,4.3946,4.3522,4.3034,4.2895,4.2323,4.182,4.1976,4.2252,4.2536,4.2617,4.2806,4.2985,4.317,4.3454,4.3828,4.3947,4.4127,4.4526,4.4586,4.4586,4.4676,4.4781,4.496,4.4811,4.5214,4.5308,4.5068,4.4356,4.3544,4.2894,4.2505,4.1769,4.0873,4.0304,3.9434,3.8559,3.7599,3.7023,3.6593,3.6417,3.6417,3.6452,3.6499,3.6452,3.6417,3.664,3.6943,4.4598,4.4598,4.4598,4.4598,4.4598,4.4598,4.4598,4.4598,4.4598,4.4598,4.4598,4.4598,4.4598,4.4598,4.4598,4.4598,4.4598,4.4598,4.4598,4.4598,4.4598,4.4598,4.4598,4.4598,4.4598,4.4598,4.4598,4.4598,4.4598,4.4598,4.4598,4.4598,4.4598,4.457,4.4598,4.4598,4.4598,4.4598,4.4598,4.4598,4.4598,4.4598,4.4598,4.4598,4.4598,4.4598,4.4468,4.2939,4.1981,4.1691,4.0309,3.9737,4.0255,4.1013,4.1772,4.2062,4.1869,4.1511,4.1379,4.0165,3.9388,3.9388,3.9388,4.0005,4.1247,4.1739,4.2707,4.3793,4.3854,4.3686,4.3449,4.3153,4.3046,4.2803,4.2716,4.291,4.323,4.3305,4.3275,4.3305,4.3499,4.3843,4.4182,4.4601,4.4796,4.5214,4.5289,4.5289,4.5349,4.5514,4.5529,4.5648,4.5933,4.5861,4.5568,4.458,4.33,4.2452,4.171,4.064,3.9522,3.9258,3.8693,3.7769,3.6849,3.6769,3.6417,3.6417,3.6417,3.6499,3.6593,3.6803,3.6989,3.7782,3.8011,4.4598,4.4598,4.4598,4.4598,4.4598,4.4598,4.4598,4.4598,4.4598,4.4598,4.4598,4.4598,4.4598,4.4598,4.4598,4.4598,4.4598,4.4598,4.4598,4.4598,4.4598,4.4598,4.4598,4.4598,4.4598,4.4598,4.4598,4.4598,4.4598,4.4598,4.4598,4.4598,4.4468,4.4542,4.4542,4.457,4.4485,4.457,4.4598,4.4598,4.4598,4.4598,4.4598,4.4598,4.4598,4.4598,4.4367,4.2953,4.1917,4.1642,4.0165,3.9424,3.9574,4.0239,4.0826,4.0946,4.0743,4.0777,4.0554,3.997,3.9301,3.9141,3.9337,3.9722,4.0504,4.1314,4.2221,4.3244,4.3186,4.3287,4.3564,4.3202,4.2866,4.3195,4.3185,4.323,4.3195,4.3115,4.3055,4.3269,4.3792,4.4295,4.4445,4.508,4.5349,4.5544,4.5603,4.5663,4.5738,4.6007,4.5978,4.6217,4.6561,4.6174,4.5809,4.4297,4.2992,4.1736,4.0909,3.9648,3.8705,3.8411,3.8149,3.7236,3.6635,3.6515,3.6468,3.6518,3.6468,3.6465,3.6722,3.7116,3.7553,3.8043,3.8179,4.4598,4.4598,4.4598,4.4598,4.4598,4.4598,4.4598,4.4598,4.4598,4.4598,4.4598,4.4598,4.4598,4.4598,4.4598,4.4598,4.4598,4.4598,4.4598,4.4598,4.4598,4.4598,4.4598,4.4598,4.457,4.4497,4.4542,4.4598,4.4598,4.4525,4.4542,4.457,4.3948,4.3977,4.444,4.3977,4.4035,4.4497,4.4598,4.4598,4.4598,4.4598,4.4598,4.4598,4.4598,4.457,4.444,4.2923,4.1313,4.0181,3.9717,3.9388,3.9481,4.0185,4.0622,4.0622,4.0656,4.069,4.05,3.9864,3.9053,3.8383,3.8819,3.9406,3.9511,4.0442,4.1633,4.2652,4.2918,4.304,4.3526,4.3343,4.3199,4.3245,4.3305,4.3021,4.2371,4.207,4.223,4.2682,4.2971,4.3791,4.509,4.5761,4.6117,4.6503,4.6636,4.6636,4.6591,4.6636,4.6681,4.6845,4.6998,4.6446,4.5652,4.4069,4.2616,4.1152,4.0017,3.881,3.8162,3.7884,3.7613,3.7081,3.688,3.6757,3.6757,3.6769,3.6644,3.6531,3.7129,3.7658,3.7243,3.7428,3.7553,4.4598,4.4598,4.4598,4.4598,4.4598,4.4598,4.4598,4.4598,4.4598,4.4598,4.4598,4.4598,4.4598,4.4598,4.4598,4.4598,4.4598,4.4598,4.4384,4.396,4.3604,4.368,4.4006,4.4338,4.4236,4.3634,4.4253,4.4355,4.4093,4.4064,4.4035,4.3873,4.3199,4.3246,4.3948,4.3638,4.371,4.444,4.4598,4.4598,4.4598,4.4598,4.4598,4.4598,4.457,4.4384,4.3515,4.2504,4.1196,3.9844,3.9388,3.9388,3.9424,3.9864,4.015,4.015,4.0135,4.0135,3.996,3.9262,3.8494,3.7904,3.8144,3.8235,3.8605,3.9485,4.067,4.2137,4.2525,4.3046,4.347,4.3455,4.3324,4.3305,4.3305,4.3036,4.2345,4.1947,4.1931,4.228,4.2467,4.3026,4.5228,4.574,4.637,4.6971,4.7174,4.7189,4.7219,4.7309,4.7309,4.7294,4.6858,4.6152,4.5195,4.3752,4.2474,4.1055,3.9969,3.8567,3.8115,3.7839,3.7663,3.7511,3.7247,3.7073,3.7222,3.7197,3.6958,3.7128,3.7701,3.7684,3.7214,3.759,3.7564,4.4598,4.4598,4.4598,4.4598,4.4598,4.4598,4.4598,4.4598,4.4598,4.4598,4.4598,4.4598,4.4598,4.4598,4.4598,4.4598,4.4598,4.4598,4.4047,4.3456,4.2847,4.2693,4.2892,4.3663,4.3469,4.2785,4.3798,4.3948,4.3651,4.3426,4.3259,4.3092,4.241,4.2489,4.3169,4.3216,4.3697,4.4412,4.4598,4.4598,4.4598,4.4598,4.4598,4.4598,4.4598,4.3739,4.266,4.1885,4.118,3.9481,3.9388,3.9388,3.9409,3.9409,3.9445,3.9481,3.9538,3.9517,3.9322,3.873,3.7866,3.7548,3.6852,3.6526,3.7415,3.8311,3.9694,4.1301,4.2125,4.2759,4.3431,4.3445,4.3309,4.3305,4.3305,4.3305,4.3165,4.231,4.1722,4.2196,4.1912,4.2527,4.3961,4.5045,4.5869,4.7089,4.7309,4.7309,4.7309,4.7309,4.7309,4.7309,4.658,4.5674,4.4567,4.3353,4.2269,4.1063,4.0184,3.9157,3.8642,3.8354,3.8203,3.799,3.7713,3.7739,3.7965,3.7776,3.74,3.7584,3.8157,3.76,3.7062,3.8162,3.8601,4.4598,4.4598,4.4598,4.4598,4.4598,4.4598,4.457,4.457,4.457,4.444,4.457,4.457,4.457,4.4598,4.4598,4.4598,4.457,4.4514,4.4121,4.3383,4.3185,4.2221,4.1788,4.2284,4.2676,4.2645,4.2552,4.3152,4.3651,4.2878,4.263,4.2939,4.1804,4.1772,4.2986,4.2693,4.3108,4.431,4.4598,4.4598,4.4598,4.4598,4.4598,4.4598,4.4598,4.3693,4.2379,4.1981,4.1162,3.9879,3.9388,3.9388,3.9388,3.9388,3.9388,3.9388,3.9388,3.9388,3.9352,3.9031,3.8256,3.6838,3.6866,3.6866,3.548,3.7046,3.8585,4.0062,4.1113,4.2138,4.3201,4.3367,4.3329,4.3305,4.3349,4.3529,4.359,4.2208,4.1357,4.1585,4.1458,4.2025,4.4636,4.496,4.5824,4.6975,4.7309,4.7309,4.7309,4.7309,4.7309,4.7309,4.6594,4.5629,4.4102,4.2869,4.164,4.0844,4.0121,3.9659,3.9145,3.8894,3.873,3.8492,3.8228,3.8366,3.863,3.8253,3.7839,3.8227,3.8451,3.7951,3.7826,3.8813,3.8951,4.4598,4.4598,4.4598,4.4598,4.4514,4.4167,4.4006,4.3902,4.3545,4.3604,4.3931,4.3977,4.4224,4.4587,4.4598,4.4598,4.4468,4.415,4.4006,4.3651,4.3169,4.2173,4.1495,4.1247,4.1511,4.1625,4.1965,4.2442,4.2363,4.2013,4.1593,4.1965,4.0774,4.1095,4.2426,4.2252,4.3,4.4253,4.4598,4.4598,4.4598,4.4598,4.4598,4.4598,4.4497,4.3768,4.2189,4.1981,4.1062,3.9879,3.9388,3.9388,3.9388,3.9388,3.9388,3.9388,3.9388,3.9388,3.9388,3.8855,3.7904,3.6355,3.6397,3.5722,3.5102,3.5815,3.7484,3.9222,4.0437,4.1307,4.3016,4.3305,4.3305,4.3364,4.3589,4.3917,4.3831,4.2181,4.1097,4.1461,4.0811,4.1408,4.2685,4.4153,4.5207,4.6062,4.7266,4.7309,4.7309,4.7309,4.7309,4.7164,4.6594,4.5539,4.3821,4.235,4.0919,4.0313,3.9942,3.9697,3.9496,3.9346,3.927,3.9032,3.8818,3.9007,3.9145,3.8718,3.8404,3.8528,3.8561,3.8295,3.8225,3.853,3.844,4.444,4.4224,4.4355,4.4327,4.4109,4.3396,4.3108,4.2986,4.2316,4.2676,4.3199,4.3306,4.3873,4.444,4.4598,4.4598,4.4412,4.4035,4.3948,4.3919,4.3,4.2173,4.1609,4.1013,4.0432,3.9681,4.0706,4.1213,4.118,4.0672,4.069,4.0638,4.0115,4.0706,4.1739,4.2252,4.3031,4.4412,4.4598,4.4598,4.4598,4.4598,4.4598,4.457,4.4018,4.341,4.2189,4.1739,4.1044,3.9553,3.9388,3.9388,3.9388,3.9388,3.9388,3.9388,3.9388,3.9388,3.9301,3.8657,3.7738,3.6526,3.5601,3.4992,3.4869,3.5096,3.647,3.8302,3.9828,4.1182,4.2981,4.3305,4.3305,4.3409,4.3873,4.4302,4.4068,4.251,4.2239,4.2274,4.148,4.1346,4.2202,4.3395,4.4256,4.5161,4.6403,4.7207,4.7164,4.7207,4.7164,4.7266,4.6829,4.5553,4.3882,4.1739,4.0313,4.0019,3.9697,3.9697,3.9697,3.9609,3.9509,3.9584,3.9534,3.9597,3.9534,3.9233,3.8994,3.8919,3.8818,3.8755,3.8503,3.8165,3.8052,4.3768,4.2504,4.3199,4.3092,4.2489,4.2252,4.2221,4.2189,4.1965,4.2489,4.3139,4.3306,4.371,4.4384,4.4598,4.4598,4.4542,4.4327,4.4064,4.3814,4.3139,4.2583,4.1412,4.1046,4.0309,3.9646,3.997,4.0516,4.0961,4.0481,4.0115,4.05,4.0432,4.0961,4.1869,4.2693,4.338,4.4412,4.4598,4.4598,4.4598,4.4485,4.4367,4.4224,4.332,4.2473,4.1965,4.128,4.0432,3.9538,3.9424,3.9388,3.9388,3.9388,3.9388,3.9388,3.9388,3.9388,3.9301,3.9228,3.8546,3.7625,3.6462,3.544,3.5031,3.5112,3.5991,3.7574,3.9855,4.1823,4.3111,4.3305,4.3305,4.3439,4.3917,4.4541,4.4757,4.4412,4.3754,4.3987,4.2623,4.1284,4.2088,4.2738,4.3409,4.4396,4.5539,4.6255,4.6447,4.6682,4.6916,4.7062,4.7222,4.5644,4.3929,4.1604,3.9839,3.989,3.9697,3.9697,3.9697,3.9697,3.9697,3.9697,3.9697,3.9659,3.9597,3.9534,3.9484,3.932,3.927,3.9207,3.8956,3.8693,3.8504,4.3169,4.2062,4.2458,4.2379,4.1949,4.1511,4.1346,4.1247,4.086,4.1129,4.1901,4.2458,4.3108,4.3873,4.4457,4.457,4.4598,4.4598,4.4338,4.4006,4.3873,4.335,4.1965,4.156,4.086,4.0185,3.9737,3.9737,4.0516,3.9864,3.9681,3.9849,4.0025,4.0672,4.1756,4.2363,4.341,4.4253,4.4598,4.457,4.4497,4.4224,4.3768,4.3092,4.2504,4.182,4.128,4.1013,4.0309,3.961,3.9388,3.9388,3.9388,3.9388,3.9388,3.9388,3.9388,3.9388,3.9388,3.9352,3.8855,3.7881,3.6852,3.5788,3.4989,3.4839,3.563,3.7799,3.9746,4.207,4.3155,4.329,4.3305,4.3484,4.4142,4.487,4.5269,4.5618,4.5697,4.5345,4.3241,4.1955,4.1834,4.2398,4.2786,4.3598,4.4674,4.5207,4.5598,4.5734,4.5958,4.6018,4.5928,4.4642,4.3074,4.1319,3.9749,3.9697,3.9697,3.9697,3.9697,3.9697,3.9697,3.9697,3.9697,3.9697,3.9685,3.9622,3.9672,3.9697,3.9559,3.9433,3.9371,3.9233,3.9007,4.2426,4.1478,4.1658,4.1642,4.1379,4.0758,4.0432,4.0309,3.9773,3.999,4.0709,4.1462,4.2316,4.3336,4.4121,4.4598,4.4598,4.4598,4.444,4.4253,4.4384,4.4035,4.3,4.2347,4.1462,4.0535,3.9773,3.9424,3.9574,3.9445,3.9424,3.961,3.9574,4.0393,4.1739,4.2363,4.329,4.4093,4.4598,4.457,4.4167,4.3486,4.2738,4.1965,4.1674,4.1147,4.086,4.0466,4.0095,3.9574,3.9388,3.9388,3.9388,3.9388,3.9388,3.9388,3.9388,3.9388,3.9388,3.9388,3.9068,3.836,3.7175,3.6107,3.5207,3.5008,3.5551,3.8591,4.0266,4.1809,4.2941,4.3305,4.3305,4.3559,4.4421,4.5349,4.5618,4.609,4.6822,4.5781,4.3598,4.2689,4.2544,4.2496,4.293,4.2655,4.3646,4.4149,4.4442,4.4256,4.4349,4.4442,4.4163,4.3109,4.1923,4.0932,3.9878,3.9697,3.9697,3.9697,3.9697,3.9697,3.9697,3.9697,3.9697,3.9697,3.9697,3.9749,3.9697,3.9697,3.9697,3.9647,3.9546,3.9534,3.9421,4.1196,3.9773,4.055,4.0413,3.9824,3.9646,3.9574,3.9589,3.9445,3.9884,4.0588,4.0878,4.1788,4.3199,4.4224,4.457,4.4598,4.457,4.4281,4.3948,4.4298,4.3798,4.2442,4.2125,4.1626,4.0912,4.0005,3.946,3.9481,3.9481,3.9388,3.9481,4.006,4.0995,4.1739,4.2252,4.3621,4.4367,4.4525,4.4224,4.3486,4.2693,4.2189,4.1625,4.0755,4.0115,4.0413,4.006,3.9553,3.9481,3.9388,3.9388,3.9388,3.9388,3.9388,3.9388,3.9388,3.9388,3.9388,3.9388,3.9388,3.887,3.8069,3.7137,3.6035,3.5378,3.6137,3.9376,4.0189,4.1225,4.286,4.3265,4.3305,4.3678,4.4377,4.505,4.5469,4.6172,4.6965,4.6638,4.4642,4.374,4.3266,4.3122,4.3026,4.2655,4.2509,4.293,4.3252,4.3013,4.2724,4.2786,4.3026,4.2119,4.1256,4.0262,3.9929,3.9697,3.9697,3.9697,3.9697,3.9697,3.9697,3.9697,3.9697,3.989,4.0083,4.0083,3.9839,3.9697,3.9697,3.9697,3.9685,3.9697,3.9697,4.0111,3.9445,3.9809,3.9773,3.9424,3.9388,3.9388,3.9388,3.9424,3.961,4.0025,4.0519,4.1674,4.3169,4.4224,4.457,4.4598,4.4598,4.4412,4.4064,4.4281,4.3885,4.3031,4.2676,4.2252,4.1478,4.1028,4.0622,4.0205,3.9646,3.9388,3.9445,3.9809,4.0309,4.128,4.1642,4.23,4.297,4.3486,4.3667,4.3185,4.2489,4.1756,4.1264,4.0025,3.9758,3.9793,3.9717,3.9388,3.9388,3.9388,3.9388,3.9388,3.9388,3.9388,3.9388,3.9388,3.9388,3.9388,3.9388,3.9388,3.9156,3.8418,3.7292,3.6428,3.6118,3.6806,3.9587,4.0518,4.1601,4.286,4.325,4.3305,4.3604,4.4317,4.484,4.5394,4.6127,4.6627,4.6241,4.5734,4.4456,4.3122,4.2084,4.1654,4.1319,4.1032,4.1169,4.1654,4.1838,4.1455,4.1069,4.1406,4.1442,4.0693,3.989,3.9839,3.9697,3.9697,3.9697,3.9697,3.9697,3.9697,3.9697,3.9697,3.9981,4.0415,4.0313,3.9981,3.9839,3.9697,3.9839,3.9942,3.9697,3.9697,3.9388,3.9424,3.9631,3.961,3.9445,3.9595,3.961,3.9388,3.9388,3.9388,3.9646,4.0343,4.1576,4.2878,4.3814,4.431,4.4598,4.4598,4.4412,4.4384,4.4384,4.408,4.3426,4.3185,4.2785,4.1981,4.1445,4.108,4.0588,4.0115,3.9702,3.9424,3.9481,3.9955,4.05,4.0946,4.1478,4.2645,4.3426,4.3591,4.3199,4.2458,4.1593,4.0758,3.9955,3.9517,3.9702,3.9773,3.9773,3.9773,3.9809,3.9773,3.9481,3.9388,3.9388,3.9388,3.9388,3.9388,3.9388,3.9388,3.9388,3.9068,3.85,3.7501,3.6996,3.6866,3.7593,3.9731,4.0873,4.2003,4.2996,4.3305,4.3305,4.3589,4.4127,4.4706,4.5278,4.603,4.6281,4.5783,4.5115,4.4069,4.2606,4.0895,4.0121,3.989,3.9697,3.9697,4.0121,4.0743,4.0605,4.0313,4.0402,4.0693,4.0313,3.98,3.9697,3.9697,3.9697,3.9697,3.9697,3.9697,3.9697,3.9697,3.9839,4.0275,4.0844,4.0516,4.0224,4.0554,4.0693,4.0313,4.0173,3.9981,3.9839,3.9388,3.9481,4.0274,4.013,3.9445,4.0289,4.0115,3.9424,3.9388,3.9388,3.9517,4.0378,4.1346,4.2252,4.3259,4.4035,4.4598,4.4598,4.4224,4.4035,4.4064,4.4006,4.3562,4.3169,4.2847,4.1981,4.1528,4.108,4.0724,4.0554,4.0025,3.9502,3.9574,4.0025,4.0343,4.0535,4.1379,4.2583,4.3545,4.3798,4.332,4.2583,4.1723,4.0878,4.008,3.9773,4.0535,4.0638,4.05,4.0466,4.0432,4.0025,3.9538,3.9424,3.9388,3.9388,3.9388,3.9388,3.9388,3.9388,3.9388,3.9104,3.8558,3.793,3.7855,3.7868,3.8698,3.998,4.128,4.2208,4.2955,4.3305,4.3305,4.3559,4.4067,4.4766,4.5371,4.6024,4.6123,4.5438,4.4456,4.3266,4.2363,4.0706,3.9942,3.9749,3.9697,3.9697,3.9697,4.0121,4.0032,3.9839,3.9839,3.989,3.989,3.9697,3.9697,3.9697,3.9697,3.9697,3.9697,3.9749,4.0121,4.0224,4.0516,4.0895,4.1419,4.1789,4.2021,4.1923,4.1789,4.1505,4.1132,4.0844,4.0554,3.9388,3.9481,4.0343,4.022,3.9409,3.9773,3.9702,3.946,3.9388,3.9388,3.9481,4.0826,4.1658,4.2284,4.3486,4.4253,4.457,4.4598,4.431,4.4281,4.4355,4.4035,4.3591,4.3169,4.2847,4.2045,4.1528,4.1098,4.0743,4.0724,4.015,3.9773,3.9935,3.99,4.006,4.0115,4.1028,4.2125,4.297,4.3152,4.4018,4.3306,4.263,4.23,4.1445,4.1196,4.1478,4.1511,4.118,4.0894,4.0792,4.0239,3.9595,3.9481,3.9388,3.9388,3.9388,3.9388,3.9388,3.9388,3.9388,3.9296,3.8837,3.8546,3.8883,3.9384,4.0035,4.1036,4.1906,4.282,4.313,4.3305,4.3349,4.3544,4.4037,4.4811,4.5403,4.6025,4.5815,4.5104,4.3632,4.2217,4.1406,4.0554,4.0083,3.9697,3.9697,3.9697,3.9697,3.9697,3.9697,3.9697,3.9697,3.9697,3.9697,3.9697,3.9697,3.9697,3.9697,3.9697,3.9788,4.0743,4.1082,4.1082,4.1505,4.2363,4.3122,4.3679,4.3726,4.3204,4.3026,4.293,4.2461,4.1887,4.1604,3.9388,3.9481,4.0045,3.9955,3.9445,3.9666,3.9631,3.9424,3.9388,3.9388,3.9517,4.0961,4.1804,4.2347,4.341,4.4384,4.4514,4.4598,4.4598,4.457,4.4468,4.4064,4.3562,4.3108,4.2707,4.1917,4.156,4.118,4.0709,4.0724,4.0413,4.022,4.0309,4.013,3.9681,3.9773,4.0447,4.1346,4.2316,4.2816,4.4006,4.3621,4.3246,4.3047,4.2284,4.2125,4.2252,4.2347,4.2157,4.1707,4.128,4.069,4.0045,3.9574,3.9424,3.9388,3.9388,3.9388,3.9388,3.9388,3.9493,3.9652,3.9557,3.9528,3.9939,4.0717,4.1342,4.1457,4.2508,4.3305,4.3305,4.3305,4.3305,4.3469,4.4362,4.5095,4.5418,4.5849,4.53,4.4677,4.3286,4.2119,4.0794,4.0121,3.9981,3.9697,3.9697,3.9697,3.9697,3.9697,3.9697,3.9697,3.9697,3.9697,3.9697,3.9697,3.9697,3.9697,3.9697,3.9697,4.0032,4.1032,4.1604,4.1455,4.2217,4.3834,4.4503,4.4688,4.4549,4.421,4.3975,4.3693,4.3834,4.3313,4.3026,3.9388,3.9388,3.946,3.946,3.9481,4.0309,4.0115,3.946,3.9388,3.9388,3.9517,4.05,4.1346,4.2125,4.3229,4.4035,4.4497,4.4598,4.4598,4.4598,4.4384,4.3977,4.3456,4.297,4.2157,4.1046,4.0724,4.0656,4.0588,4.0466,4.0432,4.0432,4.0309,4.015,3.9538,4.0239,4.069,4.1013,4.2458,4.3169,4.3562,4.3562,4.3532,4.3336,4.2862,4.28,4.3139,4.3259,4.3061,4.2754,4.2237,4.1511,4.0554,3.9884,3.9574,3.9409,3.9388,3.9388,3.9388,3.9388,3.9657,4.0172,4.0114,4.0297,4.0746,4.1506,4.1981,4.1807,4.2629,4.321,4.3305,4.3305,4.3305,4.3559,4.4436,4.511,4.5403,4.5429,4.4916,4.4218,4.3537,4.2606,4.0895,3.9749,3.98,3.9697,3.9697,3.9697,3.9697,3.9697,3.9697,3.9697,3.9697,3.9697,3.9697,3.9697,3.9697,3.9697,3.9697,3.9697,4.0224,4.1219,4.1654,4.1739,4.3204,4.501,4.5358,4.5448,4.5403,4.5312,4.4549,4.4256,4.4549,4.4826,4.4642,3.9388,3.9388,3.9388,3.9388,3.946,3.9702,3.9631,3.9409,3.9388,3.9388,3.9702,4.086,4.1674,4.2347,4.341,4.4298,4.4514,4.4598,4.4598,4.4497,4.4064,4.3651,4.3078,4.2157,4.133,4.069,4.0274,3.9884,3.9793,3.992,3.9864,3.9829,3.9955,3.9666,3.9702,4.0239,4.0912,4.1626,4.2707,4.3562,4.4064,4.4093,4.4093,4.4093,4.3722,4.3768,4.4035,4.4035,4.3844,4.3443,4.2847,4.2109,4.1013,4.0239,3.992,3.9574,3.9388,3.9388,3.9388,3.9433,3.9723,4.0262,4.0666,4.0713,4.0833,4.2138,4.2258,4.2024,4.2534,4.3036,4.3305,4.3305,4.3319,4.3439,4.4067,4.4766,4.5096,4.4966,4.459,4.3673,4.2882,4.1802,4.0326,3.9749,3.9697,3.9697,3.9697,3.9697,3.9697,3.9697,3.9697,3.9697,3.9697,3.9697,3.9697,3.9697,3.9697,3.9697,3.9697,3.9697,4.0465,4.1319,4.2217,4.2641,4.4442,4.6151,4.6211,4.6358,4.6594,4.6403,4.5689,4.5448,4.5883,4.6255,4.6447,3.9388,3.9388,3.9388,3.9388,3.9388,3.9388,3.9388,3.9388,3.9424,3.9538,4.0115,4.1379,4.2189,4.28,4.3827,4.4598,4.4598,4.4598,4.4253,4.4167,4.3621,4.2939,4.2093,4.1329,4.069,4.022,3.9809,3.9424,3.9481,3.9424,3.9445,3.9481,3.9388,3.9445,3.9666,4.0239,4.0912,4.1642,4.252,4.3502,4.3977,4.4281,4.4542,4.4542,4.4468,4.4542,4.457,4.4497,4.431,4.371,4.3047,4.2395,4.1346,4.0516,4.008,3.9538,3.9388,3.9388,3.9388,3.9388,3.9753,4.0337,4.0702,4.0847,4.0836,4.1548,4.1403,4.142,4.2152,4.2548,4.2765,4.282,4.3349,4.3454,4.3802,4.446,4.4882,4.4763,4.4203,4.3288,4.2266,4.1032,4.0032,3.989,3.9697,3.9697,3.9697,3.9697,3.9697,3.9697,3.9697,3.9697,3.9697,3.9697,3.9697,3.9697,3.9697,3.9697,3.9697,3.9697,4.0224,4.1032,4.2315,4.3551,4.478,4.5973,4.6873,4.7222,4.7121,4.7121,4.6931,4.6931,4.7309,4.7309,4.7309,3.9388,3.9388,3.9388,3.9388,3.9388,3.9388,3.9388,3.9388,3.9388,3.9829,4.0656,4.1478,4.2284,4.3199,4.4167,4.457,4.4598,4.4598,4.4109,4.3562,4.3185,4.2221,4.1346,4.0672,4.015,3.9666,3.9388,3.9388,3.9388,3.9388,3.9388,3.9388,3.9388,3.9388,3.9681,4.0378,4.0946,4.1642,4.2785,4.3562,4.3977,4.4281,4.4542,4.4598,4.4598,4.4485,4.4412,4.431,4.4281,4.3739,4.2892,4.2252,4.1412,4.0324,3.9773,3.9409,3.9388,3.9388,3.9388,3.9388,3.9732,4.0174,3.9697,4.0357,4.071,4.0619,4.0376,4.0518,4.1028,4.1448,4.1753,4.2548,4.3305,4.3449,4.3622,4.4124,4.4697,4.4487,4.3845,4.2983,4.1906,4.0844,4.0032,3.9697,3.9697,3.9697,3.9697,3.9697,3.9697,3.9697,3.9697,3.9697,3.9697,3.9697,3.9697,3.9697,3.9697,3.9697,3.9697,3.9749,4.0275,4.0794,4.1887,4.3122,4.4503,4.5689,4.6829,4.7309,4.7266,4.7309,4.7309,4.7309,4.7309,4.7309,4.7309,3.9388,3.9388,3.9388,3.9388,3.9388,3.9388,3.9388,3.9388,3.9388,3.9595,3.9864,4.1362,4.2189,4.2489,4.3931,4.444,4.457,4.4468,4.4006,4.3396,4.2568,4.1658,4.086,4.0115,3.9666,3.9481,3.9388,3.9388,3.9388,3.9388,3.9388,3.9388,3.9388,3.9388,3.9915,4.0842,4.128,4.1997,4.3259,4.3873,4.4121,4.444,4.4598,4.4598,4.4598,4.4384,4.3919,4.3785,4.3591,4.2707,4.2347,4.1836,4.0995,4.0535,4.022,3.9445,3.9388,3.9388,3.9388,3.9388,3.9642,3.9735,3.8874,3.8652,3.9229,3.9598,3.9267,3.9311,4.0119,4.076,4.1462,4.2208,4.2996,4.3359,4.333,4.3265,4.3628,4.3234,4.2616,4.2073,4.1082,4.0605,3.98,3.9697,3.9697,3.9697,3.9697,3.9697,3.9697,3.9697,3.9697,3.9697,3.9697,3.9697,3.9697,3.9697,3.9697,3.9697,3.9697,3.9749,4.0019,4.0642,4.1505,4.2882,4.4642,4.5928,4.7019,4.7266,4.7309,4.7309,4.7309,4.7309,4.7309,4.7309,4.7309,3.9388,3.9388,3.9388,3.9388,3.9388,3.9388,3.9388,3.9388,3.9388,3.9538,4.0045,4.1379,4.2189,4.2769,4.3931,4.4412,4.4035,4.3931,4.335,4.2125,4.182,4.0961,4.0185,3.9737,3.9517,3.9388,3.9388,3.9388,3.9388,3.9388,3.9388,3.9388,3.9388,3.9388,3.9773,4.0603,4.1511,4.241,4.3456,4.4338,4.457,4.457,4.4598,4.4542,4.457,4.4064,4.3413,4.3276,4.2785,4.2029,4.1836,4.1313,4.0622,4.0397,4.0095,3.9424,3.9388,3.9388,3.9388,3.9388,3.9664,3.9387,3.8257,3.7795,3.7683,3.7919,3.7532,3.7455,3.9023,4.0319,4.1112,4.1864,4.2563,4.3265,4.2775,4.2276,4.202,4.172,4.1261,4.0835,4.0364,3.9981,3.9697,3.9697,3.9697,3.9697,3.9697,3.9697,3.9697,3.9697,3.9697,3.9697,3.9697,3.9697,3.9697,3.9697,3.9697,3.9697,3.9697,3.9788,3.9981,4.0831,4.2035,4.3456,4.5024,4.6166,4.7207,4.7266,4.7309,4.7309,4.7309,4.7309,4.7309,4.7309,4.7309,3.9388,3.9388,3.9388,3.9388,3.9388,3.9388,3.9388,3.9388,3.9388,3.9829,4.0569,4.1478,4.2157,4.2614,4.3545,4.368,4.3366,4.3139,4.2442,4.0777,4.0946,4.0432,3.9809,3.9388,3.9388,3.9388,3.9388,3.9388,3.9388,3.9388,3.9388,3.9388,3.9388,3.9388,3.9589,4.0378,4.128,4.2189,4.3152,4.4018,4.4355,4.4485,4.457,4.4457,4.4281,4.4035,4.3366,4.297,4.2676,4.1804,4.1147,4.0588,4.0274,3.9955,3.9538,3.946,3.9388,3.9388,3.9388,3.9388,3.9388,3.8981,3.7986,3.7252,3.7002,3.6512,3.6058,3.6416,3.7851,3.8993,3.9804,4.114,4.2126,4.2187,4.1807,4.155,4.1429,4.1018,4.0448,4.0147,4.0083,3.9697,3.9697,3.9697,3.9697,3.9697,3.9697,3.9697,3.9749,3.9749,3.9749,3.9749,3.9697,3.9697,3.9697,3.9697,3.9697,3.9697,3.9839,4.0134,4.0503,4.1505,4.2655,4.4022,4.5403,4.6344,4.7149,4.7251,4.7309,4.7309,4.7309,4.7309,4.7309,4.7309,4.7309,3.9388,3.9388,3.9388,3.9388,3.9388,3.9388,3.9388,3.9388,3.9388,3.9517,3.9864,4.0588,4.118,4.1642,4.2442,4.2614,4.2426,4.2269,4.1642,4.0912,4.0588,4.015,3.9553,3.9388,3.9388,3.9388,3.9388,3.9388,3.9388,3.9388,3.9388,3.9388,3.9388,3.9388,3.9445,4.0239,4.1013,4.1965,4.2347,4.3139,4.3591,4.4138,4.44,4.3919,4.3562,4.3199,4.2489,4.1707,4.0961,4.0095,3.99,3.9702,3.9666,3.9481,3.9424,3.9388,3.9388,3.9388,3.9388,3.9388,3.9352,3.8694,3.7782,3.6878,3.6089,3.5334,3.5196,3.5752,3.654,3.7558,3.8724,4.0234,4.1365,4.11,4.0853,4.0814,4.0814,4.0329,3.9728,3.9701,3.9711,3.9697,3.9697,3.9697,3.9697,3.9697,3.9697,3.9697,3.98,3.9788,3.9839,3.9788,3.9697,3.9697,3.9697,3.9697,3.9697,4.0134,4.0364,4.0706,4.1182,4.2363,4.3646,4.4549,4.5644,4.6535,4.7149,4.7251,4.7309,4.7309,4.7309,4.7309,4.7309,4.7309,4.7309,3.9388,3.9388,3.9388,3.9388,3.9388,3.9388,3.9388,3.9388,3.9388,3.9388,3.9517,4.0274,4.069,4.0826,4.1593,4.1626,4.1511,4.1445,4.0842,4.0343,4.015,3.9829,3.9553,3.9388,3.9388,3.9388,3.9388,3.9388,3.9388,3.9388,3.9388,3.9388,3.9388,3.9424,3.9481,3.999,4.0792,4.1933,4.1642,4.1933,4.2661,4.3139,4.3591,4.3139,4.2878,4.2458,4.1997,4.1147,4.0324,3.9681,3.9481,3.9445,3.9481,3.9424,3.9388,3.9388,3.9388,3.9388,3.9388,3.9352,3.9192,3.8368,3.7367,3.6334,3.5332,3.4632,3.4419,3.4976,3.5717,3.6709,3.7936,3.9363,4.0088,4.0156,3.9918,3.9767,3.9861,3.9799,3.9574,3.9699,3.9697,3.9697,3.9697,3.9697,3.9697,3.9697,3.9697,3.98,3.9839,4.0173,4.0121,4.0121,4.0224,3.989,3.9697,3.9697,3.9697,4.0224,4.0844,4.2084,4.293,4.374,4.4688,4.5598,4.6211,4.6638,4.7121,4.7266,4.7309,4.7309,4.7309,4.7309,4.7309,4.7309,4.7309,3.9388,3.9388,3.9388,3.9388,3.9388,3.9388,3.9388,3.9388,3.9388,3.9388,3.9445,4.015,4.05,4.0826,4.1213,4.0961,4.0724,4.0569,3.999,3.9717,3.9517,3.9481,3.9481,3.9388,3.9388,3.9388,3.9388,3.9388,3.9388,3.9388,3.9388,3.9388,3.9388,3.9388,3.9388,3.9589,4.02,4.1062,4.1213,4.1113,4.1495,4.1965,4.2489,4.2614,4.2395,4.1997,4.1804,4.1095,4.022,3.9864,3.9517,3.9388,3.9388,3.9388,3.9388,3.9388,3.9388,3.9388,3.9388,3.9388,3.8782,3.7942,3.6813,3.5748,3.4787,3.4198,3.4003,3.4361,3.5097,3.5902,3.7163,3.823,3.8903,3.9136,3.8893,3.896,3.9162,3.9397,3.9611,3.9775,3.9762,3.975,3.9749,3.9749,3.9685,3.9685,3.9736,3.9839,4.0083,4.0693,4.1032,4.1182,4.1319,4.0844,3.9981,3.9788,3.9839,4.0313,4.1132,4.3074,4.4688,4.5312,4.5928,4.6594,4.7164,4.7121,4.7164,4.7266,4.7309,4.7309,4.7309,4.7309,4.7309,4.7309,4.7309,3.9388,3.9388,3.9388,3.9424,3.9424,3.9388,3.9388,3.9388,3.9388,3.9388,3.9445,3.9481,3.9631,3.9681,3.9773,3.9758,3.997,3.9809,3.9702,3.9424,3.9388,3.9388,3.9388,3.9388,3.9388,3.9388,3.9388,3.9388,3.9388,3.9388,3.9388,3.9388,3.9388,3.9388,3.9388,3.9589,3.99,4.0569,4.0481,4.0205,4.0979,4.1511,4.1997,4.1901,4.1412,4.1997,4.2078,4.0721,4.0324,4.008,3.9809,3.9481,3.9388,3.9388,3.9388,3.9388,3.9388,3.9388,3.9388,3.9228,3.8583,3.761,3.6579,3.5588,3.4622,3.3738,3.3732,3.401,3.4638,3.519,3.6281,3.7528,3.8257,3.7976,3.7677,3.8526,3.9069,3.9512,3.988,3.9892,3.9854,3.9918,3.9929,3.9865,3.9634,3.9622,3.9597,3.9802,4.0844,4.1419,4.1936,4.2168,4.2363,4.1219,4.0173,4.0019,4.0121,4.0605,4.1604,4.374,4.5448,4.6638,4.7266,4.7309,4.7309,4.7266,4.7309,4.7309,4.7309,4.7309,4.7309,4.7309,4.7309,4.7309,4.7309]}]]